GFSSW_850_spd_000.txt.gz
Wind_Speed
18 19 19 19 19 18 18 19 17 17 20 22 21 21 20 19 19 21 26 21 15 14 14 13 14 10 6 7 9 12 5 3 5 7 3 14 12 22 15 30 19 7 30 35 35
18 18 19 20 20 20 18 19 19 18 19 21 21 22 20 18 19 26 21 19 16 17 14 12 12 8 6 10 8 8 5 11 7 5 7 14 25 21 13 22 19 28 33 34 36
18 19 19 20 21 21 20 19 20 20 19 21 20 21 19 17 18 8 5 13 20 20 16 13 12 12 6 12 15 10 11 9 13 11 21 15 13 15 26 14 39 34 37 40 38
19 19 19 20 22 21 21 21 20 21 20 22 20 21 18 15 5 2 5 7 21 19 18 17 14 3 3 3 7 5 16 26 13 24 22 11 17 8 16 18 33 40 38 42 41
19 20 20 20 21 22 22 20 21 20 22 22 21 20 16 10 21 10 3 5 19 21 23 18 8 5 4 4 8 16 13 23 27 24 20 17 11 13 21 35 35 36 37 37 37
20 21 20 20 21 22 23 22 22 22 22 22 23 20 12 6 5 8 4 8 16 23 22 19 7 4 11 7 4 20 33 30 31 27 21 21 18 12 27 34 34 34 31 35 32
22 21 21 21 21 22 23 23 24 23 24 22 22 19 15 27 11 6 8 7 14 21 22 18 18 15 4 10 14 37 20 13 17 19 8 28 7 10 32 34 32 31 29 29 26
24 23 22 22 22 22 23 22 24 26 25 25 18 16 12 16 8 11 9 8 17 19 18 15 14 17 16 18 8 8 14 8 7 17 16 13 6 13 35 32 28 30 31 30 29
25 25 24 23 23 23 23 22 23 26 23 13 7 7 14 6 11 13 15 8 14 18 15 13 15 19 13 1 5 5 8 12 6 6 9 6 8 18 32 31 29 29 30 33 33
24 26 25 22 23 24 22 21 22 16 5 7 6 6 11 5 10 18 12 11 11 16 15 14 8 2 3 4 4 5 7 17 14 11 3 11 8 20 29 29 29 30 30 31 36
25 25 27 24 21 24 22 20 12 4 17 17 24 24 35 29 15 20 17 19 16 10 6 6 3 6 9 8 6 5 7 12 10 11 8 16 12 19 26 25 24 27 30 31 35
26 26 25 24 22 21 19 10 12 14 16 29 32 35 38 33 17 19 22 15 11 7 5 3 7 11 6 4 6 4 7 8 3 12 7 13 17 19 23 28 31 30 30 34 31
26 26 27 24 22 18 12 9 13 21 7 25 36 34 39 21 27 29 29 29 5 7 6 7 7 7 5 9 4 6 8 9 10 6 6 11 1 8 15 22 25 27 38 40 37
25 25 25 25 14 10 17 6 14 13 3 9 6 14 28 21 9 27 30 25 6 14 6 6 12 8 8 8 7 8 10 14 8 16 7 8 6 6 17 15 13 24 31 38 40
24 24 23 22 23 18 14 9 8 4 4 5 6 5 24 15 6 18 35 26 11 7 8 9 10 10 9 16 7 13 8 12 11 16 7 3 5 10 8 9 11 21 37 42 44
25 23 25 20 24 13 3 5 1 5 7 6 5 6 7 11 11 21 30 32 16 5 4 10 17 8 11 17 9 14 5 6 5 5 2 11 7 4 10 25 21 18 32 37 43
28 23 25 24 22 11 13 9 4 4 5 6 4 6 10 8 9 6 17 13 15 6 8 4 17 10 11 6 8 4 6 2 2 1 6 8 8 11 21 24 18 23 35 41 45
31 25 23 24 19 15 8 3 5 10 16 6 10 14 4 3 9 10 8 13 11 5 3 9 12 15 6 11 11 8 10 6 7 3 5 8 7 11 17 36 34 34 43 44 42
32 26 25 18 13 15 12 3 9 7 3 3 7 7 5 3 3 11 11 17 17 11 14 6 8 8 11 11 11 9 4 10 7 1 3 4 7 6 6 16 21 28 32 38 42
33 29 19 6 14 22 3 7 7 4 7 9 1 4 8 6 7 10 12 13 17 13 9 8 4 8 14 6 7 15 8 3 3 7 4 5 4 6 4 12 12 14 26 37 40
24 14 6 7 18 13 4 8 7 13 18 4 4 9 13 16 14 11 15 13 24 20 12 12 5 13 1 6 10 2 3 4 6 5 6 3 6 7 15 17 18 18 30 32 42
11 4 12 22 5 5 3 5 5 9 20 10 7 15 13 17 21 17 22 17 33 24 12 10 7 13 18 12 8 8 9 7 6 5 1 5 7 5 13 13 22 25 32 36 44
21 10 13 17 3 3 6 8 9 10 10 7 9 15 14 15 16 10 8 11 21 26 20 11 6 8 8 7 3 7 6 6 6 5 7 6 5 1 4 3 19 24 29 31 33
7 4 5 6 12 1 5 7 9 12 11 15 19 22 16 16 8 5 6 6 11 27 41 18 6 11 14 9 5 6 7 7 8 5 6 6 5 3 6 10 9 26 32 29 28
5 4 5 4 4 9 3 5 12 14 10 9 10 4 7 8 6 4 5 7 2 16 22 12 9 7 10 19 10 14 12 9 6 9 9 8 11 10 11 12 21 32 29 26 29
6 6 8 10 15 5 5 2 9 14 7 6 4 8 10 3 6 3 2 3 3 9 7 6 7 9 16 8 8 7 9 14 7 5 2 6 7 11 21 24 22 32 33 31 27
8 9 5 8 5 4 1 8 15 17 6 3 3 4 3 6 20 16 18 9 8 4 4 11 7 5 9 7 6 4 2 7 3 4 6 7 11 10 5 8 20 24 25 23 17

GFSSW_850_spd_003.txt.gz
Wind_Speed
17 16 17 17 17 17 18 18 18 19 19 18 18 17 18 18 19 20 27 24 17 15 18 14 15 9 9 9 13 1 4 2 6 5 5 18 6 15 4 19 11 7 21 30 33
17 18 18 18 17 17 18 18 19 19 19 20 19 17 19 19 21 25 22 20 19 16 16 18 14 11 6 4 6 5 5 8 7 8 10 20 20 20 9 17 5 15 26 33 32
19 19 18 18 19 18 19 19 19 20 20 20 21 20 19 18 21 10 6 11 21 22 19 15 11 6 3 6 8 7 8 9 10 15 34 22 17 9 25 7 17 37 40 38 36
21 21 21 20 19 20 20 19 19 21 21 21 20 21 20 15 6 1 4 2 16 25 22 19 9 6 3 4 9 5 19 11 12 18 22 21 21 10 13 7 29 42 40 41 39
20 21 22 22 22 21 21 20 20 21 21 22 22 21 20 9 21 14 17 9 14 27 26 19 10 7 4 5 10 7 4 21 24 25 26 24 14 10 10 20 31 36 38 38 36
20 20 22 22 23 23 22 22 21 22 22 22 23 23 16 7 8 11 10 8 16 28 27 19 7 8 3 4 1 6 10 17 22 19 18 16 11 12 16 28 32 37 37 37 36
23 21 21 22 22 24 24 23 24 24 23 24 23 22 17 25 16 16 8 10 13 23 24 18 16 5 2 7 6 25 7 8 3 6 7 25 4 7 29 31 30 33 33 37 35
23 23 22 22 23 24 24 24 24 25 25 22 20 16 12 17 15 16 11 10 11 18 17 12 8 7 5 5 5 7 4 10 4 6 13 6 4 12 29 33 29 29 29 35 36
23 23 23 24 23 24 23 23 23 25 24 11 7 7 12 8 10 14 14 12 11 14 15 10 5 6 4 5 5 6 14 4 5 11 4 2 5 18 30 29 27 27 29 32 34
25 25 24 24 24 25 22 23 23 17 10 8 7 6 10 3 6 10 15 12 8 11 11 11 7 3 3 5 7 13 6 8 13 15 7 6 6 19 30 28 29 30 30 32 34
25 25 25 23 24 24 23 20 7 4 13 12 20 24 35 21 18 12 13 17 17 11 7 6 4 7 11 8 7 11 4 15 12 7 5 7 10 21 29 26 25 28 29 30 35
26 26 26 23 23 22 18 4 4 8 17 30 36 37 37 31 16 18 11 16 9 7 5 2 8 10 7 6 8 5 5 7 3 7 6 4 6 18 24 29 34 33 32 35 36
24 26 28 22 23 16 8 9 6 17 6 22 29 32 42 28 20 27 16 17 5 6 6 7 5 8 7 5 7 5 6 5 7 9 6 9 3 9 13 17 23 28 34 31 39
23 24 25 26 13 9 10 5 10 15 3 8 6 7 18 19 9 24 26 17 4 11 6 6 9 8 5 5 7 4 9 8 9 16 7 7 5 9 14 15 13 24 28 35 40
24 23 23 23 22 15 10 9 8 2 5 5 5 4 8 23 7 20 24 23 13 6 7 8 7 7 5 7 7 9 7 8 9 15 6 4 4 6 12 11 20 26 33 35 41
26 23 28 22 22 11 4 12 2 5 8 7 4 3 4 6 8 8 21 24 19 6 3 11 6 6 8 6 8 3 4 7 5 4 5 12 7 5 12 27 27 23 31 37 43
30 23 25 28 21 14 12 11 3 4 4 5 4 5 3 1 9 4 7 10 11 8 6 3 8 4 4 5 4 5 7 3 3 1 5 8 4 9 19 25 25 27 35 40 41
32 26 25 24 19 18 9 3 5 7 8 6 6 8 3 2 5 4 6 12 8 5 6 6 9 9 4 9 8 7 10 6 7 5 6 5 7 10 15 30 35 29 39 38 42
33 28 26 18 13 17 11 3 8 6 4 3 5 4 4 4 5 5 7 14 15 11 9 7 8 5 6 7 11 5 5 9 6 1 3 4 6 7 7 11 21 29 29 36 42
35 31 17 9 8 21 3 7 6 5 5 4 1 2 2 3 7 6 4 6 12 12 7 9 2 7 8 6 6 13 7 2 2 6 5 4 4 6 8 8 11 13 26 37 40
26 15 6 5 12 12 4 8 7 12 12 4 2 5 5 6 6 2 8 10 11 14 14 8 6 8 6 8 10 2 2 4 5 4 7 4 6 8 8 9 17 20 38 33 39
13 4 10 14 1 2 4 7 4 6 12 4 4 6 5 6 7 5 10 11 19 17 13 10 7 11 12 5 4 7 11 10 8 5 1 4 7 5 9 9 16 20 27 37 41
18 10 5 12 2 3 5 4 2 2 7 4 5 4 6 10 6 6 10 24 26 20 18 9 5 5 7 4 1 5 6 5 4 4 8 7 6 1 4 6 20 21 28 36 41
7 4 5 7 3 1 5 6 4 6 6 10 7 7 9 4 8 8 15 15 22 15 37 20 5 15 14 9 5 6 6 7 8 5 6 6 5 4 7 8 10 23 32 40 43
4 4 3 4 2 6 3 4 5 3 5 11 4 11 8 8 5 5 11 10 12 11 8 15 11 8 20 15 6 6 6 7 7 9 9 8 10 10 12 13 19 34 32 35 37
5 5 9 10 12 4 2 3 3 2 4 7 7 10 8 7 5 3 6 6 6 8 7 6 7 9 8 12 13 10 14 12 14 6 4 8 7 9 20 7 8 28 32 34 34
5 6 5 9 4 3 3 5 9 12 9 15 10 5 4 4 10 7 18 20 11 4 5 1 9 6 17 6 7 5 8 16 7 1 7 6 10 6 4 8 20 31 38 41 38

GFSSW_850_spd_006.txt.gz
Wind_Speed
17 17 17 17 17 17 18 18 19 18 18 18 18 19 19 19 18 20 27 24 14 15 16 12 8 8 9 7 10 6 2 3 7 9 6 14 4 11 6 15 5 8 17 25 33
18 19 18 18 18 18 18 18 20 20 19 18 18 19 21 23 25 26 23 21 18 16 22 21 14 12 7 6 5 4 2 7 7 7 10 18 14 16 6 16 4 9 17 33 34
18 18 18 19 19 20 19 19 19 22 21 20 18 20 21 23 25 5 2 8 18 22 19 17 11 15 9 6 7 7 7 6 7 17 27 20 15 13 14 6 11 23 33 38 35
20 20 18 19 19 20 21 20 20 21 23 21 20 20 21 19 7 2 3 7 4 19 23 19 18 11 6 6 9 3 13 11 10 16 23 18 19 8 23 8 16 21 38 39 37
19 21 22 21 20 21 21 21 21 21 23 24 22 21 20 11 26 20 14 12 13 18 30 26 19 11 6 5 4 6 2 14 17 24 25 25 16 6 18 6 14 31 37 37 35
23 21 21 24 23 21 21 21 21 21 22 24 25 23 16 7 15 10 10 8 11 20 30 24 15 14 8 5 4 4 4 15 16 16 15 13 8 18 13 17 27 36 37 35 35
23 25 23 22 24 24 22 21 22 21 23 24 25 23 18 31 20 24 19 7 8 20 28 27 9 8 5 1 4 9 7 10 5 8 5 21 2 6 22 26 31 32 35 34 32
21 23 26 26 25 24 23 22 22 22 22 23 22 18 13 18 16 16 11 8 5 12 18 16 14 6 5 1 5 3 5 6 4 8 14 8 6 3 29 30 27 26 28 33 33
23 22 23 24 27 27 23 23 23 22 20 16 12 9 12 9 7 4 9 9 8 8 11 13 10 6 4 6 4 4 7 3 3 7 7 3 3 10 26 27 25 28 28 30 32
26 26 24 23 24 27 24 22 19 15 13 9 11 6 13 10 5 13 5 8 7 12 14 10 6 3 3 4 6 7 7 3 7 9 9 5 3 12 23 23 26 28 28 32 35
26 27 26 23 24 24 23 16 7 4 6 9 11 14 20 15 21 12 5 5 12 7 6 8 4 7 10 9 7 7 8 17 1 3 3 5 5 15 23 21 22 25 28 32 37
25 27 28 21 23 22 12 6 3 5 15 26 32 36 38 34 17 29 14 7 6 6 2 3 9 9 8 6 8 9 7 10 2 4 4 2 3 10 20 24 28 27 28 30 35
24 26 29 24 21 11 14 7 2 12 5 21 17 16 17 22 24 34 14 8 5 7 4 6 4 10 8 5 7 6 9 6 14 6 3 6 2 8 12 17 21 25 28 30 36
25 24 27 27 13 13 8 5 11 14 3 8 5 3 4 9 7 35 20 14 5 12 7 6 6 11 9 11 8 7 8 7 9 10 6 5 5 8 12 17 15 28 29 37 38
27 23 25 25 24 14 9 15 13 1 5 4 3 3 5 11 4 13 23 16 9 6 6 7 5 8 5 8 9 8 8 11 8 8 5 1 2 6 14 11 22 28 32 37 42
30 24 29 24 23 12 5 6 2 4 7 6 3 0 4 3 4 4 16 14 15 6 3 10 5 8 11 5 9 10 7 6 4 4 1 8 9 5 7 24 25 25 33 38 39
30 26 25 26 22 19 14 8 2 5 4 4 1 3 3 5 5 2 8 7 6 6 6 3 7 3 4 5 1 6 7 2 2 2 6 3 4 12 10 16 24 23 38 39 44
32 29 25 23 18 20 8 3 6 5 8 5 4 4 2 4 6 6 5 5 2 6 4 7 6 8 4 7 8 6 9 6 6 5 5 4 8 10 21 18 20 20 34 32 38
32 30 21 15 12 11 11 4 8 7 5 2 5 2 3 4 4 3 4 9 10 10 10 7 7 4 4 5 9 4 4 6 7 2 2 5 8 9 6 7 12 25 28 37 42
33 31 10 8 7 15 3 6 7 6 3 3 3 3 1 3 6 5 3 4 6 11 6 8 1 8 6 2 3 9 9 4 3 5 5 4 4 6 5 11 9 8 26 36 42
26 13 7 7 10 10 4 7 7 17 7 4 4 1 1 1 5 3 6 5 5 4 9 7 5 6 6 12 14 3 3 5 6 5 7 4 6 8 10 11 11 14 32 37 42
14 4 8 12 1 1 3 6 5 5 6 4 1 5 7 6 5 7 9 9 7 6 5 10 10 10 12 4 6 11 11 9 7 6 2 4 7 5 12 6 12 19 28 30 37
18 9 4 10 3 3 5 5 3 3 4 2 4 6 4 6 4 8 9 11 25 8 7 7 5 10 7 6 2 5 5 6 5 4 8 6 6 2 5 8 15 21 23 28 32
7 4 4 6 2 2 5 5 4 6 6 6 6 4 3 5 7 6 4 4 5 5 22 17 6 12 18 17 6 5 7 7 7 5 6 7 7 7 9 9 9 18 21 27 34
4 3 2 4 2 3 2 4 4 4 3 4 4 8 10 8 7 9 11 15 5 4 8 4 13 11 22 11 8 8 8 10 8 7 8 10 11 11 12 13 18 26 24 25 30
4 4 7 8 11 4 2 3 3 4 3 6 6 9 9 10 11 9 9 7 5 4 5 4 7 7 20 16 12 10 8 10 9 3 7 3 9 10 8 9 11 24 28 30 34
5 6 6 6 4 2 3 1 7 11 11 17 9 6 11 8 12 17 17 13 7 7 3 3 2 3 12 7 7 7 20 10 7 6 10 8 13 7 6 9 16 23 29 34 38

GFSSW_850_spd_009.txt.gz
Wind_Speed
17 17 16 16 15 15 17 18 17 17 16 16 16 17 17 18 19 22 26 21 12 13 12 15 15 11 9 6 4 2 2 5 6 9 8 16 10 7 7 13 8 10 8 14 27
18 18 18 18 17 16 15 17 18 18 18 17 17 18 19 20 23 25 20 20 15 15 21 20 17 13 5 3 4 5 3 5 8 10 11 21 16 15 7 12 8 6 9 23 28
17 18 18 19 20 19 17 16 18 19 18 18 18 19 20 20 23 0 11 3 18 17 18 20 11 11 5 5 7 5 9 3 5 9 19 20 16 13 9 12 15 17 21 30 29
16 17 18 18 20 21 21 19 17 19 20 19 18 19 21 18 7 1 8 13 8 20 20 18 16 10 7 8 9 8 9 10 5 13 20 21 19 13 16 6 15 17 27 30 29
18 17 17 19 20 20 21 21 20 19 19 20 19 19 20 11 23 21 14 8 9 14 29 24 22 13 10 7 9 9 8 10 9 19 18 20 20 13 15 6 10 18 28 30 28
22 20 20 19 19 20 21 21 21 21 20 19 20 20 17 11 14 7 10 12 9 16 27 29 17 16 11 6 10 5 5 4 11 15 16 17 11 12 11 9 15 23 30 28 27
22 23 23 22 20 20 20 22 22 21 21 20 19 20 17 31 21 23 18 16 10 13 26 32 11 17 6 4 5 7 6 10 11 19 8 19 8 13 11 14 18 22 28 26 26
21 21 23 24 24 23 20 20 22 22 21 20 18 15 12 17 14 13 10 8 7 10 20 28 16 7 5 4 5 3 5 6 8 15 11 17 13 13 17 20 21 24 26 25 25
25 24 21 22 23 25 21 21 20 20 19 17 12 6 10 8 4 4 1 8 8 14 14 25 17 8 6 6 6 4 8 9 9 13 9 13 6 13 20 22 22 25 26 25 24
26 28 26 24 24 23 21 18 17 15 12 10 10 5 12 6 7 6 0 11 9 14 12 8 6 9 4 10 14 12 9 8 10 12 10 13 6 9 18 22 23 24 25 26 27
23 25 28 25 25 23 16 10 6 3 6 8 7 15 12 7 10 7 5 9 12 10 9 8 10 16 18 15 10 15 15 15 9 11 12 13 11 7 16 20 22 23 25 27 29
24 26 25 22 25 18 10 6 1 4 13 23 28 34 32 21 12 19 14 6 9 10 7 5 17 13 15 14 9 15 19 16 7 10 12 9 14 10 17 25 25 25 26 27 25
24 26 28 21 20 6 15 4 2 10 6 12 10 12 7 15 15 26 14 12 7 11 11 14 7 10 11 12 14 14 19 16 14 9 3 7 15 10 13 22 23 25 26 26 27
25 24 28 24 9 15 4 4 15 11 4 6 4 3 4 6 7 23 22 12 5 16 10 9 10 16 13 17 15 18 14 15 16 12 13 11 14 12 17 18 22 28 30 29 28
27 23 26 24 20 12 7 8 10 1 5 2 3 2 5 7 5 9 21 16 11 10 7 8 10 13 20 20 14 11 12 17 15 16 7 8 6 11 9 17 24 30 33 34 32
29 25 28 24 20 10 1 8 2 3 8 3 3 4 3 7 3 6 14 12 13 10 5 14 3 14 14 14 17 10 11 6 5 8 9 14 13 9 9 16 25 27 33 36 34
29 26 24 26 18 15 10 3 4 6 2 3 3 2 7 3 5 7 15 15 11 15 15 12 14 7 10 14 13 14 13 6 9 7 9 5 11 17 11 17 22 21 36 37 35
31 28 25 20 16 15 6 3 10 5 12 1 2 3 4 0 5 11 13 18 15 14 12 14 13 17 14 16 12 19 21 12 16 10 12 5 11 7 16 19 19 21 24 31 36
31 29 20 13 10 10 10 9 8 9 4 3 3 5 4 1 4 9 10 19 19 18 13 12 16 4 12 8 17 9 13 15 14 2 6 6 5 10 14 13 12 21 21 30 36
31 28 11 6 8 16 6 12 8 7 3 3 7 4 3 1 3 1 7 6 12 19 18 11 6 16 10 13 8 12 13 11 7 18 17 9 5 7 6 11 12 12 25 32 35
24 13 6 4 11 9 6 8 10 14 7 7 8 7 4 2 4 3 3 2 5 15 20 15 13 6 6 16 22 9 8 2 6 7 14 15 13 8 13 13 12 15 26 28 32
11 4 6 12 4 3 4 5 4 6 17 15 5 7 9 7 8 6 8 8 4 10 11 13 10 13 21 5 9 19 19 18 12 12 5 9 13 4 14 14 13 16 16 21 29
14 8 8 11 4 5 4 5 5 7 7 8 14 13 9 8 7 11 10 10 15 3 7 9 6 9 11 16 15 10 19 20 15 11 17 15 13 3 6 11 20 17 14 14 22
6 4 3 6 4 2 4 6 6 5 10 8 7 8 7 7 9 6 5 5 3 13 13 9 8 11 15 19 16 16 17 17 20 16 15 16 18 11 11 13 17 18 22 15 19
3 2 4 4 1 8 4 4 10 5 4 4 7 14 11 10 15 17 16 18 18 13 5 8 7 15 24 26 27 25 24 20 20 25 21 19 19 18 15 16 21 25 15 14 19
4 3 6 9 14 8 5 3 6 5 3 10 7 12 12 9 15 15 14 16 12 3 6 4 2 2 16 26 23 28 27 23 23 24 19 21 13 13 16 16 13 20 18 20 24
4 6 5 8 4 4 4 4 4 8 8 14 12 10 11 11 7 16 17 17 7 3 4 6 1 4 9 12 17 22 25 24 21 22 21 20 16 10 11 12 20 23 22 26 29

GFSSW_850_spd_012.txt.gz
Wind_Speed
14 14 14 14 14 15 17 17 16 14 15 15 15 17 16 17 17 21 20 12 10 10 12 12 12 10 11 9 7 4 6 4 7 3 11 16 11 9 7 12 8 11 9 22 25
15 15 14 14 14 15 16 18 18 17 15 16 15 16 18 19 20 21 16 18 15 15 17 18 17 15 11 10 7 10 7 5 3 1 11 18 13 15 11 12 11 12 10 25 27
16 17 17 15 15 15 15 16 18 18 17 16 17 16 17 18 19 5 8 9 14 17 15 16 14 16 15 11 12 9 11 6 3 2 9 20 13 13 11 12 14 18 17 27 27
16 17 17 18 18 16 16 16 17 18 19 18 17 17 17 15 6 4 5 15 8 15 16 20 18 18 14 14 13 10 10 10 8 5 12 18 17 13 12 4 14 16 20 29 28
19 19 18 19 19 20 19 18 17 17 18 19 17 17 18 10 18 16 18 9 5 13 21 24 24 22 16 11 11 12 11 9 10 8 13 16 16 10 13 8 13 17 22 28 27
20 20 20 20 19 20 21 21 19 18 17 18 18 17 15 17 10 10 5 7 5 17 21 25 19 24 12 12 11 1 7 9 6 11 13 14 14 13 14 12 14 20 23 27 27
20 21 23 22 22 20 21 22 23 20 19 17 17 17 15 22 12 17 18 9 11 17 20 26 20 21 16 10 14 8 7 5 10 15 10 13 12 14 14 16 14 20 22 26 27
20 20 21 23 24 24 21 22 23 21 19 17 14 12 11 12 14 14 11 12 9 15 20 18 26 18 18 7 9 14 12 10 11 15 9 17 13 15 16 19 16 19 22 26 27
24 22 20 19 20 23 22 22 22 20 17 14 8 6 9 9 6 6 12 11 10 12 12 16 21 20 20 15 15 14 14 13 11 15 7 15 4 16 17 19 17 19 23 26 25
23 25 23 21 21 19 18 19 18 16 11 8 9 6 11 6 9 4 7 13 12 16 13 19 17 15 15 17 18 18 18 14 13 15 12 16 6 5 16 19 19 21 22 25 26
25 25 24 23 21 19 12 11 7 5 6 12 6 13 4 5 7 6 9 16 13 20 14 23 18 21 23 22 20 17 16 14 15 14 16 15 13 11 12 17 19 21 23 25 26
25 27 24 21 21 11 11 5 2 5 14 19 28 30 25 13 11 18 15 17 17 18 18 16 22 22 22 21 23 20 18 17 13 9 15 13 15 13 14 19 22 24 25 26 25
25 27 27 23 16 6 8 3 4 10 9 12 15 14 13 22 24 24 27 23 19 21 21 19 18 21 20 21 24 23 21 18 15 11 15 11 15 17 15 19 21 24 26 28 28
26 26 27 24 6 15 2 4 11 9 6 6 8 7 9 9 10 22 33 29 18 23 21 21 20 23 19 23 23 24 23 19 17 14 13 16 13 14 17 17 20 26 29 30 31
27 24 27 24 20 9 6 7 9 1 6 8 9 8 9 11 3 9 28 30 22 19 21 20 22 22 23 24 25 24 21 19 19 17 19 15 11 13 4 14 20 27 32 33 32
28 23 26 23 20 10 5 5 0 7 9 6 9 12 11 13 7 5 21 28 22 20 17 23 18 20 23 22 23 21 19 16 17 16 18 22 15 15 12 15 17 20 30 33 32
27 26 21 23 10 13 9 4 6 11 4 9 10 13 10 8 12 13 20 24 19 20 20 20 22 15 19 23 24 22 18 12 15 15 15 18 20 16 12 10 15 12 24 32 33
28 27 23 20 16 15 10 8 14 5 19 3 5 12 13 9 9 16 18 22 25 22 14 18 20 26 16 27 25 27 26 15 24 16 14 21 16 18 19 21 27 14 15 26 34
29 23 19 14 13 12 14 15 11 16 11 16 13 14 17 13 7 13 20 22 25 24 23 19 24 23 22 19 26 26 26 25 24 20 17 17 14 23 16 16 17 16 17 23 32
30 21 14 9 9 12 11 25 21 16 10 12 19 14 18 18 13 12 17 18 22 26 22 13 13 24 23 21 26 27 22 24 20 25 22 20 20 12 19 17 17 13 19 23 28
16 11 6 10 8 13 14 22 23 28 20 15 20 17 13 12 15 12 8 9 16 21 22 21 12 14 22 26 25 20 19 21 23 22 19 18 19 16 15 14 13 12 18 20 24
9 6 5 3 10 13 15 17 10 18 30 22 16 19 18 14 15 13 12 9 6 15 25 22 14 16 19 22 26 24 25 24 17 26 19 22 18 18 18 18 24 23 14 13 18
10 13 8 7 7 13 15 14 15 23 22 24 27 20 18 18 20 17 16 13 12 9 15 20 19 14 19 18 18 22 28 28 26 22 26 20 19 18 12 12 14 15 16 12 13
8 4 7 10 16 12 16 13 20 21 20 24 21 22 23 23 19 11 12 12 13 16 12 7 18 24 17 22 21 25 24 26 27 22 22 27 21 21 22 18 17 17 18 17 14
9 5 2 6 6 6 12 14 16 15 16 18 22 21 21 21 21 21 17 12 9 9 6 16 15 15 21 21 19 23 28 29 30 29 28 22 29 23 23 18 21 25 25 16 17
7 6 5 15 17 14 12 14 14 15 12 15 17 18 22 20 19 18 19 17 17 14 18 15 14 16 22 21 22 27 27 29 30 30 29 30 33 24 28 33 30 30 26 22 22
9 10 10 11 8 8 11 11 8 10 12 18 15 12 11 9 9 11 14 16 14 15 15 16 13 12 18 22 17 21 27 29 28 31 28 28 26 26 30 23 29 33 29 24 25

GFSSW_850_spd_015.txt.gz
Wind_Speed
16 16 16 16 16 16 16 16 15 15 16 16 17 16 16 17 17 19 14 14 11 11 14 9 13 14 12 16 17 14 5 3 2 15 10 13 12 9 11 15 13 4 20 25 25
16 16 16 17 17 18 17 18 17 16 16 16 16 18 17 18 19 20 20 22 21 17 16 17 16 15 17 15 15 4 8 7 8 11 15 11 13 12 13 16 14 10 25 26 26
16 16 16 16 17 17 18 18 19 18 17 16 16 16 17 17 21 12 8 2 14 21 16 18 15 17 19 19 16 14 16 25 5 4 9 15 11 13 12 12 18 17 23 27 27
15 16 18 18 18 19 19 19 19 19 19 18 16 16 16 13 7 2 7 6 4 16 18 20 21 21 19 17 16 15 12 3 5 8 8 15 14 13 9 14 16 18 22 27 26
17 17 18 18 19 19 20 20 19 20 20 19 17 15 15 11 20 15 16 18 9 15 22 23 26 24 21 18 17 11 12 7 5 10 10 16 14 12 10 8 15 19 22 27 26
21 20 20 19 19 19 20 21 21 20 19 20 18 16 15 20 11 8 9 8 10 16 23 24 23 23 21 22 16 10 9 10 6 11 11 11 17 10 14 11 17 20 23 26 26
21 22 22 21 21 21 20 22 22 20 19 18 17 16 14 23 8 8 12 11 12 15 21 25 25 21 24 20 20 16 9 9 9 12 12 13 14 14 21 15 18 20 22 25 25
22 22 22 22 23 23 22 20 21 20 18 16 14 11 13 8 12 17 16 16 15 17 20 19 24 26 23 22 25 18 16 14 14 13 12 20 16 16 19 20 19 19 21 24 25
23 24 25 22 21 22 21 22 19 18 17 13 6 7 18 10 13 14 19 18 17 15 17 19 18 28 20 18 16 17 17 20 16 16 14 16 11 18 18 20 19 20 22 24 25
27 24 26 24 24 22 19 18 17 17 13 8 9 8 20 14 10 10 14 17 18 16 16 20 19 19 19 18 18 20 22 20 18 17 12 14 3 18 18 19 20 20 21 24 26
28 26 25 24 22 21 15 9 8 4 13 17 10 13 7 10 10 11 12 17 19 20 18 24 18 24 27 25 24 23 20 15 14 25 19 18 14 13 16 18 19 23 22 25 26
28 29 25 24 21 10 11 8 5 8 16 24 32 33 27 17 16 18 15 20 21 20 21 17 24 25 25 26 24 27 23 18 14 21 21 18 19 18 18 16 19 22 25 26 27
27 29 27 23 13 6 11 5 3 14 10 22 31 33 32 27 31 23 25 25 21 23 24 24 22 25 25 26 27 26 25 19 17 25 19 15 18 18 16 22 20 22 24 27 30
28 27 27 24 5 12 4 3 9 10 7 13 11 13 21 21 20 34 31 29 21 23 25 24 21 25 27 28 27 25 25 24 20 13 12 19 16 21 19 20 20 24 25 28 30
27 25 27 19 18 7 6 10 10 4 7 10 12 11 19 22 12 22 31 35 26 22 19 25 24 25 29 30 29 25 24 24 23 18 24 24 17 13 22 20 22 20 27 28 29
25 25 25 14 14 14 13 6 5 8 14 8 12 14 18 23 15 12 24 32 32 23 24 25 25 27 23 26 24 24 24 25 24 19 17 23 18 20 16 15 14 21 27 29 29
27 23 21 22 10 5 7 7 7 11 3 12 15 19 21 21 20 15 20 26 25 25 24 23 28 23 26 24 24 28 25 16 20 18 19 22 21 22 19 16 20 16 23 29 30
31 27 18 17 11 11 9 9 17 12 29 2 16 20 24 20 19 20 18 22 29 24 17 21 21 29 20 28 28 31 29 20 26 18 19 23 22 22 17 12 8 12 13 19 28
29 20 17 14 14 13 17 16 15 22 17 19 13 20 23 22 19 20 24 23 27 28 25 20 25 19 29 26 26 30 29 28 27 24 19 20 25 23 12 19 17 21 21 15 25
26 22 19 10 11 12 13 29 22 33 15 16 25 19 22 24 20 20 22 23 25 29 26 21 17 23 25 25 26 33 24 27 22 28 26 24 23 18 21 19 19 14 20 17 23
17 11 2 4 8 16 16 24 27 44 39 25 24 26 27 24 26 22 24 21 24 26 26 25 18 15 22 29 30 21 27 24 26 24 21 20 19 20 17 17 20 22 27 19 22
15 8 3 4 12 13 18 27 31 30 34 29 24 27 27 25 26 22 23 25 23 22 29 26 16 15 20 25 26 27 28 32 18 27 21 22 19 15 16 16 13 13 14 21 22
13 21 21 14 12 15 22 29 30 29 29 30 28 30 28 27 23 23 20 17 7 16 21 22 20 17 20 19 23 30 31 32 31 22 26 22 20 22 13 17 27 22 24 27 7
14 7 16 21 21 18 21 22 23 23 22 22 26 25 28 29 26 22 24 20 18 15 3 10 21 24 18 22 18 28 29 30 29 22 22 26 26 24 21 13 11 17 17 14 11
13 12 15 11 13 12 17 22 13 20 28 25 25 30 27 29 26 25 26 21 24 21 19 17 19 23 26 25 21 23 28 28 31 29 28 24 29 25 23 23 21 26 21 21 20
9 10 13 20 23 20 19 20 18 19 16 23 24 21 25 26 24 26 28 23 19 21 21 21 18 19 21 24 25 24 23 30 29 30 30 29 31 25 29 34 22 23 25 24 24
16 16 14 12 17 14 12 21 26 13 10 22 9 15 20 16 23 22 25 27 26 18 19 22 17 19 21 22 19 23 27 25 24 29 28 28 31 27 28 25 25 33 31 30 30

GFSSW_850_spd_018.txt.gz
Wind_Speed
17 18 18 17 17 17 18 18 18 17 16 17 18 17 18 21 19 22 22 13 16 16 17 9 13 18 19 16 19 27 6 5 15 12 14 9 14 14 25 20 17 7 28 29 25
18 18 17 18 18 19 18 19 19 19 18 17 18 17 18 21 24 27 22 17 19 19 17 16 18 17 20 20 17 5 2 5 22 8 8 13 15 14 12 16 12 27 29 29 27
18 19 19 19 19 19 20 19 19 19 19 18 18 18 16 19 24 16 13 18 21 23 22 18 19 19 21 20 18 10 5 13 22 21 18 14 18 13 22 12 18 34 31 30 28
19 20 20 20 20 20 20 20 19 19 19 19 18 18 16 14 6 3 5 7 1 19 20 21 23 23 18 17 21 14 24 25 21 16 17 23 21 13 17 17 24 27 28 30 28
21 21 20 20 20 21 22 22 20 20 19 19 18 17 16 11 27 17 13 11 12 11 22 23 25 24 20 18 22 15 14 26 8 7 8 21 17 18 12 24 23 25 28 29 27
22 21 21 21 22 22 21 22 22 20 19 19 17 16 15 19 9 13 14 14 14 14 22 24 23 23 24 21 20 19 16 15 14 11 10 16 17 16 16 19 24 26 28 29 28
24 24 23 22 24 24 23 22 22 21 19 18 16 16 15 30 10 12 9 15 14 16 21 24 23 22 24 21 24 25 18 8 13 14 10 14 16 12 22 17 23 24 27 28 28
23 24 24 23 23 24 25 23 22 20 19 17 13 12 14 17 13 19 15 16 15 16 17 19 21 24 24 21 24 22 18 16 18 13 14 17 12 13 25 19 22 23 26 28 28
25 24 24 24 24 24 23 21 22 19 19 16 8 7 17 9 20 20 21 22 19 18 18 18 21 24 23 18 18 22 17 20 10 15 16 13 6 12 20 20 24 24 25 28 28
28 27 26 24 24 24 21 18 18 20 13 10 12 9 24 19 14 17 19 23 20 19 19 21 21 16 18 17 16 20 20 18 18 17 18 21 12 23 38 25 24 25 26 27 28
31 30 28 25 22 21 18 12 10 4 10 17 12 15 16 16 16 14 16 22 22 22 18 24 16 20 25 25 23 22 21 22 14 3 18 22 17 11 34 26 23 26 25 28 29
32 31 30 25 21 11 11 9 10 11 17 25 35 33 33 13 14 17 17 21 23 19 20 19 24 24 23 25 26 27 27 24 21 24 23 18 27 32 30 23 26 27 26 27 28
30 31 30 26 14 6 14 14 12 15 12 24 38 40 42 30 27 22 24 23 19 22 24 24 22 24 24 25 27 27 26 23 22 19 21 18 19 21 24 24 24 27 29 29 30
29 29 30 28 5 8 9 6 11 13 7 11 21 28 35 38 35 35 29 27 20 24 24 25 25 25 26 28 27 26 26 27 24 16 11 14 12 11 18 22 21 26 26 31 32
26 25 27 18 20 15 9 13 15 7 7 3 18 7 20 36 8 38 39 32 26 24 18 23 26 27 27 29 29 26 26 27 25 16 16 22 11 12 22 22 25 21 30 30 32
26 23 23 16 15 11 12 14 9 6 11 8 12 13 18 28 32 11 39 39 30 25 25 24 25 27 27 25 28 25 26 26 23 19 16 20 17 19 18 16 22 22 31 31 32
26 23 20 20 17 6 5 7 6 11 8 15 16 16 22 21 27 15 22 27 25 25 25 25 27 25 24 25 26 28 23 16 18 17 17 19 20 12 23 21 22 3 27 34 31
27 26 18 16 16 6 9 8 16 12 28 13 14 20 22 22 25 26 23 23 28 27 19 22 23 28 22 28 25 27 26 17 21 18 19 23 21 16 23 22 22 44 45 37 38
30 25 25 14 16 12 15 15 11 18 18 18 23 20 23 26 24 28 30 25 27 30 27 22 26 19 31 23 26 26 24 27 26 23 18 19 23 24 15 22 17 14 24 21 38
30 27 20 9 12 15 14 28 18 26 28 26 26 23 27 25 28 28 27 28 27 30 30 25 19 24 23 26 27 29 17 22 19 26 25 21 22 14 18 22 19 11 20 21 16
20 16 20 6 11 17 16 23 25 39 38 31 30 30 30 26 28 29 29 26 29 26 28 28 22 19 24 26 26 18 23 23 21 21 18 18 17 15 19 17 19 21 27 21 17
18 9 6 7 13 14 17 27 32 30 40 33 30 32 32 30 29 29 31 25 24 27 28 26 18 19 25 26 27 29 27 27 17 21 20 19 16 14 11 18 16 15 23 20 29
16 25 25 25 16 16 23 29 31 29 28 31 32 32 30 30 28 29 30 27 29 27 26 22 22 16 24 23 23 30 28 24 25 21 21 19 17 21 9 7 19 18 25 26 22
11 6 19 22 31 20 21 24 25 32 25 30 24 23 32 31 29 28 29 31 29 26 6 20 21 26 18 22 19 24 30 28 26 18 21 21 21 26 12 20 22 21 26 15 13
9 8 20 13 18 20 13 22 20 23 27 25 18 20 16 13 27 28 30 31 28 19 12 13 16 22 29 28 25 25 26 27 26 25 22 22 23 21 23 12 15 16 22 18 15
6 13 14 24 26 23 19 18 24 22 17 21 20 21 21 19 14 16 26 24 22 23 22 23 16 18 21 26 28 24 27 27 29 28 27 24 25 20 18 25 11 28 28 24 20
15 18 13 12 17 16 17 20 13 16 13 23 22 11 20 17 27 35 36 36 29 23 17 20 16 16 20 22 23 25 27 23 24 24 23 22 21 15 19 15 13 17 19 23 28

GFSSW_850_spd_024.txt.gz
Wind_Speed
18 18 18 18 18 18 18 18 18 17 18 19 19 18 18 21 21 23 28 23 18 20 11 15 20 22 25 16 8 4 2 3 4 2 10 28 17 25 18 34 20 7 31 40 36
19 19 19 19 19 19 19 19 19 19 18 19 20 18 18 20 23 28 22 19 19 21 23 20 22 27 22 17 7 5 3 5 6 5 18 28 29 26 15 30 10 27 36 39 40
20 20 20 20 20 20 19 19 20 20 20 19 19 19 17 18 22 7 7 6 24 27 21 20 17 25 20 12 13 8 7 6 20 10 23 27 30 27 33 16 33 39 40 44 41
24 23 22 22 22 22 21 20 20 20 20 20 20 18 17 14 6 1 5 4 19 25 20 18 22 20 7 15 20 8 24 16 28 29 18 15 34 21 37 20 43 46 50 47 43
26 26 25 24 23 23 23 23 22 21 21 19 20 18 16 12 28 11 6 8 14 20 21 22 24 21 7 9 16 18 14 25 33 24 15 25 20 29 22 36 40 44 46 46 45
24 25 26 26 25 25 24 23 22 22 22 21 19 17 14 12 17 6 21 21 17 16 16 21 19 29 8 12 9 12 15 17 21 31 21 12 9 12 26 39 39 46 44 45 45
26 24 25 26 26 26 26 24 23 22 21 21 20 17 20 35 8 6 5 13 19 22 20 18 27 16 5 8 14 16 8 13 11 19 9 20 5 14 38 42 41 43 44 43 43
31 30 27 26 26 26 26 25 24 22 20 19 18 17 19 25 20 20 23 20 17 23 16 13 18 27 22 17 11 5 2 4 1 9 11 14 10 20 43 40 38 40 43 42 44
30 31 31 28 26 25 25 23 22 19 16 14 12 10 16 13 20 19 24 22 19 19 20 13 18 23 12 4 5 3 6 6 11 15 10 4 4 15 38 39 35 38 38 42 41
30 30 30 28 25 24 23 20 12 9 4 4 8 6 18 14 6 8 30 23 20 20 25 18 12 6 1 4 7 6 4 5 6 3 11 6 11 17 39 37 37 38 36 38 41
30 31 32 28 24 22 19 14 9 3 13 15 14 17 25 11 11 13 28 27 24 17 8 11 6 13 10 8 6 5 6 8 7 4 7 13 14 21 38 35 34 36 37 38 43
30 31 32 30 27 16 8 7 14 16 18 25 31 40 43 36 13 11 25 23 15 12 6 4 12 7 8 7 10 10 12 18 8 6 4 9 16 19 26 33 41 37 38 40 41
31 31 32 31 23 5 8 5 14 19 7 17 33 32 34 29 23 32 14 31 8 10 9 12 8 13 9 11 10 14 16 15 10 7 3 6 2 3 9 10 28 37 44 44 47
32 32 33 35 7 22 8 8 12 12 4 8 7 11 21 16 12 43 26 29 6 17 9 9 13 12 19 14 12 11 15 16 10 2 5 7 4 7 12 8 17 33 36 41 45
30 31 31 26 31 25 16 11 7 2 5 3 5 3 15 22 10 25 39 29 13 8 8 10 18 20 16 16 16 13 9 10 11 7 4 10 2 7 8 15 12 21 39 41 46
30 27 28 27 29 13 15 6 2 4 8 7 6 6 8 7 3 7 25 29 18 10 9 15 14 15 15 13 17 14 6 7 5 8 9 14 12 6 8 14 17 22 36 44 44
35 30 22 28 28 20 19 9 3 5 5 3 5 7 6 8 7 3 20 16 15 8 19 8 17 5 12 8 9 10 7 6 6 8 11 9 8 11 15 17 24 26 35 43 48
37 35 27 25 27 19 7 2 6 5 9 7 11 11 4 4 6 7 6 19 17 4 5 13 12 13 10 14 19 9 13 9 9 4 5 6 8 13 15 23 40 45 41 41 44
37 34 30 12 11 8 4 4 6 6 6 13 10 5 6 6 12 6 15 16 19 16 12 7 14 4 19 10 15 10 8 13 7 3 1 5 6 8 11 13 22 34 29 39 47
34 28 23 13 19 8 3 4 5 3 13 9 3 3 9 12 10 15 5 7 16 19 18 12 4 11 21 10 21 12 8 3 1 14 16 5 5 10 7 12 11 22 34 43 51
27 13 20 13 23 13 5 7 4 23 15 7 13 13 14 9 5 8 11 15 3 6 23 20 11 11 5 14 18 10 11 4 5 8 11 4 16 8 11 9 9 18 41 47 51
12 4 22 21 7 2 6 5 12 14 29 13 11 17 13 11 15 10 12 12 23 17 11 13 14 15 26 11 14 20 13 11 8 8 8 17 24 5 9 9 10 20 35 45 51
17 13 19 17 4 5 8 8 9 8 5 7 6 6 7 4 6 5 9 9 28 15 6 9 5 10 8 9 8 8 14 19 6 4 16 9 6 6 7 6 12 10 19 14 28
7 4 8 12 10 11 10 7 11 15 13 4 5 4 5 2 2 6 11 10 26 18 25 13 6 14 19 16 6 6 16 16 19 14 13 21 8 5 4 4 7 22 31 35 35
3 4 7 4 6 10 9 8 12 9 10 6 5 4 3 4 5 4 4 11 13 7 14 8 6 4 15 16 21 14 11 21 23 23 22 21 10 10 10 9 12 26 24 30 27
4 5 7 12 11 6 5 4 8 11 5 6 3 11 3 3 5 13 11 3 4 7 10 6 5 8 7 13 24 24 21 22 22 23 20 7 7 10 15 21 14 23 23 22 35
10 12 9 6 4 4 4 8 15 8 11 11 11 8 9 10 13 20 21 21 12 5 5 4 4 8 6 6 20 20 30 15 13 11 15 14 9 10 8 10 11 17 18 27 30

GFSSW_850_spd_027.txt.gz
Wind_Speed
17 17 17 16 16 16 17 16 16 16 18 18 17 16 17 19 19 22 28 22 16 14 11 21 22 23 30 18 9 4 0 3 7 7 5 15 5 16 5 21 11 10 18 34 36
19 19 19 19 18 18 17 18 18 17 17 18 17 16 18 20 22 26 18 20 20 22 24 26 30 28 14 8 8 5 3 6 6 1 12 25 21 22 8 20 2 10 22 38 36
19 19 20 20 20 20 19 19 19 19 19 18 17 15 17 18 21 4 4 8 24 26 23 21 23 24 12 7 10 6 6 1 8 13 14 29 20 17 17 9 14 33 43 41 38
23 22 22 22 21 21 21 20 19 19 19 20 18 15 15 13 5 0 5 4 24 29 23 28 23 16 8 8 12 4 13 13 20 6 13 16 21 10 29 15 27 38 44 46 40
24 24 23 23 24 23 23 22 21 20 19 19 20 15 14 10 25 7 1 4 23 33 32 29 27 24 7 6 12 8 10 14 26 24 15 26 21 15 32 7 31 38 42 44 43
23 24 23 23 24 25 25 23 21 21 21 20 19 16 14 10 15 6 22 11 17 28 30 29 15 27 8 10 8 8 27 28 24 27 22 21 18 14 27 21 35 40 42 41 44
26 26 26 23 23 23 23 24 22 22 22 20 18 17 20 34 7 7 21 26 19 20 27 28 28 20 8 6 13 11 6 8 13 22 12 33 17 22 25 35 37 39 40 40 42
30 29 28 27 26 25 21 20 22 22 20 18 17 16 15 13 17 33 25 19 17 21 26 19 17 27 10 5 9 3 3 3 4 3 8 29 17 19 32 39 35 37 37 39 42
30 31 30 29 29 29 22 18 19 17 13 9 10 11 12 10 19 23 29 28 23 19 24 23 16 14 13 4 4 4 5 5 5 4 6 6 4 11 37 38 35 35 36 38 39
32 32 32 33 31 32 22 16 7 5 1 2 6 5 14 7 3 4 15 26 25 23 20 17 14 5 3 4 9 5 4 5 4 2 2 3 4 18 32 34 36 36 35 35 37
34 34 34 34 38 27 15 4 5 2 6 11 6 10 13 8 9 6 11 28 25 13 8 13 8 10 10 7 6 3 4 6 5 5 5 11 7 20 28 26 27 31 34 36 41
34 35 36 35 33 13 20 7 11 11 17 21 28 38 39 31 10 12 15 20 12 9 6 3 16 9 9 8 9 7 8 12 0 7 5 6 13 19 22 32 39 37 37 41 43
33 33 34 34 23 20 20 6 14 21 7 14 26 25 25 29 20 29 20 28 6 9 9 12 6 9 9 7 8 6 9 10 8 2 0 5 3 10 21 18 26 31 40 39 42
32 31 33 33 9 27 6 16 16 12 4 8 6 8 13 14 10 42 27 28 5 18 8 7 9 12 8 8 9 8 6 8 3 4 3 5 4 6 16 21 20 29 33 37 40
35 30 28 27 31 26 16 18 11 0 6 3 4 5 14 17 4 19 39 22 14 9 9 9 14 16 12 19 8 11 5 6 4 5 1 5 1 6 17 18 20 24 35 39 42
36 33 29 29 34 14 21 17 3 3 9 5 3 3 4 5 5 9 24 16 14 6 5 16 8 15 10 8 14 5 1 4 3 3 5 16 9 9 12 22 23 24 38 44 44
36 33 31 31 31 27 19 11 3 5 5 5 4 5 2 4 4 4 16 15 10 11 16 7 20 5 7 10 6 5 7 4 3 4 10 9 6 15 8 22 28 27 40 49 49
38 35 29 14 17 8 4 3 6 4 5 5 6 9 2 9 2 6 12 18 15 5 8 9 6 17 6 10 11 9 11 6 7 4 9 5 9 8 17 17 31 41 48 44 43
36 34 29 10 23 12 5 4 7 3 4 9 7 5 5 6 8 9 7 13 14 11 9 10 11 4 15 8 15 7 10 13 2 1 2 5 8 6 8 11 11 21 26 35 43
33 31 14 13 27 8 3 4 4 2 6 5 4 5 5 8 7 7 5 4 8 3 3 7 2 8 9 8 8 15 8 4 2 11 12 5 7 5 8 15 10 11 19 32 40
26 15 8 26 16 6 3 6 6 14 11 7 4 4 2 5 6 4 4 5 12 10 8 3 4 6 7 9 18 6 7 3 7 6 9 4 10 9 10 10 11 12 25 34 41
14 4 19 25 8 4 4 12 10 16 18 4 3 4 4 5 3 3 5 7 18 8 6 6 3 15 19 7 17 14 16 9 5 12 9 12 11 1 13 15 10 13 23 36 48
21 9 12 13 4 6 10 8 9 11 7 6 4 4 4 3 3 4 5 8 21 11 5 7 4 2 6 5 3 9 13 16 12 3 20 10 7 6 9 8 13 17 14 17 33
9 5 7 5 8 5 6 5 10 15 9 10 3 4 4 4 5 4 6 3 16 9 13 3 3 3 7 5 2 7 11 16 16 13 16 19 7 4 8 10 9 14 12 15 20
3 3 3 4 5 5 7 5 7 8 9 12 3 8 3 1 2 1 4 9 8 7 5 4 2 3 6 12 15 14 12 26 20 23 17 16 12 12 10 11 12 22 20 18 20
3 4 3 7 8 5 5 2 2 8 3 6 10 13 3 3 1 6 1 1 5 6 7 4 3 6 5 9 13 17 17 23 28 25 14 15 8 9 17 22 8 24 30 27 25
6 11 7 5 3 3 2 2 8 15 3 5 13 13 5 1 12 17 18 16 10 3 2 3 1 5 5 9 12 9 29 20 15 15 18 17 10 9 9 10 14 29 34 33 32

GFSSW_850_spd_030.txt.gz
Wind_Speed
16 16 16 16 16 16 17 17 17 17 17 16 16 16 17 18 18 22 28 22 16 18 14 28 24 23 23 15 7 4 3 3 4 2 3 15 5 13 6 15 7 7 15 30 36
19 19 18 18 17 17 17 18 17 17 17 17 17 16 17 18 21 26 22 22 20 20 23 34 31 29 12 10 7 4 3 6 5 4 6 12 14 15 6 15 3 7 16 37 37
21 21 21 20 19 19 18 18 18 18 17 17 16 17 16 16 20 7 1 7 21 25 22 29 25 22 11 9 10 7 6 5 5 4 9 11 6 13 11 8 15 24 34 42 40
23 23 23 23 22 21 20 19 18 18 18 18 16 16 15 12 6 2 4 5 18 29 30 28 28 12 8 7 11 4 15 11 7 2 9 10 12 6 18 5 22 22 45 46 42
24 23 24 25 24 23 23 23 21 18 18 18 17 16 14 10 28 14 7 2 21 34 34 31 32 16 7 7 9 6 6 9 16 10 9 14 18 12 21 15 11 29 46 46 42
25 24 25 25 24 25 25 26 24 20 18 18 18 16 14 8 13 9 19 15 22 36 34 33 23 23 1 5 8 8 13 20 19 24 11 14 18 18 20 14 20 37 41 43 42
28 28 28 27 28 27 26 26 25 21 19 18 18 17 19 29 9 6 13 16 19 36 33 34 17 26 6 3 11 16 9 7 10 8 9 17 5 21 14 25 29 33 34 37 38
30 30 31 31 32 32 28 26 21 20 20 15 14 17 13 9 24 27 16 20 16 27 29 26 28 21 7 2 6 4 2 2 4 5 6 19 21 21 24 30 28 30 32 34 37
32 33 32 32 33 36 25 21 15 15 14 8 9 12 9 10 22 23 26 24 22 21 24 12 26 12 5 2 4 3 4 5 6 7 2 12 7 15 30 32 28 31 33 35 34
33 34 35 33 32 26 27 13 5 5 2 3 5 5 15 6 4 13 27 33 24 26 18 14 8 5 2 5 11 6 4 3 5 1 5 7 6 8 28 31 31 32 32 33 36
33 33 33 33 30 20 25 6 7 2 6 11 4 6 2 10 8 8 16 29 16 21 8 11 4 14 11 7 5 5 5 4 3 3 6 10 3 6 22 23 25 30 31 34 42
33 34 34 30 31 15 12 9 13 13 16 21 31 38 27 6 3 14 16 18 13 7 8 4 20 11 9 8 9 6 5 7 4 7 2 3 9 9 14 27 35 33 32 36 40
35 34 35 32 27 16 5 12 19 22 6 15 21 23 29 31 20 20 23 16 7 9 17 19 7 12 13 7 11 6 12 6 4 3 1 4 6 5 13 9 23 27 35 35 36
34 34 34 35 12 28 7 13 21 13 3 7 6 6 13 12 8 38 29 21 6 21 9 7 8 19 8 13 10 9 8 5 7 4 4 4 5 5 8 20 16 24 31 35 38
33 33 34 34 32 26 13 15 16 2 6 1 3 7 14 11 0 15 33 20 10 9 9 11 12 14 16 11 8 8 9 9 6 5 3 4 1 6 7 11 17 22 31 36 42
35 32 36 30 24 20 22 15 1 3 9 3 4 1 5 6 3 5 19 12 12 5 1 8 7 13 11 7 10 7 4 5 5 4 6 9 8 5 7 14 17 21 29 35 39
34 32 34 12 25 24 19 5 3 5 7 5 4 5 4 3 3 5 11 15 11 8 11 6 13 3 7 7 5 6 8 2 2 4 9 8 7 14 9 14 20 24 35 39 43
33 32 24 9 24 27 7 3 5 2 3 4 5 8 2 7 3 5 10 17 6 5 7 11 7 17 6 10 10 8 10 6 8 5 5 7 9 6 13 17 28 32 43 43 40
34 31 12 23 26 22 8 1 5 2 6 8 7 4 5 5 2 3 3 10 9 5 7 8 10 4 10 5 17 6 10 9 4 1 2 5 7 6 6 9 14 26 29 29 38
34 27 18 23 24 10 4 4 5 6 12 5 3 5 6 7 6 6 5 7 10 7 5 4 1 6 18 7 9 11 9 4 1 6 6 4 4 6 8 14 14 10 22 34 38
26 12 18 24 10 6 2 5 7 19 16 6 5 5 4 5 4 5 5 6 11 9 8 6 3 3 9 11 19 4 6 3 6 6 6 0 7 8 10 13 15 17 30 38 40
14 4 19 17 9 4 4 9 12 14 15 5 5 3 2 4 4 5 4 4 14 8 4 2 2 7 6 2 7 22 12 8 6 10 5 4 9 3 10 9 13 18 29 37 36
18 6 10 14 4 4 7 7 5 11 9 7 5 4 4 4 3 5 5 3 17 9 4 6 2 2 5 6 2 5 10 8 14 2 16 8 8 14 3 8 15 19 23 20 26
8 4 7 6 5 3 5 5 8 10 4 11 6 6 5 5 4 3 6 6 11 7 8 2 2 3 4 1 4 6 5 9 15 13 15 18 11 4 6 8 9 21 28 26 22
4 2 2 4 4 6 3 4 8 6 7 6 4 10 6 3 5 4 6 4 6 8 6 4 0 2 2 11 6 11 14 12 12 21 15 17 21 11 8 10 17 34 29 22 20
5 4 3 7 10 9 4 3 5 7 3 4 4 12 13 3 2 3 6 3 3 6 5 4 1 1 3 9 12 11 13 15 14 11 8 20 14 8 19 27 18 27 25 28 29
9 12 7 3 3 3 2 3 6 11 11 4 7 10 10 3 11 16 15 16 11 1 3 3 3 2 4 4 10 13 9 14 8 8 11 16 10 8 9 11 18 32 37 36 38

GFSSW_850_spd_033.txt.gz
Wind_Speed
18 18 18 18 18 18 17 17 16 16 16 17 16 18 16 18 18 21 25 17 12 20 9 18 23 20 17 9 3 1 3 2 1 3 1 11 4 6 7 15 9 7 12 19 31
20 20 20 20 20 19 19 19 18 17 17 16 17 16 18 18 21 25 19 20 20 18 26 27 26 24 11 9 5 4 3 2 3 2 5 13 10 11 5 14 8 7 15 32 32
21 22 22 22 21 21 21 22 22 20 18 17 17 17 16 16 19 12 5 3 21 22 21 26 26 22 11 8 8 6 5 3 2 5 3 14 11 10 8 10 14 17 28 34 33
22 23 23 23 23 22 22 23 23 22 20 18 17 16 15 11 6 6 4 4 13 25 25 27 27 17 10 8 14 5 12 10 2 1 3 11 13 9 15 4 14 19 32 37 36
23 23 24 24 23 24 24 25 26 24 21 19 18 16 14 10 27 9 6 7 20 29 32 30 32 18 14 11 9 15 9 6 13 13 10 8 17 11 20 13 10 21 32 33 33
24 25 25 25 25 25 25 29 28 25 21 20 19 17 14 9 11 11 19 14 15 33 31 28 23 16 12 8 16 5 14 15 12 16 12 14 11 12 13 18 15 24 33 33 33
28 28 28 28 27 26 29 26 27 23 19 18 19 19 18 27 13 9 12 17 12 35 36 31 14 21 9 5 12 11 13 13 16 11 8 13 9 18 12 23 23 27 31 31 31
30 31 32 31 29 28 22 28 24 16 15 15 18 18 13 10 26 16 12 17 18 31 26 26 17 22 5 2 2 3 3 5 1 7 6 15 15 15 21 25 26 28 31 31 31
29 30 30 32 31 28 22 24 15 11 7 7 11 13 9 11 23 27 18 21 22 31 18 17 15 10 6 9 7 5 9 8 6 10 5 12 13 5 25 28 27 30 32 31 30
31 31 30 30 32 26 21 17 12 11 3 2 4 6 13 6 9 20 30 24 23 25 13 9 10 12 11 12 12 10 9 9 12 1 7 10 17 2 24 29 28 31 31 32 33
33 34 34 30 30 20 16 7 7 3 7 10 4 6 3 5 7 16 35 27 16 19 13 18 12 22 22 18 14 7 15 11 4 3 6 12 13 9 18 23 25 27 30 32 34
33 33 36 35 27 15 10 7 11 11 15 19 26 35 23 2 5 16 40 21 17 17 16 8 24 21 13 15 17 16 17 16 8 10 4 6 10 9 15 24 31 34 34 35 32
33 32 34 35 22 20 10 3 14 22 7 13 16 15 20 26 9 21 35 27 23 22 27 26 6 20 19 15 18 20 22 19 14 3 4 7 13 6 11 19 22 28 30 30 33
34 33 32 33 13 23 5 7 17 16 5 6 5 6 12 14 11 21 32 24 12 26 23 22 20 22 23 26 22 23 17 16 15 8 11 5 12 6 11 16 18 24 30 32 34
33 34 31 25 19 22 23 17 15 2 6 4 4 6 8 18 1 17 34 19 21 20 16 18 23 18 25 25 20 16 11 16 17 14 11 13 8 12 4 12 19 24 32 34 36
34 34 30 16 17 26 25 14 2 4 9 1 4 3 6 13 2 4 20 20 11 11 20 19 9 24 16 20 23 13 7 9 6 9 15 20 14 17 15 15 14 21 29 32 35
34 31 19 15 23 24 24 4 4 7 7 5 4 5 5 2 7 7 18 26 17 16 17 20 14 12 20 17 19 20 16 7 9 11 15 12 14 21 9 18 20 18 31 35 36
34 25 11 20 21 23 19 3 9 3 5 9 8 13 3 4 2 2 16 24 21 19 15 19 16 20 19 21 14 26 22 9 14 14 12 8 13 13 15 23 25 24 24 27 31
34 18 18 26 24 19 6 5 4 9 9 13 13 4 1 3 5 4 7 20 21 15 13 19 19 9 17 12 22 15 23 22 8 1 5 13 14 10 8 18 18 23 20 24 30
32 16 22 28 18 9 2 3 4 13 15 9 5 7 5 8 3 3 2 7 6 1 5 6 7 13 25 20 23 14 18 11 13 15 13 8 9 13 18 19 17 18 22 26 28
24 8 19 19 11 7 3 5 7 12 17 8 8 8 7 6 6 4 7 9 9 7 5 2 5 4 16 21 22 11 19 12 13 9 9 7 10 8 15 17 20 22 30 28 28
16 3 18 17 9 4 5 12 11 10 12 6 7 4 5 5 4 4 3 7 16 10 1 3 4 11 17 14 22 23 19 22 11 14 12 7 7 1 10 10 13 20 25 21 24
12 5 11 16 5 7 10 7 7 13 11 7 6 9 6 5 3 5 5 7 14 12 6 4 3 12 12 10 10 21 23 22 21 12 17 11 6 11 4 3 7 13 17 21 21
8 4 6 7 3 6 10 6 9 12 5 7 8 7 7 2 2 2 5 5 12 10 10 4 1 10 14 11 3 6 11 24 24 17 18 20 17 9 6 6 7 11 17 16 17
7 2 2 4 5 10 11 6 12 9 9 9 2 9 9 4 3 4 6 6 4 13 7 4 2 5 5 7 6 9 10 10 18 24 22 21 27 21 17 18 13 13 13 19 21
5 4 3 9 10 8 5 3 9 10 8 8 5 10 9 4 6 6 9 4 3 6 7 7 1 4 8 9 9 11 13 14 15 17 16 22 26 11 8 19 25 29 28 29 24
6 8 6 5 5 4 3 6 11 15 8 6 9 15 10 11 13 16 15 16 14 9 4 5 3 2 5 7 13 15 21 17 14 13 15 21 18 14 16 16 18 25 30 30 30

GFSSW_850_spd_039.txt.gz
Wind_Speed
18 18 18 19 19 19 20 19 18 18 19 18 20 17 18 17 17 20 25 17 14 17 14 17 21 20 19 17 17 14 12 9 2 15 17 12 14 10 12 17 11 5 23 30 31
19 19 20 20 20 20 20 20 20 19 20 20 19 19 15 17 19 26 27 19 18 17 15 25 28 24 25 21 17 16 2 7 1 11 12 13 18 11 13 14 13 21 27 31 34
21 22 22 22 22 23 23 22 21 22 22 20 19 17 14 12 16 22 19 20 22 20 20 23 23 23 25 19 21 18 7 25 6 6 3 16 17 11 17 12 16 24 32 35 35
24 24 24 23 24 25 25 25 25 25 22 20 18 15 12 6 6 0 7 12 23 26 24 25 26 27 22 22 20 17 12 24 8 4 3 8 18 14 9 18 18 21 31 35 34
25 26 27 26 26 26 27 26 25 24 23 22 19 13 10 12 22 15 8 5 18 31 30 30 31 30 23 20 16 19 17 11 4 5 5 3 3 13 14 16 19 23 30 33 31
27 27 28 29 29 29 28 27 26 22 24 21 17 13 12 20 11 16 12 16 15 31 31 32 29 30 26 23 19 17 20 11 13 12 10 11 7 9 15 17 22 27 29 32 31
28 29 29 29 30 31 30 27 25 23 21 17 13 13 15 26 10 12 18 19 18 28 31 31 27 28 24 18 17 23 12 17 16 15 9 10 10 14 18 19 24 26 28 30 31
30 30 31 31 32 32 29 28 24 22 18 14 7 11 13 7 22 15 15 21 20 24 26 25 27 28 28 18 9 19 21 17 20 17 18 13 16 18 20 25 25 26 27 30 31
30 32 32 32 33 32 25 27 24 20 15 6 3 11 13 12 20 23 21 24 25 24 23 23 26 22 29 18 16 18 18 22 20 23 17 15 15 14 21 28 26 27 27 29 31
30 31 32 32 32 27 26 21 24 14 7 2 6 8 18 12 15 22 24 24 28 25 24 24 24 17 20 19 19 22 23 23 23 15 19 18 19 16 22 22 26 28 28 29 31
33 33 33 31 29 25 26 19 9 4 10 17 10 18 5 10 8 22 28 24 29 29 21 31 20 27 30 28 23 21 21 23 24 14 21 18 20 17 16 17 24 28 29 31 31
30 30 30 29 21 24 20 16 11 12 19 27 38 34 29 10 13 21 31 25 30 27 26 20 28 27 26 28 27 27 24 23 20 14 16 15 15 14 15 18 23 27 29 30 28
29 29 28 25 16 17 11 19 17 16 11 22 33 34 33 29 19 29 40 36 31 30 32 29 21 28 27 26 28 28 27 20 19 19 15 15 16 16 12 17 22 26 28 30 33
30 29 27 23 9 17 10 21 18 12 7 9 10 10 31 26 21 29 40 43 20 33 31 29 28 28 28 29 27 28 26 23 21 20 18 20 16 21 17 18 19 25 27 30 31
29 27 22 20 11 13 22 22 17 5 7 12 9 4 14 31 10 35 38 46 26 25 30 31 25 22 30 27 28 26 21 25 23 19 19 23 17 17 27 25 24 21 29 29 32
26 23 19 12 12 17 22 20 8 7 11 5 6 8 12 29 30 27 37 44 41 26 28 29 26 24 23 25 24 22 19 21 24 20 21 25 21 19 17 19 24 26 27 29 30
25 21 14 12 17 21 20 14 8 10 1 14 15 16 12 16 24 19 31 32 30 30 30 28 32 24 22 23 25 20 21 13 17 18 20 25 24 21 20 21 20 21 29 28 28
24 17 9 10 18 18 15 12 13 21 15 22 21 24 21 21 19 27 27 27 35 30 19 22 24 34 21 28 25 27 26 15 23 19 18 25 28 25 25 16 18 26 30 30 28
24 11 4 16 17 13 15 10 11 15 17 20 27 22 15 20 9 24 27 28 31 34 31 25 32 30 34 25 28 23 27 27 23 23 16 21 29 25 20 27 18 15 29 27 30
21 15 4 21 15 10 11 13 15 16 19 18 20 17 24 23 8 17 27 24 27 35 31 29 19 32 30 25 29 29 23 23 17 23 19 18 17 18 23 17 25 24 21 30 29
17 12 9 19 10 13 8 9 15 16 17 15 21 24 18 21 24 20 18 4 9 12 26 33 26 15 26 29 27 25 22 26 21 18 15 12 12 17 20 22 20 21 34 30 28
15 7 17 18 17 2 8 10 11 15 11 15 16 23 19 18 17 17 18 10 11 14 16 35 14 20 30 28 26 26 29 27 17 24 18 14 3 9 18 15 19 23 26 32 29
17 17 5 14 7 9 11 12 6 12 11 6 9 14 20 19 8 15 8 7 12 11 10 2 16 17 23 24 28 31 30 26 27 19 21 16 7 8 5 4 17 20 21 22 24
12 6 14 14 12 11 12 17 14 8 9 10 6 9 17 17 15 11 10 9 6 9 15 10 17 23 19 25 23 28 30 30 25 20 18 20 14 11 10 10 6 9 11 13 8
9 6 8 7 12 12 12 14 17 15 6 17 2 9 8 8 17 11 13 13 12 3 10 7 16 20 26 18 13 30 29 30 31 24 25 16 19 18 16 13 12 16 12 8 11
9 6 10 20 13 12 12 13 13 11 13 16 9 8 10 11 10 16 15 11 8 12 10 11 12 19 23 24 6 13 20 31 30 28 23 24 15 17 19 11 11 11 10 8 7
11 16 9 9 13 9 12 12 15 15 15 10 14 15 13 8 11 16 19 23 17 15 12 11 9 11 16 21 10 18 21 18 25 24 25 23 20 14 10 9 7 8 8 10 9

GFSSW_850_spd_042.txt.gz
Wind_Speed
20 20 20 21 21 21 21 21 19 20 19 18 19 16 17 19 19 21 31 22 16 16 14 12 18 20 20 23 21 17 11 13 6 10 8 20 19 20 22 25 15 12 37 36 38
21 21 22 23 23 23 23 23 23 21 19 21 18 16 14 18 21 29 31 23 22 18 20 20 24 23 25 25 21 17 3 8 15 7 9 12 18 19 14 18 30 35 34 35 39
23 23 24 24 25 25 26 26 25 24 21 20 17 14 11 11 16 24 16 20 24 24 23 20 21 24 26 23 22 24 7 12 25 22 18 6 18 20 17 16 29 34 37 36 38
25 25 25 26 26 27 27 27 27 24 24 19 17 16 10 7 6 1 4 10 23 22 22 24 26 29 22 21 23 18 22 22 23 24 7 15 17 7 15 25 31 29 37 40 35
27 27 27 27 28 29 29 29 25 24 23 20 18 14 11 12 23 11 15 5 20 26 27 29 31 30 24 22 23 18 19 27 17 29 34 41 10 3 8 27 31 32 36 36 34
27 28 29 29 30 31 31 30 26 24 21 18 16 11 15 19 16 18 10 13 18 29 30 30 29 29 26 25 21 21 18 17 28 9 35 25 22 25 15 27 31 35 35 35 35
29 29 30 30 31 30 30 28 27 24 20 17 14 11 16 31 7 12 19 16 18 27 32 30 29 28 30 21 28 25 16 16 17 15 8 11 25 16 22 24 31 33 34 32 30
30 31 31 32 32 30 27 28 26 24 21 15 11 10 14 7 18 17 18 21 20 20 27 25 28 26 29 25 23 22 16 17 20 16 14 11 14 26 34 33 30 31 33 33 31
31 31 31 31 31 30 29 24 26 22 19 6 2 10 12 8 23 28 21 24 23 22 22 26 27 30 27 22 18 23 17 23 20 19 17 16 15 14 32 30 33 30 30 33 32
31 31 30 29 28 26 28 28 22 16 10 3 7 9 19 15 15 26 29 24 28 25 24 29 27 20 21 20 20 19 21 19 24 22 22 19 17 15 24 30 34 36 33 31 34
31 30 29 27 22 24 25 26 30 3 9 22 14 18 15 8 6 20 29 28 28 30 24 31 18 25 30 26 24 23 21 24 21 21 19 21 18 16 21 18 30 31 34 34 33
35 34 32 27 19 20 18 23 18 18 28 27 37 43 42 29 22 20 29 33 31 27 26 22 28 28 27 25 27 28 25 24 23 21 19 22 20 19 21 24 27 36 36 34 32
33 32 31 26 15 18 14 21 21 21 16 28 41 40 43 33 32 24 36 39 29 30 29 29 20 26 28 27 28 29 27 24 21 12 11 19 17 21 18 31 19 36 36 35 36
32 31 27 27 9 16 19 23 22 18 8 10 13 10 34 30 31 32 36 38 26 32 30 28 31 30 28 29 28 27 28 27 25 19 17 23 15 17 18 15 21 29 27 36 38
32 31 25 13 18 14 25 24 19 11 7 10 8 6 7 32 5 40 34 41 31 25 31 30 26 28 29 28 28 26 27 25 26 19 19 18 15 15 20 20 24 23 34 33 40
29 29 24 12 15 18 24 23 12 6 12 14 29 25 22 25 34 25 43 42 39 29 28 31 33 27 25 23 28 26 23 24 24 18 17 22 20 20 18 23 19 23 34 36 38
33 25 11 9 10 23 21 18 6 7 19 19 29 29 28 26 20 28 28 31 28 28 28 28 33 28 27 23 26 24 22 14 17 17 16 22 21 15 17 23 22 24 28 35 35
41 13 12 9 18 19 17 13 11 11 16 22 24 29 25 22 23 20 27 28 33 31 18 24 28 35 21 30 25 28 26 15 24 18 17 22 23 21 22 22 24 35 36 35 36
36 18 13 6 20 16 16 10 10 10 16 19 23 21 25 29 20 28 27 28 31 33 31 23 29 25 31 24 25 24 26 24 21 20 16 18 28 24 23 24 21 22 32 35 37
29 22 16 10 19 13 11 15 13 14 18 18 22 20 24 25 24 24 20 28 27 32 32 30 17 30 31 26 29 30 22 22 17 21 21 19 22 19 24 23 24 18 18 33 37
22 17 7 18 16 18 11 12 15 19 19 17 20 21 22 19 21 22 13 24 28 14 32 30 26 21 29 31 28 21 22 25 20 17 15 15 14 16 26 24 20 23 23 22 33
16 7 20 16 20 10 9 12 13 17 16 15 13 18 11 17 18 14 17 15 32 24 17 19 23 20 27 29 31 28 27 25 13 22 16 14 11 10 3 24 19 15 32 27 24
19 25 11 22 9 12 16 17 18 11 17 10 19 14 15 13 15 10 16 29 42 26 12 12 14 19 26 24 30 32 30 27 21 17 20 15 11 8 9 20 23 22 19 33 26
12 8 16 19 21 18 18 17 15 15 10 16 30 13 16 16 15 7 15 16 38 32 17 6 8 20 19 21 18 29 30 28 28 17 16 18 7 7 6 5 11 18 18 17 25
11 6 14 8 15 20 22 19 18 14 4 8 16 4 23 11 16 5 13 22 23 28 17 7 13 17 25 23 23 28 26 30 30 21 22 18 19 15 10 7 7 14 15 20 16
6 5 7 20 21 18 17 15 18 16 17 16 17 7 19 16 12 13 15 13 11 19 19 17 8 13 19 22 19 22 32 30 29 29 22 24 17 20 15 16 12 15 13 14 11
10 13 9 8 16 10 11 19 21 22 14 18 11 16 19 13 18 21 19 19 18 22 18 13 11 9 16 17 21 20 13 25 26 24 25 20 17 18 19 18 16 16 12 7 0

GFSSW_850_spd_045.txt.gz
Wind_Speed
23 24 24 24 24 24 25 24 23 22 21 19 19 16 18 19 19 22 32 27 18 18 13 11 16 17 18 15 26 26 7 7 7 0 6 26 21 26 22 36 13 14 35 37 34
24 24 25 25 25 26 26 27 27 24 21 20 19 15 15 18 21 31 32 24 24 21 21 17 17 20 25 26 14 11 3 8 5 6 6 5 7 27 28 28 28 37 35 38 41
24 25 26 27 27 27 27 28 28 25 21 20 19 13 13 14 20 24 6 17 24 24 22 21 16 22 24 26 24 15 8 8 5 8 9 12 12 3 30 18 42 42 42 42 37
26 27 27 27 28 28 28 27 27 25 23 20 17 15 13 9 4 4 2 5 20 26 23 21 22 26 16 18 30 17 24 11 9 5 5 12 1 9 32 21 41 46 49 44 36
27 28 28 28 28 28 28 27 26 24 23 21 17 13 10 10 27 9 5 4 16 29 30 27 28 25 18 18 23 17 14 22 14 4 29 22 10 2 33 41 42 44 42 38 38
29 29 29 29 29 29 28 26 26 25 21 19 17 13 12 10 17 12 18 9 15 33 30 28 20 26 17 23 17 20 20 20 17 17 24 16 7 10 32 41 41 43 43 37 39
31 31 30 29 29 29 27 25 26 26 21 19 18 15 16 34 8 6 18 15 13 29 32 30 27 25 29 12 32 27 16 17 16 24 9 14 5 13 35 47 43 40 43 41 41
31 31 31 30 30 27 25 27 25 29 22 17 15 12 15 16 12 22 26 21 13 17 29 25 26 29 29 22 23 17 17 14 14 15 18 25 14 8 38 43 42 41 42 43 43
31 31 31 30 28 24 23 28 31 31 11 10 1 7 16 7 20 26 27 29 17 20 17 22 26 30 25 14 13 11 13 12 9 25 8 28 12 21 34 37 40 41 41 42 44
33 32 32 30 28 21 24 26 33 11 15 12 2 8 14 7 9 21 28 23 26 20 25 24 19 15 15 12 16 12 7 10 15 17 16 9 8 23 32 35 39 37 36 35 45
36 35 34 30 28 21 27 32 32 8 10 23 29 28 57 13 15 22 26 24 25 27 17 26 11 21 23 18 12 13 17 15 13 15 10 14 11 29 37 28 34 34 33 36 35
36 35 33 29 23 17 22 27 24 24 29 33 42 42 46 38 20 16 27 27 23 21 16 12 24 19 15 15 19 19 21 19 14 16 11 10 12 14 33 36 44 34 30 34 37
37 35 33 30 18 14 16 26 26 28 13 31 21 24 33 23 27 43 17 34 16 22 24 24 12 20 20 21 23 22 22 18 15 15 17 16 16 10 23 35 37 53 59 44 46
38 35 34 33 12 19 19 30 31 24 5 9 2 12 17 20 10 32 33 29 21 23 23 25 20 25 25 25 22 21 19 21 21 13 6 2 3 7 14 23 26 40 43 46 43
37 36 30 17 23 21 30 35 27 23 5 10 17 15 43 5 18 19 35 30 25 22 20 24 23 28 26 26 23 16 14 22 23 15 7 18 11 13 10 16 29 30 50 44 43
38 37 23 9 11 19 24 28 27 2 5 9 21 22 26 28 26 28 21 31 27 24 22 25 20 19 27 23 19 15 17 15 17 13 14 11 17 17 13 12 26 35 45 48 41
39 29 10 8 12 21 27 27 4 4 10 11 21 22 21 20 26 25 22 18 18 20 25 19 30 24 18 21 21 19 11 9 12 13 13 10 7 10 11 13 18 29 44 52 53
40 24 13 9 11 17 22 10 5 9 12 17 18 18 16 22 19 27 29 18 22 23 5 20 20 31 22 22 16 22 20 10 15 9 10 8 10 9 12 8 24 36 49 54 51
39 24 12 12 8 17 16 4 6 10 14 16 19 16 18 22 17 22 21 15 11 19 23 14 28 16 28 20 20 19 20 12 3 6 3 3 7 13 17 15 9 15 38 51 53
40 26 6 6 14 15 5 11 16 13 14 12 14 9 18 15 15 15 12 19 27 26 32 26 17 20 21 25 21 18 12 13 9 9 10 10 12 15 15 20 13 11 24 42 48
30 16 24 19 17 19 7 7 14 21 19 12 17 13 12 12 11 14 8 25 16 29 30 20 13 30 16 25 28 12 12 15 6 6 6 6 10 11 22 22 21 12 23 35 43
19 5 18 33 9 10 9 17 20 17 15 11 12 15 12 18 12 12 21 14 33 30 28 18 8 17 27 15 24 16 15 15 10 11 5 4 11 6 7 26 22 19 26 32 45
16 11 20 21 5 7 16 17 21 16 9 6 5 6 12 15 6 7 13 14 16 18 12 15 6 5 18 16 20 28 22 18 8 6 9 10 10 4 11 15 27 20 29 26 43
9 4 11 14 22 15 13 13 17 27 20 3 5 10 10 8 5 9 10 10 24 26 37 28 13 17 11 15 7 12 24 21 16 10 10 16 5 10 11 10 9 17 21 35 31
6 5 8 5 12 16 15 13 14 10 15 18 5 7 7 7 8 7 15 16 18 23 18 10 10 16 14 12 9 15 25 23 20 16 15 12 8 8 1 7 7 17 18 22 27
9 5 5 14 15 16 11 10 12 17 15 14 15 9 7 7 9 14 6 9 7 13 14 16 8 15 5 9 11 17 18 26 20 19 16 10 9 8 8 21 21 25 24 25 20
9 9 5 5 7 9 7 10 13 21 12 26 23 9 9 11 13 18 24 16 16 6 13 14 9 9 4 4 5 5 17 17 20 18 19 17 8 7 6 10 15 25 24 23 22

GFSSW_850_spd_048.txt.gz
Wind_Speed
23 23 24 24 24 24 24 24 23 21 20 16 15 15 19 18 18 22 31 26 18 12 9 18 20 14 19 17 10 3 2 4 10 6 4 6 5 13 12 19 6 8 21 41 50
24 24 25 26 26 25 25 25 25 22 19 18 17 16 16 18 21 29 24 20 19 21 18 24 24 23 14 16 8 9 2 7 7 4 4 1 3 14 10 11 21 29 31 52 43
25 25 26 26 27 27 27 26 24 23 22 20 17 15 13 15 21 11 1 15 25 24 26 20 17 22 15 11 16 14 6 7 6 10 7 11 16 8 21 9 35 41 42 51 40
26 27 27 27 27 27 27 26 24 24 25 23 18 14 13 10 5 5 5 3 25 29 31 25 22 17 8 10 21 6 17 16 11 7 6 7 11 13 13 12 35 50 53 52 42
27 27 27 27 28 28 26 25 26 27 25 23 19 14 10 9 26 11 7 6 22 33 33 31 27 20 9 13 22 14 16 19 18 10 15 0 1 12 12 27 36 38 45 48 45
28 28 28 28 28 26 24 25 26 26 25 25 20 17 9 7 8 8 20 6 13 34 33 30 26 29 10 14 15 11 25 22 20 16 13 7 2 6 22 39 40 42 40 40 44
30 31 30 29 28 25 23 24 28 35 27 20 18 17 14 29 6 5 14 22 12 24 37 37 21 26 15 5 37 26 16 10 12 19 6 11 3 11 31 38 41 40 40 35 42
30 29 29 28 28 25 22 24 29 27 18 15 15 11 14 8 11 25 16 21 17 17 26 30 31 22 11 13 12 7 9 13 14 10 2 12 7 17 35 38 35 37 37 36 41
34 32 31 30 28 25 22 26 31 15 14 20 5 6 15 6 10 11 25 25 21 19 25 22 23 17 10 4 5 4 8 8 18 20 12 11 5 25 38 37 36 38 37 35 41
40 38 33 31 28 24 22 26 26 17 15 18 6 9 9 3 15 18 11 25 27 21 19 20 15 5 7 5 11 5 5 6 9 16 16 21 11 22 38 35 36 37 38 35 38
39 40 39 30 27 20 22 26 33 11 26 26 34 30 46 38 36 20 2 27 26 23 9 19 10 16 23 12 6 6 7 10 6 10 25 21 22 20 37 32 33 37 36 39 42
37 38 44 35 24 14 16 19 21 22 18 24 16 22 29 24 17 20 9 24 18 18 9 4 18 18 6 9 11 14 11 14 15 12 10 17 19 23 26 33 44 39 38 40 39
38 37 44 38 22 12 14 19 21 26 4 18 8 13 19 13 9 29 12 9 6 9 16 19 7 15 15 14 15 15 16 16 11 6 8 7 6 19 24 32 35 38 47 46 44
37 38 39 34 12 20 18 21 18 30 4 7 8 9 23 10 4 24 19 17 9 18 10 16 20 19 17 21 18 16 20 18 17 7 5 6 12 9 23 19 24 36 38 42 43
37 37 34 21 16 20 25 22 24 4 4 5 9 13 21 19 17 20 25 11 18 11 10 17 21 24 22 26 20 19 14 14 17 5 2 15 6 11 28 23 23 28 40 37 46
38 37 26 14 13 19 27 29 9 5 4 4 9 13 14 24 18 23 21 26 14 18 20 15 19 21 27 17 20 13 11 9 6 4 10 16 6 9 21 29 29 35 37 42 41
37 36 18 10 11 19 24 28 5 3 11 9 8 9 7 15 11 15 13 11 8 9 14 18 22 23 14 19 14 13 7 7 4 7 9 9 6 13 26 29 35 36 38 44 43
38 24 11 7 13 14 21 6 2 11 3 6 7 6 7 12 4 17 13 9 18 14 7 15 19 23 21 12 19 14 11 6 9 5 7 6 9 12 12 22 53 59 54 51 47
36 18 14 17 17 14 6 3 2 6 8 11 7 5 5 7 1 10 10 2 12 20 11 9 16 4 20 19 15 11 18 11 5 2 4 4 5 9 12 7 24 36 39 42 48
39 10 15 23 18 10 3 5 4 6 9 7 5 5 5 7 7 8 6 10 11 16 18 5 9 12 28 11 20 18 9 9 4 12 5 5 6 10 11 12 14 29 40 48 49
30 10 15 33 15 9 2 3 5 22 13 5 3 3 4 2 4 6 3 9 17 18 15 9 5 13 4 10 23 4 15 6 7 6 10 4 10 8 11 12 10 20 48 51 53
21 4 17 21 11 6 3 7 13 13 18 6 4 3 1 3 1 3 6 3 17 17 10 9 6 7 10 12 4 21 8 10 9 10 3 4 12 6 12 12 11 17 46 53 56
16 8 12 15 4 4 6 7 10 9 7 4 3 4 3 2 3 1 3 7 13 11 7 8 3 8 10 4 3 5 12 10 7 6 10 13 15 6 6 8 20 26 34 53 56
9 4 8 7 10 3 5 5 8 13 0 9 5 3 4 2 4 3 2 4 8 14 9 9 4 9 8 9 10 5 12 9 17 8 10 11 11 7 15 14 16 18 33 43 52
4 2 2 4 6 11 8 7 10 6 6 11 7 5 4 5 5 4 3 5 5 6 3 2 8 11 20 27 25 24 12 13 14 14 14 11 7 9 9 12 8 13 29 35 45
5 4 4 8 10 9 5 4 9 10 8 12 5 14 12 7 9 7 6 5 3 2 3 3 5 15 23 18 18 18 6 7 13 17 6 8 8 8 7 18 8 14 29 31 41
4 8 5 5 4 3 3 9 13 17 6 12 13 7 9 12 17 24 25 21 10 8 6 5 4 6 6 6 6 5 13 7 6 7 9 11 10 4 8 9 17 11 27 27 30

GFSSW_850_spd_051.txt.gz
Wind_Speed
23 23 24 24 24 25 25 24 21 18 18 17 15 16 18 17 18 21 28 20 21 13 14 20 21 16 18 17 8 5 1 3 6 4 2 9 6 10 5 15 3 10 18 38 47
24 24 24 25 25 25 25 25 23 22 20 20 19 16 16 18 19 26 21 19 18 22 19 27 26 22 11 9 7 6 2 6 5 7 4 6 5 10 7 11 7 19 30 47 44
24 24 24 25 25 26 24 23 24 25 25 23 21 17 13 15 18 2 1 12 27 25 23 23 24 22 7 8 10 7 5 5 7 11 13 13 11 6 14 2 11 34 48 50 45
25 25 25 25 24 24 23 22 22 24 26 23 20 17 11 9 3 4 3 5 32 29 27 28 26 14 6 6 13 3 12 8 5 12 9 7 11 7 16 5 19 39 63 55 47
26 26 26 26 25 24 21 19 22 24 31 28 20 15 12 8 15 6 6 3 33 34 37 34 32 17 8 10 8 13 11 14 24 16 8 8 13 9 18 2 28 44 46 51 48
30 28 26 26 25 24 20 19 25 30 22 20 16 9 9 4 4 6 17 1 30 37 39 36 24 25 13 4 14 8 19 20 16 21 9 7 3 15 13 26 31 46 44 45 48
32 33 28 26 26 24 20 20 26 30 16 17 22 13 10 21 6 3 10 8 21 35 41 38 15 23 7 1 20 14 7 8 13 17 6 5 3 6 28 34 34 40 40 39 41
33 34 34 32 27 26 23 22 26 22 15 20 25 10 10 5 5 5 11 10 18 33 31 33 25 30 5 3 5 5 4 3 7 7 7 12 5 12 32 33 31 33 37 37 35
37 39 37 37 29 27 24 24 24 12 14 23 11 8 10 6 14 8 16 14 19 25 28 21 29 6 8 2 4 3 4 6 8 13 6 9 4 16 32 30 29 31 35 37 36
35 37 37 38 30 23 23 24 19 9 15 11 9 7 8 23 26 19 14 14 19 19 21 11 12 4 2 5 12 6 4 4 6 8 9 8 3 16 30 30 29 31 32 33 37
36 37 39 37 28 17 23 15 18 4 29 8 23 10 19 23 11 5 7 10 17 17 8 15 5 17 28 17 4 4 5 6 6 7 15 17 11 18 28 26 28 30 33 34 38
37 36 36 35 20 16 14 18 16 12 14 26 6 9 17 13 7 23 10 10 10 7 7 6 18 19 6 8 11 7 5 6 7 5 14 16 17 18 21 31 40 38 38 40 37
37 38 35 31 11 20 16 19 20 18 2 13 7 14 20 12 3 18 15 5 6 10 13 9 3 14 10 10 14 13 13 9 8 2 8 6 17 14 22 19 25 32 36 34 41
35 35 31 25 8 20 19 19 20 9 4 5 10 12 18 7 3 8 19 2 3 13 12 13 14 17 18 17 12 13 13 15 11 3 5 8 5 14 20 20 20 32 35 37 40
33 33 27 17 8 17 23 24 12 0 4 5 7 9 11 13 12 15 18 4 4 9 4 14 14 18 16 20 17 13 6 8 8 4 2 13 2 6 17 18 24 28 36 42 43
34 29 19 10 11 15 22 26 2 5 4 4 5 8 7 11 6 18 14 13 4 4 10 10 17 16 26 11 14 4 4 3 2 4 10 16 7 5 17 22 27 33 39 42 43
32 21 14 10 18 19 21 16 4 3 5 7 4 6 4 6 7 10 7 14 6 7 7 8 20 15 7 16 10 10 9 4 4 5 12 8 6 13 21 24 25 28 43 45 43
32 12 6 13 15 17 20 5 4 3 2 3 4 2 4 6 3 6 4 4 12 6 3 5 8 14 10 16 14 11 12 6 9 4 10 5 7 6 16 24 36 42 47 45 40
33 12 3 11 15 14 9 4 3 2 4 4 4 4 4 4 1 5 5 4 4 9 4 4 7 11 19 14 17 12 19 10 4 3 3 4 4 5 8 12 21 30 31 36 41
33 9 11 25 16 6 4 4 2 9 9 1 2 1 2 4 5 4 2 3 3 10 3 2 6 7 13 11 15 16 8 9 5 9 6 4 5 9 13 11 18 21 25 32 43
22 3 16 21 10 5 3 4 4 10 14 6 1 2 2 2 2 1 1 4 7 6 3 1 3 8 8 6 24 6 14 7 6 4 11 2 8 6 11 17 16 20 33 37 43
14 3 15 23 8 4 2 7 8 7 10 3 1 1 1 1 2 2 2 3 5 2 2 2 1 6 10 14 15 8 8 8 10 14 2 7 14 2 10 11 18 26 34 41 46
17 6 10 20 4 4 7 6 5 5 4 4 3 3 1 1 1 2 1 4 5 2 3 1 2 6 8 2 4 3 3 14 4 4 12 17 12 5 6 6 19 22 31 31 39
7 4 6 10 8 3 5 4 6 10 1 5 4 2 4 2 3 3 4 5 4 1 6 5 5 7 7 8 14 11 20 19 11 12 6 14 10 8 9 8 9 18 27 33 40
5 2 3 4 2 3 3 4 6 6 9 7 3 3 4 4 3 6 6 4 5 3 3 1 5 8 11 18 20 20 23 24 14 14 15 13 10 10 11 8 8 20 24 33 44
5 4 3 5 8 4 4 2 7 5 4 6 7 11 7 7 9 6 4 4 6 3 3 2 3 3 8 22 19 19 19 18 20 21 6 4 11 6 5 8 19 21 24 30 34
4 4 4 5 3 2 2 3 7 12 9 15 7 8 8 12 16 16 19 17 9 8 5 4 4 3 6 8 13 5 7 13 12 16 4 7 3 8 7 13 17 25 17 21 34

GFSSW_850_spd_054.txt.gz
Wind_Speed
22 22 22 23 23 23 21 19 18 18 20 20 18 17 16 14 15 17 22 17 20 13 22 23 21 16 16 13 7 4 1 2 3 6 3 3 4 5 8 16 5 11 13 34 42
23 24 24 24 24 23 21 20 19 19 19 22 20 17 16 16 16 19 12 16 16 21 24 32 25 20 9 9 6 4 2 6 4 3 4 7 6 10 7 11 6 13 22 40 46
25 25 24 24 23 23 21 19 19 21 23 25 24 16 14 14 13 1 4 7 25 24 23 27 25 21 6 7 8 7 5 1 4 9 13 7 5 7 13 3 10 32 41 45 45
28 27 24 24 23 22 20 19 20 23 29 23 19 12 11 8 1 2 2 1 30 29 25 28 31 16 6 6 15 4 13 10 5 9 4 3 10 7 17 5 13 26 50 54 49
28 28 26 25 23 21 20 20 21 24 29 17 16 14 11 5 7 9 8 2 34 33 31 30 35 14 6 8 9 11 4 4 17 12 7 6 11 5 12 3 13 33 42 42 46
29 28 27 28 28 21 20 20 22 23 24 18 19 19 8 3 2 6 7 3 33 36 32 32 22 20 13 6 8 8 16 12 12 13 8 7 6 10 8 14 28 42 40 38 43
31 32 30 30 30 23 19 19 21 22 17 20 21 10 6 6 4 7 6 4 29 36 35 33 6 22 6 2 12 14 4 5 6 6 5 12 3 6 22 23 37 37 36 34 38
33 33 34 34 33 26 20 19 19 19 11 19 16 14 3 9 6 4 7 5 17 34 26 31 20 19 3 3 2 6 3 2 2 6 5 12 5 3 28 32 32 35 35 33 39
32 33 33 33 32 24 21 23 21 8 10 13 15 8 5 8 13 11 10 3 9 27 25 11 19 3 6 2 4 4 4 6 4 7 3 5 3 11 24 28 31 33 34 33 34
32 33 33 31 27 21 23 20 16 7 20 7 17 6 11 19 16 5 6 10 14 20 16 6 9 2 2 4 7 6 4 5 5 5 8 6 0 13 22 26 33 34 34 35 36
34 34 32 27 18 19 21 9 9 3 14 4 11 3 16 24 17 11 7 15 14 17 7 7 4 18 22 12 2 4 5 6 6 6 6 11 6 15 23 21 24 31 35 37 39
33 34 32 22 11 15 18 14 16 12 10 12 2 10 18 21 6 23 10 9 6 4 7 3 14 11 5 5 6 6 2 4 4 3 8 7 13 14 20 28 36 35 35 35 32
34 35 31 20 3 16 19 18 21 9 2 6 4 13 18 15 3 15 17 1 4 5 8 7 6 11 9 6 10 11 7 4 2 3 6 2 7 9 14 13 22 25 31 34 39
31 31 26 16 2 14 15 19 20 2 4 5 6 9 16 10 3 7 16 3 3 10 7 9 8 11 13 14 9 11 12 14 5 1 4 6 4 7 11 18 19 27 31 33 36
28 27 21 10 7 11 16 19 12 5 2 2 4 7 12 8 9 16 14 4 4 4 6 6 8 10 12 20 14 13 7 10 8 4 3 4 0 7 12 12 18 25 33 35 39
26 22 14 7 10 16 16 20 5 5 5 2 3 5 7 8 7 13 10 11 1 5 2 8 6 7 16 9 14 3 1 4 3 4 10 13 9 6 7 13 16 23 34 37 39
27 22 6 10 19 16 17 7 4 3 3 3 2 4 3 5 6 7 4 8 5 6 7 6 5 5 5 7 8 12 9 2 3 4 15 9 9 12 6 11 17 23 36 41 42
28 22 5 16 14 15 14 4 3 1 2 2 3 1 4 5 2 7 2 3 7 4 2 4 4 6 1 10 8 11 12 6 8 6 14 6 8 6 19 13 28 28 38 35 34
27 13 4 15 16 13 7 4 3 1 4 4 4 3 2 3 2 4 2 2 1 4 3 4 6 5 5 1 3 6 16 11 4 3 1 9 4 8 5 11 14 24 22 30 37
26 4 14 16 15 6 4 3 4 1 5 3 3 1 2 2 1 2 2 2 4 2 0 2 5 3 6 5 8 8 6 7 4 7 5 4 6 8 9 9 9 8 20 28 36
17 3 16 20 7 6 3 3 3 3 7 1 1 1 2 3 2 3 2 3 3 2 2 2 4 7 5 6 10 7 8 5 7 7 7 2 6 7 11 14 14 11 26 32 36
12 3 19 24 8 4 2 5 6 3 5 3 2 3 4 5 3 3 5 2 6 1 2 2 2 6 9 7 3 3 4 4 8 12 7 3 7 5 10 9 14 20 30 34 39
12 6 12 17 4 3 6 4 4 3 3 4 3 4 1 4 2 4 3 4 5 3 3 2 2 5 7 1 5 3 2 6 5 3 15 14 7 6 6 6 17 18 21 33 37
7 4 7 12 7 2 5 4 5 9 1 3 3 4 4 3 2 3 3 5 7 4 5 1 3 7 6 2 4 5 8 6 4 3 5 15 10 7 9 8 9 18 23 21 27
7 2 3 4 3 4 2 3 4 5 5 6 3 3 4 1 5 3 3 2 2 1 3 2 5 5 15 16 10 11 15 13 5 11 5 4 11 9 12 11 7 11 12 17 20
4 4 4 4 6 5 1 2 6 4 3 4 4 6 7 4 6 7 5 3 5 2 3 1 4 7 14 14 15 14 16 14 15 17 13 16 10 4 7 6 9 8 13 15 23
6 2 2 5 2 2 2 3 6 9 8 10 10 7 9 12 14 15 22 17 7 8 8 6 3 4 5 4 5 8 15 8 7 13 5 6 2 5 4 9 10 13 14 16 20

GFSSW_850_spd_057.txt.gz
Wind_Speed
23 22 22 22 20 20 18 16 15 16 18 21 20 18 13 11 12 14 14 10 14 12 23 25 21 17 15 12 5 4 2 4 3 3 1 9 6 8 10 18 6 11 10 21 33
26 25 23 24 23 21 19 17 15 16 18 24 21 17 13 12 11 14 6 10 12 18 29 29 23 19 9 9 5 5 3 3 2 1 3 11 9 11 8 16 6 8 13 35 36
26 26 25 25 24 21 20 18 17 18 19 20 17 14 9 11 7 4 4 6 23 25 23 24 22 17 9 9 8 7 4 2 2 1 10 9 9 6 15 9 12 23 28 36 37
26 25 25 25 25 21 20 19 17 19 20 17 13 14 13 8 1 3 3 3 26 32 26 25 21 14 9 9 15 6 11 12 4 5 7 4 7 7 12 2 13 24 35 41 39
26 26 25 25 25 22 19 19 18 19 20 13 14 17 12 3 5 4 4 2 28 31 29 25 25 17 13 10 9 15 6 6 10 5 4 3 5 4 10 5 15 25 36 38 36
29 28 28 27 25 22 18 18 18 18 17 14 16 14 3 1 1 12 5 8 31 31 26 23 19 15 11 5 13 5 19 13 4 5 6 7 2 7 4 13 22 30 36 38 36
30 29 29 29 27 21 17 18 19 16 12 17 16 7 7 2 4 10 11 9 30 28 26 21 7 17 5 7 11 12 4 6 11 9 6 7 7 10 13 18 26 30 34 37 34
30 29 29 27 25 21 21 20 17 11 8 10 14 11 6 8 5 9 9 5 21 25 18 17 11 14 3 4 2 6 9 5 3 13 6 9 3 6 19 24 26 29 33 35 33
31 30 29 25 22 22 22 21 14 7 9 9 12 7 6 12 10 3 4 3 14 28 13 11 8 5 7 3 5 5 10 15 5 9 7 13 2 11 18 22 25 28 33 34 33
31 30 28 22 18 20 22 17 9 4 10 6 14 3 13 13 12 6 3 7 8 19 12 6 10 7 7 11 12 11 14 10 15 10 12 11 8 11 18 21 23 26 30 33 34
31 30 27 18 10 15 20 10 7 3 10 3 3 4 9 8 20 16 6 9 15 14 11 10 11 21 20 13 13 9 7 16 11 9 10 14 11 12 18 19 21 25 29 32 35
29 29 25 16 6 11 17 11 11 8 7 5 8 7 9 14 4 17 6 4 6 9 10 6 19 17 11 13 14 17 6 12 14 3 10 8 15 13 19 24 30 33 32 34 32
28 28 23 15 3 10 13 17 17 9 3 3 2 8 11 6 5 12 9 2 7 8 16 14 3 15 14 14 16 18 19 8 7 6 10 7 15 13 15 17 19 23 27 27 33
28 27 22 12 2 10 11 16 17 3 2 1 2 5 10 2 4 11 8 1 4 13 14 13 17 9 16 21 18 19 17 17 10 5 12 13 12 13 15 19 20 27 30 32 35
26 24 17 10 4 12 13 15 10 3 3 4 3 5 7 6 7 9 9 2 1 1 5 9 12 18 14 16 19 14 11 16 19 13 10 11 9 17 11 17 21 27 32 34 36
25 23 13 7 6 11 12 13 5 3 4 2 3 4 4 7 5 9 8 7 1 2 3 10 9 13 18 13 17 10 4 12 15 14 16 20 13 15 13 19 20 25 31 34 35
24 21 1 7 11 9 11 1 2 3 1 2 4 3 3 5 4 6 4 9 5 3 3 3 11 9 12 14 17 20 14 7 8 11 19 18 16 17 14 15 17 22 32 36 36
24 11 4 10 10 8 8 1 5 3 3 2 1 0 1 2 1 4 2 2 7 3 2 3 10 11 8 20 13 20 20 8 13 13 16 17 13 14 26 23 13 20 26 26 31
21 5 9 16 14 6 0 2 2 1 3 3 2 3 4 2 2 1 3 1 2 5 3 3 6 2 4 4 17 15 22 21 9 4 10 14 21 13 14 20 25 22 18 24 30
19 4 15 18 8 3 2 1 1 3 5 2 3 3 6 3 3 0 1 2 3 2 2 1 7 2 4 4 13 16 16 17 13 17 12 8 21 15 21 16 17 19 22 23 27
11 3 17 18 4 7 2 2 2 4 6 3 3 4 3 4 3 3 1 3 4 2 1 1 2 4 6 8 20 13 12 14 16 16 14 12 10 16 19 20 17 18 28 27 27
7 2 22 16 7 4 3 6 7 3 4 3 4 5 5 4 4 5 6 5 6 4 2 1 3 6 9 7 5 6 10 23 12 20 19 13 14 4 16 20 25 26 24 28 29
6 6 17 13 4 4 5 3 3 6 6 4 3 5 4 2 4 7 4 3 6 4 3 4 3 5 7 8 4 5 1 7 12 8 20 18 15 12 9 7 10 16 18 20 25
5 2 8 14 7 4 5 4 6 8 0 5 4 1 1 7 5 3 4 3 3 3 5 3 3 8 10 11 11 8 7 4 10 15 18 15 19 23 20 11 11 8 10 11 18
6 3 4 4 7 7 4 3 6 6 3 5 3 3 3 6 6 7 5 3 7 5 4 3 6 8 16 18 17 18 20 17 11 14 13 19 16 18 19 22 23 19 5 7 8
4 3 3 2 2 4 2 1 3 4 3 6 7 8 5 6 8 5 7 8 7 9 7 5 5 7 17 16 15 19 21 19 18 17 12 14 12 8 12 9 4 6 6 8 11
6 5 3 3 4 3 2 3 5 13 8 13 9 7 7 13 13 18 14 14 13 5 9 6 3 5 7 9 14 11 22 19 13 6 17 16 6 11 10 2 6 8 10 11 13

GFSSW_850_spd_060.txt.gz
Wind_Speed
23 22 22 22 21 18 15 14 12 13 14 17 16 16 11 9 8 8 9 9 17 13 21 21 19 17 18 14 9 4 6 5 2 4 7 11 7 11 6 13 9 12 6 20 34
23 23 23 23 22 21 16 15 13 12 15 18 13 14 8 6 7 9 8 9 14 18 24 26 22 20 17 15 8 10 6 3 6 5 4 12 13 13 11 14 8 11 10 33 36
24 24 23 23 22 22 18 15 14 14 14 17 12 11 11 8 1 3 10 12 18 23 23 22 20 21 15 15 15 11 5 1 3 4 15 13 10 10 10 10 12 17 28 35 36
24 24 24 23 23 22 20 16 15 14 15 15 10 14 12 3 1 4 7 8 19 26 24 23 24 22 16 12 18 10 13 7 4 7 6 8 12 9 11 8 10 18 29 38 38
25 24 24 24 22 21 18 16 15 15 14 11 13 12 7 2 1 6 6 7 21 29 28 27 27 21 16 15 9 17 9 6 8 6 5 7 7 4 10 5 12 21 29 37 37
26 25 25 24 22 19 18 17 17 14 12 11 11 9 3 3 4 9 4 8 23 27 26 24 20 19 11 9 16 4 18 14 6 11 7 7 6 9 6 10 16 23 31 36 37
26 25 24 23 21 19 18 17 15 12 4 8 9 14 5 4 6 7 5 11 18 21 25 22 10 20 6 11 14 15 9 9 18 16 8 8 10 10 13 14 17 22 29 34 34
26 25 24 22 20 19 19 17 11 5 7 5 7 10 6 4 4 4 5 12 18 14 20 16 11 21 8 2 7 15 15 14 16 16 10 11 10 13 15 17 20 23 29 33 33
27 26 24 21 17 19 20 17 6 9 4 8 6 1 5 8 3 1 4 9 16 11 15 14 11 14 17 12 11 13 14 18 12 16 10 14 6 15 16 17 20 24 28 32 32
28 26 23 18 13 16 19 13 5 6 7 4 7 2 10 7 5 2 3 14 14 18 10 17 14 12 13 15 15 16 18 14 17 15 18 16 7 11 15 16 20 23 26 30 32
26 24 21 15 8 13 17 9 5 2 5 3 4 4 5 4 8 5 8 8 10 21 14 17 15 20 20 18 17 8 12 18 14 11 15 17 14 14 15 17 20 23 27 30 33
25 24 20 12 4 11 13 6 6 4 4 1 1 3 3 2 2 9 7 8 13 15 17 12 19 18 16 14 14 16 12 14 14 10 9 17 18 14 17 18 22 24 27 29 30
24 22 18 9 2 8 6 9 11 4 6 5 1 2 3 1 3 9 0 4 11 16 18 18 5 19 15 15 17 19 19 12 14 12 9 17 17 16 16 17 19 21 24 26 30
26 22 15 5 2 7 3 12 12 1 5 9 6 2 3 2 3 6 5 4 7 11 15 17 21 7 18 20 18 20 18 16 13 11 14 21 15 21 19 19 19 24 27 29 31
24 20 12 3 1 4 9 13 5 3 5 4 4 1 2 1 3 4 4 4 10 9 10 11 12 19 17 17 20 16 14 14 17 15 15 16 13 16 24 19 21 24 28 29 31
22 17 7 4 4 5 9 9 3 6 3 5 2 0 3 3 2 4 2 1 3 9 14 17 7 14 23 18 11 13 16 14 15 16 18 23 18 18 18 22 22 24 28 30 31
20 10 4 4 4 5 7 2 5 6 2 4 1 1 1 3 2 4 3 3 5 8 15 17 17 17 15 17 20 17 17 10 11 14 21 23 21 18 18 19 21 19 28 31 32
16 3 7 11 9 6 3 6 6 4 2 2 2 2 5 1 3 1 3 5 3 6 10 9 14 20 18 21 19 23 21 12 20 16 19 23 25 23 26 17 22 25 24 28 29
11 4 7 14 9 0 8 7 6 2 4 4 6 8 6 4 5 4 2 4 1 4 6 5 12 3 7 14 20 20 23 25 25 16 16 18 20 18 23 28 16 18 21 25 28
6 5 11 14 6 2 6 4 1 3 5 4 7 1 5 7 5 3 2 5 4 1 5 3 8 8 4 8 19 20 17 21 18 22 22 17 20 20 19 22 26 24 22 24 24
4 3 14 8 3 4 3 4 1 2 6 4 6 8 8 7 6 9 4 5 3 4 4 5 6 6 5 12 19 17 22 18 20 18 19 18 15 14 21 26 23 24 31 26 22
5 1 18 6 0 3 4 4 3 4 3 4 6 9 11 9 9 8 7 4 3 4 6 3 7 12 17 14 8 14 14 27 16 28 22 16 15 7 9 19 24 27 30 32 30
4 4 13 7 3 5 5 5 2 4 4 3 3 3 2 8 5 7 9 2 6 7 4 4 6 9 16 18 18 17 16 19 19 22 26 20 19 9 7 7 21 24 28 24 25
3 0 7 18 11 9 2 5 3 3 4 6 8 8 8 10 10 6 6 5 8 11 3 3 12 11 13 10 10 5 10 7 17 18 21 21 18 24 16 8 7 9 8 11 15
6 5 4 5 9 8 4 5 4 5 5 10 4 5 9 6 9 12 13 11 10 8 10 7 14 13 14 15 14 16 18 17 19 18 22 20 22 17 18 19 15 18 7 5 6
4 3 7 3 3 3 8 7 5 6 3 6 5 8 9 10 10 13 10 11 13 10 13 11 13 11 15 17 18 20 21 20 21 20 19 23 23 20 11 8 12 11 7 9 6
7 7 2 2 4 4 3 3 5 10 5 9 12 7 10 12 16 13 16 18 14 9 13 12 11 11 15 13 11 16 22 22 22 20 20 23 19 19 9 12 9 8 9 9 8

GFSSW_850_spd_063.txt.gz
Wind_Speed
20 20 20 20 20 19 16 12 12 12 12 14 16 13 13 5 7 8 9 10 15 12 15 15 20 18 17 16 14 10 7 7 4 2 1 13 13 16 9 12 9 9 11 27 37
21 20 21 22 21 20 18 14 11 12 13 14 15 10 10 7 6 12 13 17 16 18 19 24 24 21 20 20 18 10 6 5 7 3 11 13 11 11 11 13 8 12 22 33 38
20 20 20 21 22 20 18 16 13 11 13 14 12 9 11 7 4 7 20 14 19 21 20 20 19 20 21 16 20 18 11 7 12 9 5 16 16 14 10 11 14 19 33 35 38
21 21 21 21 20 19 16 15 14 13 14 12 9 10 8 2 1 5 6 11 17 24 18 22 21 22 19 17 19 15 14 5 10 8 8 7 16 12 12 5 17 21 31 37 38
21 21 21 21 20 18 17 15 15 16 14 10 10 9 3 6 3 5 6 9 17 26 23 26 24 23 18 16 14 18 10 9 7 8 11 17 13 9 16 11 16 24 30 35 36
22 21 22 22 20 17 17 17 14 13 11 7 9 5 3 11 0 5 2 9 19 28 24 25 21 22 18 19 15 11 19 11 7 11 13 12 7 11 14 13 19 25 30 34 36
23 22 22 21 20 17 17 16 13 8 5 5 5 7 5 4 1 3 1 6 18 25 23 24 18 20 13 15 17 20 11 16 16 14 14 12 12 15 14 18 21 23 28 33 34
23 22 21 21 19 16 17 16 9 4 2 2 6 2 2 2 3 0 3 10 14 19 19 19 20 15 22 12 7 17 18 16 18 20 19 14 16 18 20 20 22 24 29 33 34
24 23 21 19 17 14 17 15 4 5 3 3 2 3 7 4 0 3 5 11 17 15 17 17 17 18 23 13 12 15 16 21 18 23 18 19 5 9 20 23 23 25 29 32 33
24 23 21 18 15 12 15 9 5 3 2 0 4 7 2 2 1 3 5 9 18 13 15 15 14 16 16 16 16 17 19 19 19 14 20 19 14 18 32 24 25 26 29 32 33
25 22 19 16 11 10 10 9 4 4 12 7 4 2 4 2 2 2 7 14 14 16 16 23 15 19 22 20 21 18 18 20 17 12 17 20 14 16 22 23 24 25 29 32 33
25 22 17 12 5 7 10 5 4 5 7 5 3 3 1 2 5 4 10 14 14 17 19 13 21 20 18 18 19 20 14 18 18 16 14 16 15 16 19 20 25 26 29 31 32
25 21 14 8 3 5 3 4 5 5 8 11 6 4 3 5 2 4 8 12 11 19 21 21 11 20 21 19 17 19 19 17 14 17 16 15 12 16 17 21 23 24 27 29 33
24 19 11 2 1 4 1 8 7 5 6 12 10 5 6 5 8 2 2 7 10 15 19 20 23 9 22 21 19 19 18 19 16 17 15 20 14 10 10 18 20 25 26 30 32
22 17 6 2 3 4 6 9 4 5 5 6 9 2 3 10 5 8 3 8 13 12 11 16 18 23 19 20 19 18 17 17 18 18 17 20 17 19 34 27 23 24 29 30 32
19 13 4 5 3 5 7 7 2 7 2 7 3 3 11 6 6 1 5 6 7 10 15 17 17 15 21 17 15 18 18 17 15 15 18 24 20 19 15 13 26 29 31 30 32
16 4 3 4 6 10 7 5 7 7 3 7 3 5 4 4 7 5 4 10 9 12 16 18 21 17 13 17 21 16 18 13 14 15 19 24 24 19 17 25 27 28 33 33 33
13 1 5 2 12 8 6 9 8 7 3 5 2 4 8 3 9 4 9 10 9 11 14 12 16 21 17 21 19 22 21 14 24 15 21 25 27 23 25 19 21 26 39 36 36
7 2 2 7 9 3 10 9 8 12 6 7 6 10 11 7 6 3 9 12 5 3 13 10 20 3 5 15 21 21 24 26 25 21 17 19 28 24 25 25 18 15 32 27 39
3 3 4 12 5 3 9 4 4 7 8 6 10 4 10 4 5 8 7 7 1 3 9 9 13 16 4 6 18 19 16 21 18 25 26 20 23 19 25 24 26 18 16 34 37
3 7 6 10 2 10 6 7 3 6 9 7 9 10 7 11 9 11 12 5 3 5 6 15 10 16 17 12 17 16 20 18 19 23 20 19 15 18 24 25 22 25 23 23 28
3 4 13 8 9 3 6 5 2 5 1 4 4 7 9 12 13 10 13 8 6 6 10 9 13 14 23 13 15 21 24 24 17 22 21 21 16 6 19 24 23 24 33 30 28
4 6 13 6 3 6 4 5 4 6 6 6 5 1 8 7 7 9 10 11 4 7 6 10 10 13 19 15 17 19 23 17 19 22 24 20 19 14 6 3 14 25 31 32 33
6 1 5 13 9 6 1 6 3 6 4 6 8 8 6 7 8 5 8 4 7 12 8 8 14 17 15 8 13 14 26 24 22 18 22 21 22 24 10 5 11 16 23 30 32
8 6 5 8 10 9 10 4 8 10 10 6 3 4 6 8 8 12 13 14 11 12 10 10 18 19 19 21 15 17 19 15 22 19 20 21 25 23 20 13 8 6 10 11 6
6 4 8 9 10 9 6 8 5 5 5 5 7 10 7 9 12 13 10 12 12 8 12 15 17 18 20 20 17 20 20 19 22 22 21 21 25 23 21 30 20 8 10 3 6
8 7 4 5 4 2 5 4 5 6 3 9 9 10 11 12 13 15 18 18 16 12 13 14 8 13 19 19 22 22 24 24 24 25 23 22 22 19 18 9 20 8 5 5 10

GFSSW_850_spd_066.txt.gz
Wind_Speed
20 20 21 21 20 19 17 15 14 13 13 13 14 13 10 9 7 10 13 11 18 9 17 11 15 18 18 17 15 6 5 8 2 8 15 39 12 12 16 19 16 10 24 33 41
20 20 21 22 21 20 18 14 13 14 13 13 13 11 10 10 9 15 12 16 16 15 21 17 20 21 21 21 21 12 6 8 12 2 4 7 19 20 18 21 16 20 26 36 39
20 20 21 22 22 20 18 16 14 14 15 14 12 9 10 9 6 6 20 18 18 18 19 16 18 20 21 18 22 22 16 8 20 21 22 21 14 13 21 15 25 31 35 40 38
21 21 21 21 21 20 17 17 16 15 15 14 11 10 8 4 2 5 7 17 16 21 21 18 21 23 18 18 22 18 21 18 6 10 11 7 10 13 23 8 19 32 37 41 39
22 22 22 22 21 19 17 17 17 15 13 11 8 9 7 5 6 4 3 8 16 23 21 19 24 22 18 19 20 18 18 9 8 8 6 6 7 12 16 25 23 32 35 40 37
22 22 22 22 21 19 17 17 16 14 11 6 10 7 4 9 1 2 2 7 14 24 21 21 21 19 19 22 17 18 16 17 7 8 16 14 8 15 22 22 32 30 32 34 37
22 22 22 22 21 17 16 17 16 10 6 5 2 4 8 8 2 4 4 9 16 23 22 20 19 19 19 17 18 20 19 12 15 12 15 5 5 10 19 24 31 34 30 34 33
22 22 21 21 20 17 14 16 12 6 2 1 1 3 7 3 7 5 6 8 13 19 21 16 18 17 20 18 23 13 18 17 17 18 14 14 14 8 21 20 25 35 30 34 33
22 22 22 20 18 15 13 10 7 3 2 2 1 3 7 4 1 4 5 11 11 17 18 16 18 20 13 16 15 15 15 20 20 21 18 19 5 4 17 20 24 29 36 34 33
23 22 21 20 15 11 10 9 6 4 4 6 8 9 9 2 0 3 5 9 14 17 14 17 15 14 14 14 16 17 18 19 18 18 21 20 12 14 28 12 31 27 35 34 35
24 23 21 17 12 6 6 8 5 4 11 14 2 8 3 2 3 3 6 9 16 13 15 22 12 16 20 21 21 20 21 19 17 19 13 11 20 14 12 17 13 29 35 35 34
25 22 19 14 7 1 6 7 5 7 11 17 10 7 2 4 5 4 8 11 14 14 16 13 19 19 19 20 20 21 21 20 17 20 15 14 15 14 19 15 8 28 33 38 38
24 21 15 8 1 1 3 5 7 6 7 14 12 12 5 6 9 9 9 14 13 16 18 20 14 23 21 19 19 19 20 18 17 16 18 16 14 13 12 8 16 31 32 35 42
22 18 11 1 1 5 2 7 7 5 5 13 10 6 6 6 7 4 5 9 13 16 18 20 22 19 20 22 19 19 16 19 19 18 14 18 10 11 13 15 22 30 34 35 38
19 14 5 3 4 9 7 8 6 3 5 11 10 4 2 11 8 10 4 8 12 12 10 16 20 20 21 17 21 18 18 15 16 18 19 23 13 11 24 16 18 26 31 39 38
17 10 2 3 5 5 9 8 2 6 3 6 5 7 11 10 6 4 6 8 10 10 14 15 21 15 19 20 16 16 18 17 18 15 16 21 19 16 19 20 17 32 43 43 41
16 4 1 3 5 11 9 7 6 7 10 8 6 7 9 12 6 6 9 11 9 9 13 16 18 18 13 15 19 17 13 12 14 14 18 19 19 14 14 26 21 18 41 39 43
13 1 3 1 8 10 6 9 7 4 15 6 2 2 6 7 8 4 4 9 11 7 13 14 12 22 18 17 15 18 19 14 17 15 18 20 20 17 23 30 41 46 36 29 43
4 1 5 5 10 6 10 8 8 11 16 9 10 8 10 8 4 2 8 13 5 8 9 9 14 15 13 21 17 21 19 21 23 22 15 17 17 23 20 21 31 27 23 32 26
5 2 1 10 6 4 8 6 8 14 11 8 8 8 11 3 10 5 6 7 1 7 9 10 14 16 16 8 12 16 18 17 15 21 24 18 20 14 19 17 18 19 29 37 41
3 5 4 8 2 11 8 6 8 11 11 9 11 11 10 10 11 9 8 5 4 4 3 9 9 16 18 13 12 13 15 18 17 16 18 16 16 16 12 21 19 21 29 22 17
7 3 12 5 9 2 10 9 4 10 4 5 3 5 6 9 11 13 8 4 9 11 8 10 8 12 18 18 21 14 20 19 14 18 15 16 18 22 11 7 19 22 37 42 48
10 6 11 10 6 7 4 8 9 12 10 9 6 7 8 7 5 7 9 8 10 3 6 8 8 12 16 15 17 20 18 20 20 19 21 16 14 24 18 11 12 21 19 20 43
8 3 9 14 15 11 6 9 5 10 11 12 10 7 7 6 6 6 6 4 1 7 5 4 12 17 15 16 15 12 14 19 21 16 17 20 23 22 16 6 14 12 10 15 24
9 7 6 9 10 9 12 13 11 9 12 6 0 4 9 9 12 9 10 10 9 9 8 7 15 17 21 24 19 20 19 18 19 24 21 20 23 22 7 23 14 30 27 12 19
10 8 10 11 8 7 4 8 8 10 6 6 11 14 11 12 10 13 18 11 11 12 7 13 15 16 20 20 18 22 23 20 20 22 22 28 25 20 20 22 32 21 32 24 10
8 5 4 3 10 7 8 9 7 6 5 7 10 10 9 12 15 19 20 20 16 14 12 11 10 9 18 20 16 19 20 21 19 21 20 21 19 17 15 10 20 21 22 35 19

GFSSW_850_spd_072.txt.gz
Wind_Speed
19 19 19 19 19 18 17 15 14 14 13 12 12 12 14 11 12 12 17 9 15 9 17 14 12 16 15 12 16 4 1 2 4 4 3 3 8 11 8 27 11 8 28 47 46
21 20 19 19 19 18 17 15 15 15 15 13 13 13 12 13 15 18 8 14 20 12 17 15 17 19 7 13 7 7 4 4 2 8 4 3 1 11 3 25 11 14 34 45 43
22 21 21 19 18 19 17 15 15 16 15 13 12 11 10 11 11 4 3 14 19 17 12 13 11 14 9 12 14 7 7 6 6 8 11 4 6 13 7 11 23 35 39 41 40
21 22 21 21 20 18 18 16 15 16 15 12 11 8 9 6 2 2 6 6 15 16 16 19 15 7 6 7 18 6 21 22 16 8 9 9 15 8 10 7 21 46 54 46 40
21 21 20 20 21 20 18 16 14 16 14 10 7 8 8 5 7 1 4 3 13 16 20 22 16 9 4 7 19 12 17 20 19 12 16 17 14 20 13 8 19 34 43 44 40
22 22 21 20 19 20 18 16 14 15 11 7 8 8 3 3 2 1 6 2 13 20 21 25 14 19 7 14 9 11 13 17 16 23 17 16 12 11 10 6 28 31 31 35 37
22 22 21 21 20 19 18 15 14 12 8 6 4 2 5 5 2 2 5 2 0 14 22 26 21 4 5 8 22 17 6 9 16 20 7 29 9 2 6 12 28 28 27 28 34
23 23 22 20 21 19 16 14 12 10 6 4 2 5 6 4 7 11 7 7 4 1 16 21 17 14 12 12 10 5 3 4 6 15 16 6 4 11 16 22 19 22 28 28 30
25 24 23 20 20 18 14 11 10 9 5 3 3 5 6 4 5 7 13 12 12 6 8 14 6 9 8 3 5 7 2 6 9 21 11 3 7 15 26 35 26 28 31 31 30
25 25 23 21 17 16 9 10 7 7 5 4 7 6 5 2 8 7 7 8 17 11 10 5 6 1 4 4 3 2 3 5 5 6 9 8 7 18 23 29 32 35 33 32 34
24 23 23 19 14 10 4 4 4 3 6 8 5 6 6 5 3 7 9 5 18 13 4 6 4 4 8 6 6 4 3 9 16 13 4 16 17 22 25 18 21 24 26 33 34
23 23 20 15 7 3 7 7 8 6 8 14 18 20 14 9 2 8 7 4 7 4 3 4 5 9 6 6 7 7 7 11 12 4 5 6 9 13 19 19 28 34 34 32 29
23 22 17 7 6 4 9 6 9 10 2 11 11 11 10 9 3 10 13 7 3 5 7 6 9 9 8 7 6 6 6 10 11 2 7 12 5 5 4 11 14 29 45 39 38
23 19 12 6 5 10 13 9 12 4 4 6 5 2 8 5 2 12 11 2 1 9 6 5 16 9 8 10 5 6 7 11 8 3 3 4 4 7 10 6 15 27 28 32 31
20 15 5 2 5 11 12 8 7 4 3 4 3 7 6 6 6 4 2 1 1 2 4 7 5 7 8 11 8 12 12 8 2 3 3 3 4 4 13 11 18 25 39 30 37
16 11 2 4 4 11 11 7 6 5 3 4 4 3 4 1 1 7 1 3 2 1 2 6 5 4 7 6 6 12 6 7 5 3 2 5 5 3 7 25 18 27 30 36 46
10 4 3 3 5 9 8 7 4 3 7 3 4 4 4 5 3 5 3 1 2 3 2 5 4 3 3 3 6 3 7 3 4 3 5 5 4 7 13 11 20 31 38 35 41
4 8 7 8 8 10 15 4 8 9 5 5 5 3 5 4 2 3 3 4 5 2 4 4 4 8 8 1 4 3 8 5 6 3 3 7 3 5 9 25 28 37 39 39 39
3 3 4 10 9 9 7 6 2 4 5 9 8 7 10 7 5 4 8 7 5 7 6 3 3 5 4 6 5 4 2 6 4 1 4 3 8 9 3 8 14 20 31 38 39
4 4 9 11 7 6 6 6 4 6 7 6 7 7 8 9 7 6 6 9 4 9 5 3 3 3 7 9 13 8 5 4 3 2 3 5 4 5 12 14 6 7 21 25 36
3 5 16 5 4 2 3 3 6 19 20 7 6 6 5 5 6 7 6 9 7 6 16 5 4 7 4 6 3 7 8 6 1 4 4 2 5 4 7 5 10 11 29 32 39
7 5 23 7 8 3 3 3 9 12 20 8 8 7 5 6 7 5 6 4 12 5 4 5 3 4 3 6 3 4 6 5 4 7 1 4 4 5 7 9 18 27 13 22 30
5 8 26 9 4 5 5 12 16 8 9 6 10 8 7 7 5 5 6 13 10 5 3 4 4 4 11 7 8 7 10 5 3 3 2 3 5 13 19 17 20 24 17 15 23
5 4 11 24 21 6 4 9 5 18 16 12 8 12 8 9 8 6 8 14 19 13 12 7 4 5 4 4 4 7 12 8 5 2 5 3 14 13 15 13 18 23 36 6 33
8 3 7 3 8 11 9 4 8 6 10 21 7 10 5 7 6 6 8 7 8 19 7 5 2 4 3 6 8 10 13 12 6 4 2 7 7 10 10 8 13 16 38 33 15
5 5 10 12 17 14 7 5 6 4 4 4 5 6 10 5 2 3 5 5 2 9 7 5 1 4 5 7 8 9 11 12 11 6 5 6 5 12 16 21 21 21 20 26 21
10 10 3 5 4 5 3 4 4 3 12 10 7 4 6 3 9 10 11 8 9 0 3 1 3 2 2 4 5 7 5 4 11 6 3 3 3 14 12 18 23 25 20 16 17

GFSSW_850_spd_075.txt.gz
Wind_Speed
19 19 19 18 18 16 16 15 13 13 13 13 12 12 12 11 10 12 14 9 18 16 20 20 16 13 18 12 8 3 1 3 4 4 4 6 7 5 7 12 5 3 20 39 39
19 19 19 18 18 18 17 16 14 13 14 14 13 11 12 11 13 15 7 14 21 15 26 22 21 19 10 7 5 3 2 4 1 6 7 11 6 6 5 17 5 20 36 40 39
21 20 18 18 18 17 17 17 15 14 14 13 12 10 9 10 10 2 2 18 22 20 19 16 19 17 5 5 8 5 3 2 3 9 9 10 10 3 7 9 7 36 42 38 38
20 20 19 19 17 17 17 16 17 14 14 13 10 8 6 6 1 2 6 16 25 21 19 18 20 11 6 6 13 4 8 14 6 6 9 12 12 10 6 4 7 31 45 45 40
20 20 20 18 18 18 16 15 15 15 14 11 7 7 7 5 5 2 4 12 23 23 22 21 19 9 5 5 8 7 9 14 17 17 9 16 7 6 7 3 13 28 32 32 36
22 21 20 19 18 18 17 15 14 13 13 9 7 6 3 3 6 5 3 10 20 25 24 24 17 20 5 4 3 6 7 16 20 18 16 10 6 4 6 5 13 28 32 29 31
23 23 21 20 20 17 17 15 12 11 10 7 3 3 6 4 5 6 3 4 7 21 25 26 11 12 1 4 5 16 9 8 10 14 7 21 3 4 8 8 18 27 31 32 29
24 23 22 20 20 19 16 14 11 8 7 5 3 4 6 4 7 10 7 5 4 10 15 20 21 5 3 6 6 3 3 4 3 8 16 2 3 5 12 16 22 29 30 31 32
23 23 23 20 19 17 14 10 9 7 5 4 4 4 5 6 9 7 10 6 5 7 11 7 14 6 2 1 4 6 1 1 2 4 7 4 5 15 25 31 27 34 34 32 34
22 22 22 20 16 14 7 9 2 4 4 4 5 4 4 3 7 10 9 9 8 9 6 7 7 3 3 4 4 2 1 1 2 4 3 9 4 13 18 20 26 30 32 35 35
23 23 20 17 11 5 6 4 2 2 5 6 1 6 5 5 8 9 9 14 10 11 4 6 4 5 7 7 6 2 3 3 3 5 4 10 8 16 15 11 17 23 29 33 38
24 23 19 12 4 5 7 5 9 4 7 11 11 15 13 9 4 9 12 7 8 4 4 5 4 8 4 3 5 3 5 3 6 2 4 5 1 9 14 12 13 21 29 33 35
23 21 15 6 6 6 11 14 10 4 1 7 9 9 6 3 3 6 11 8 5 4 5 5 5 4 4 3 3 3 6 3 5 3 6 9 5 6 9 11 14 21 24 29 33
20 17 8 4 5 8 10 8 7 2 4 5 5 4 5 5 0 9 11 4 2 8 6 4 4 5 5 5 6 5 7 5 4 2 2 3 2 6 7 8 16 22 30 29 32
16 11 3 3 4 7 7 5 3 2 4 1 2 6 9 3 3 5 8 4 5 3 6 6 2 5 5 9 7 9 6 6 4 2 2 1 4 4 11 15 17 23 29 29 30
11 7 2 1 2 8 8 4 1 5 3 3 2 3 5 2 2 4 3 4 3 4 2 5 3 5 8 7 9 7 3 5 5 4 2 5 5 4 5 15 13 20 29 33 41
6 7 4 3 4 8 12 1 5 4 7 7 3 2 3 2 1 3 3 6 2 3 0 4 2 5 6 0 3 5 6 2 2 2 5 2 4 7 10 12 13 23 35 41 45
6 6 5 7 7 10 10 5 9 4 4 5 4 4 5 1 1 4 4 4 7 5 3 3 2 7 8 2 1 2 7 5 5 4 4 1 5 1 3 13 24 24 30 30 36
5 7 10 8 10 13 2 6 2 4 5 7 3 7 7 6 4 5 5 6 6 5 5 2 1 4 2 6 1 3 5 1 7 4 3 1 5 4 12 17 20 14 23 33 39
7 8 21 6 8 11 7 5 3 8 5 5 5 5 7 8 5 5 6 5 5 10 1 1 2 2 5 7 10 7 3 4 4 4 3 4 5 6 14 15 13 14 13 27 32
7 4 26 6 8 9 4 2 4 15 10 7 5 5 3 4 4 4 4 3 6 7 10 2 3 5 3 7 6 8 6 5 4 4 5 3 2 9 8 7 12 13 19 22 34
16 4 21 10 7 4 3 5 7 13 17 8 5 5 4 7 7 5 5 8 20 5 4 4 5 4 4 6 6 15 5 4 4 6 2 1 4 6 13 12 15 21 29 14 29
7 17 25 4 4 3 4 5 12 11 7 6 7 7 6 6 6 6 6 13 22 8 3 4 4 3 4 6 8 7 6 5 5 3 2 1 3 11 21 20 21 25 32 25 17
4 4 11 25 9 5 3 6 4 14 11 8 7 6 6 8 9 4 4 8 14 15 15 7 4 4 5 3 3 3 5 6 5 4 3 4 5 13 18 20 25 27 30 27 11
7 3 3 3 8 7 6 3 4 5 7 16 6 9 2 5 3 4 6 6 8 17 8 5 4 3 3 3 3 3 3 5 4 3 4 6 6 6 12 15 22 22 28 28 26
5 4 8 5 4 8 6 3 4 4 4 4 5 5 7 4 3 0 2 2 1 8 5 5 2 2 4 4 5 1 3 5 6 4 1 3 3 5 14 20 28 28 24 26 27
11 7 2 6 3 4 2 2 2 3 8 5 4 3 2 2 2 4 5 4 1 1 3 3 3 3 3 5 6 5 4 4 2 1 4 5 1 5 5 13 19 25 28 27 23

GFSSW_850_spd_078.txt.gz
Wind_Speed
19 19 18 16 15 15 15 15 15 13 13 12 11 10 10 10 11 12 13 8 17 22 21 19 15 13 15 11 5 3 1 1 1 2 4 2 2 6 9 8 3 4 18 27 41
19 19 18 17 16 15 14 14 14 14 13 13 12 10 9 9 11 15 8 14 21 23 26 25 20 17 8 5 4 2 1 2 1 5 5 9 9 5 7 9 7 19 28 37 38
20 20 19 18 16 16 15 14 14 14 13 14 11 9 8 6 9 0 2 16 23 22 24 22 17 16 4 4 5 3 3 2 5 11 13 9 5 7 4 3 7 28 35 39 38
20 20 19 18 17 16 15 15 15 13 12 12 10 6 5 3 1 2 2 19 24 23 26 20 21 11 4 4 5 2 8 9 5 10 9 8 16 9 8 7 8 33 40 40 38
21 21 20 19 18 17 15 14 14 13 10 11 7 6 5 3 2 3 8 22 25 27 26 23 26 8 5 5 3 4 8 12 15 11 9 14 10 5 11 10 21 30 35 37 36
22 22 21 20 18 17 16 14 13 12 9 8 7 4 2 1 5 6 6 20 25 25 25 23 18 11 8 2 4 4 10 17 13 6 14 10 8 8 10 16 28 30 32 35 36
23 22 21 21 19 17 15 15 12 10 8 6 4 3 4 4 5 7 7 11 21 22 24 22 7 11 2 2 4 5 3 4 8 7 5 19 6 4 18 20 28 31 29 33 33
22 21 21 20 20 18 14 12 11 6 7 5 2 4 3 8 7 11 10 10 16 18 17 19 11 7 2 5 5 3 3 3 3 4 8 3 3 7 16 21 26 31 29 32 31
22 21 20 19 18 16 11 8 6 5 4 5 3 3 2 9 10 12 9 8 12 14 12 14 14 3 1 2 4 5 3 2 3 3 5 1 1 3 14 21 25 28 32 31 31
22 21 20 18 14 10 5 4 2 4 6 4 4 2 3 4 5 9 15 9 11 15 9 7 6 3 3 3 4 3 4 2 2 5 1 6 4 4 12 7 16 23 27 31 32
23 21 19 15 9 4 4 4 4 2 5 5 2 4 2 5 9 12 17 16 15 13 4 5 4 6 7 6 4 3 4 0 2 3 3 3 4 8 14 11 13 21 27 30 33
22 19 15 8 4 8 14 7 7 5 7 7 10 15 10 2 4 13 15 10 8 5 5 4 5 7 5 4 4 2 5 2 3 0 4 2 2 3 11 7 8 18 22 28 31
19 15 7 5 6 6 8 15 11 3 2 5 5 8 3 7 4 14 18 10 7 5 5 6 5 7 5 4 3 1 5 3 3 4 3 4 3 3 7 6 10 9 20 24 31
15 11 3 3 3 5 7 9 8 4 4 2 4 3 6 4 2 8 15 9 3 8 9 4 2 7 4 3 5 1 7 5 2 2 1 2 3 3 7 8 11 18 19 26 28
12 7 1 2 2 4 8 9 6 3 4 1 3 5 7 5 8 4 10 5 8 5 5 6 6 4 3 6 7 6 6 6 4 3 3 3 4 4 3 7 12 24 27 26 34
12 8 3 1 3 9 9 6 3 5 3 5 3 2 4 3 2 6 5 6 5 5 3 3 1 3 7 6 8 5 5 8 5 3 2 2 4 5 3 4 4 18 26 31 33
12 12 9 6 7 9 13 0 4 5 5 7 4 5 3 3 4 5 5 8 3 5 1 4 3 5 5 2 3 5 6 2 3 2 5 5 4 2 7 10 10 16 26 32 32
9 12 13 8 10 12 4 5 8 3 3 4 4 3 5 5 8 7 4 5 6 5 4 4 3 5 9 3 2 4 7 5 5 5 4 2 6 1 5 14 21 29 16 26 30
8 10 18 11 13 10 5 6 1 3 5 6 3 7 6 5 5 6 4 3 3 4 4 5 0 5 4 4 2 3 4 3 7 2 4 1 6 4 20 19 29 29 26 11 24
8 5 22 14 14 8 7 4 3 4 6 3 4 3 4 7 4 5 5 5 7 7 3 1 5 3 5 6 8 7 1 3 4 4 3 3 4 4 16 17 19 24 27 25 16
6 3 22 12 11 13 4 3 4 14 8 6 4 5 4 3 5 4 5 1 9 6 11 2 4 4 5 8 5 6 5 6 5 3 5 4 2 5 8 12 14 23 32 33 20
9 3 20 8 8 4 3 4 8 11 18 7 4 5 5 7 6 4 4 4 21 3 4 4 5 5 2 5 5 4 3 3 4 3 2 3 3 7 7 15 20 24 29 35 22
4 11 19 4 4 3 4 5 8 10 7 7 7 7 5 4 5 4 4 8 20 6 2 1 3 4 4 5 5 6 5 3 4 3 1 4 4 6 14 19 24 24 27 34 31
4 4 10 22 8 5 3 4 4 13 6 7 6 5 5 8 8 3 4 5 13 13 13 6 4 3 6 4 3 4 4 4 3 3 5 3 1 5 9 11 21 27 26 27 33
6 3 3 3 8 6 4 3 4 6 7 16 5 7 3 4 4 4 5 6 9 16 7 5 4 3 4 5 3 3 2 3 3 1 3 7 4 1 4 7 13 19 28 28 28
4 4 5 4 3 6 5 4 5 4 5 5 5 4 6 5 2 2 2 4 1 7 4 4 3 3 2 3 3 3 6 7 5 3 4 2 3 3 2 8 19 23 26 28 27
10 7 3 5 3 3 2 1 2 2 7 6 3 3 5 2 3 1 2 1 1 2 3 3 4 3 3 2 1 2 0 3 2 2 2 3 1 6 5 11 15 17 19 22 24

GFSSW_850_spd_081.txt.gz
Wind_Speed
17 17 16 15 14 13 11 10 9 12 9 9 10 8 8 9 9 10 11 7 15 23 21 21 16 15 12 7 3 2 2 4 3 2 5 3 4 10 6 6 4 6 9 22 32
17 17 17 15 14 13 13 13 11 9 10 9 10 8 7 7 9 12 7 11 21 26 27 25 19 17 7 5 2 2 1 3 3 6 8 10 9 11 0 2 9 12 21 30 32
18 18 17 16 15 14 12 11 13 12 8 8 9 7 6 5 6 2 3 16 24 28 24 23 19 12 6 5 4 1 2 1 4 10 16 12 10 10 6 5 8 23 31 33 31
19 18 18 17 15 14 13 13 10 12 12 6 6 5 3 2 2 1 4 18 25 29 25 22 17 12 6 6 6 3 6 6 3 8 6 9 15 10 7 4 6 23 31 34 32
21 20 18 17 16 15 14 12 13 9 10 9 3 4 4 3 2 2 9 21 25 27 27 20 21 10 8 6 4 8 5 5 6 7 5 14 10 6 8 5 15 26 29 30 29
20 18 18 17 16 14 13 13 10 10 6 7 5 2 2 2 3 4 12 22 24 27 27 19 14 8 9 5 6 3 8 11 7 7 10 10 7 6 9 12 21 25 28 27 26
20 19 18 18 16 14 12 11 10 8 6 3 5 3 3 2 7 9 14 21 23 25 25 17 14 5 7 4 2 4 4 3 6 11 5 17 7 3 17 18 22 25 26 25 24
21 21 19 19 18 14 11 9 8 6 5 4 2 4 3 7 10 12 13 20 20 18 18 17 12 5 1 3 1 3 2 2 4 6 9 6 8 10 19 23 22 24 26 25 25
22 21 20 18 16 12 8 5 3 3 4 4 5 2 1 9 11 15 14 16 18 14 11 13 8 5 2 2 4 1 5 5 4 4 6 3 7 15 19 23 25 26 26 26 25
22 20 18 16 13 6 3 5 6 5 6 4 4 2 4 5 10 17 12 17 18 19 8 7 4 5 3 5 8 8 6 4 5 6 4 5 5 11 14 18 24 25 24 27 26
20 18 16 11 6 5 5 5 3 2 6 5 4 3 2 3 10 18 17 12 17 15 6 8 7 13 12 7 3 5 6 7 3 3 2 5 6 11 15 8 20 23 25 26 27
19 15 9 7 10 13 12 5 5 3 5 7 11 8 8 5 7 18 23 7 14 12 11 7 13 9 8 5 4 4 4 4 3 4 2 4 5 8 15 12 16 22 25 25 27
15 9 5 6 7 4 8 13 11 2 2 3 4 5 4 11 9 16 26 11 15 10 11 12 7 12 9 7 8 4 5 3 3 1 4 4 5 7 8 12 9 18 24 23 26
11 5 3 3 3 3 5 12 10 2 2 2 4 3 8 7 5 16 23 11 5 12 11 6 6 15 10 9 8 9 7 4 2 1 2 2 3 3 7 12 12 14 20 24 27
12 7 3 1 2 4 7 11 6 2 2 5 3 6 7 3 15 6 16 6 11 9 5 5 12 15 11 10 8 2 5 5 2 2 2 3 3 6 3 3 10 17 18 19 27
16 13 8 4 4 7 8 8 1 3 4 2 3 3 5 3 3 7 4 5 5 6 3 4 3 4 6 8 11 10 7 5 4 1 5 5 3 8 5 8 8 11 21 26 26
12 14 9 6 7 11 10 2 2 3 5 7 4 4 8 6 6 4 5 6 2 9 10 4 3 2 4 8 8 7 8 5 6 5 5 4 5 5 8 11 13 16 14 21 27
7 17 13 11 11 7 3 1 6 3 4 4 4 5 5 5 7 7 4 4 10 3 3 7 6 5 9 2 5 13 12 5 9 9 7 2 8 6 9 12 15 19 19 4 14
6 8 19 15 13 6 3 6 3 4 6 8 3 4 4 4 5 5 7 5 6 8 1 4 4 1 9 7 3 6 8 2 5 1 9 4 4 7 14 16 23 26 25 18 6
6 4 22 13 11 8 6 5 3 8 7 3 3 4 4 4 4 4 5 5 6 9 3 2 6 7 6 2 10 3 4 6 3 10 11 4 3 3 15 18 19 24 26 23 15
7 2 19 6 8 13 4 4 3 10 7 6 4 3 6 4 6 4 4 3 8 7 6 1 1 3 1 7 7 2 3 3 3 3 6 7 4 5 8 11 13 20 24 26 25
6 2 20 8 7 4 3 3 6 11 11 7 5 8 5 6 6 4 4 5 16 5 4 4 4 5 4 2 3 5 3 2 7 6 2 1 5 5 6 10 13 19 23 26 27
5 9 18 5 4 4 4 4 9 11 9 7 7 8 6 4 5 4 3 6 14 6 3 2 3 5 3 3 2 4 5 3 2 0 4 6 5 5 8 12 16 18 21 25 26
4 3 11 18 8 4 3 4 3 8 9 8 6 3 3 6 8 4 3 5 8 9 12 3 4 3 1 4 2 2 4 5 3 3 7 3 11 5 8 11 15 18 19 21 24
7 3 3 4 8 8 4 3 4 4 5 12 6 10 4 3 3 4 3 3 8 12 5 4 4 6 8 6 2 1 2 4 5 4 2 9 8 6 6 9 12 13 16 20 23
5 3 6 4 2 6 5 4 7 4 6 6 7 9 8 5 4 3 2 4 3 7 4 3 4 5 3 3 3 3 5 5 2 1 3 4 5 4 6 7 10 14 16 19 20
11 7 4 5 3 2 3 2 3 2 7 8 5 6 9 7 5 5 6 5 4 3 3 2 5 2 4 2 2 5 4 5 1 2 1 4 5 4 4 6 10 11 13 15 16

GFSSW_850_spd_084.txt.gz
Wind_Speed
14 14 14 13 12 11 10 10 11 11 8 6 6 8 9 7 8 9 11 8 15 20 21 17 14 13 12 9 4 4 2 5 6 3 8 7 5 5 7 9 5 5 9 29 30
15 15 14 13 13 11 11 11 9 8 11 9 5 6 7 7 7 11 6 12 18 23 23 22 19 16 12 9 3 4 0 8 9 9 9 10 8 11 6 9 5 10 19 31 31
15 14 14 14 12 12 10 10 11 10 6 10 10 4 3 4 3 2 7 15 21 25 19 17 16 15 10 8 7 3 2 3 11 11 11 11 13 11 7 7 9 19 26 33 31
16 16 14 13 13 12 11 10 10 10 9 5 8 7 4 2 1 2 6 15 23 24 21 18 18 15 11 9 8 5 2 2 7 4 5 7 13 9 10 5 6 17 30 34 31
16 15 15 14 13 12 11 10 10 9 9 7 5 6 4 5 2 5 7 19 26 23 23 21 19 14 12 9 7 9 4 1 2 4 2 10 8 9 10 7 15 24 32 31 29
17 17 15 15 14 13 11 10 9 9 8 7 4 2 5 8 2 1 14 21 22 23 21 17 14 10 10 10 9 4 5 4 4 6 7 6 13 8 9 16 20 27 30 29 26
17 17 17 15 14 13 11 10 8 7 7 5 4 6 5 2 5 11 16 16 19 20 21 16 10 12 7 7 8 6 7 7 6 11 8 12 10 8 17 17 23 27 27 26 24
18 18 17 16 14 11 9 8 6 6 6 4 4 7 2 6 10 15 16 16 14 17 16 12 12 8 10 3 9 11 10 9 10 10 8 5 9 17 19 21 22 25 25 24 23
18 17 16 15 12 7 5 3 3 5 6 4 3 3 7 9 12 14 16 16 15 13 14 10 13 11 8 12 11 10 11 10 10 3 9 10 13 13 18 18 20 24 25 24 22
17 15 14 12 7 3 3 6 6 6 6 5 4 5 7 11 15 14 15 16 16 14 14 12 11 9 11 12 14 15 11 12 12 8 11 6 12 16 18 17 20 22 23 24 23
14 11 9 6 5 4 7 5 3 4 8 4 4 2 17 13 17 14 16 17 15 15 11 17 11 16 17 17 7 12 11 12 10 8 7 7 13 14 18 16 15 21 22 25 24
11 8 6 8 11 11 7 3 4 2 4 9 8 6 8 15 13 19 20 13 17 16 13 10 16 14 12 8 9 11 12 14 10 6 6 9 10 14 17 13 19 19 21 24 26
11 6 6 6 3 1 5 4 8 2 6 6 7 8 10 15 15 26 21 10 17 16 16 14 12 12 14 13 13 13 14 11 13 6 3 12 8 10 15 17 14 18 18 22 27
12 4 3 2 1 1 1 10 9 3 6 7 9 9 11 12 15 24 20 14 8 15 15 11 7 17 17 16 16 16 5 6 9 10 10 14 7 6 6 7 8 12 18 18 25
15 9 1 1 2 3 6 10 6 3 5 5 9 8 15 14 23 19 20 8 12 10 10 10 15 18 17 16 14 5 10 10 8 10 4 13 7 8 9 9 11 14 14 21 20
12 9 4 3 4 6 8 10 2 7 4 6 4 11 15 12 11 19 16 10 5 11 14 6 14 15 12 10 13 8 10 9 8 9 11 10 11 6 5 4 3 3 10 22 23
7 12 6 4 4 9 5 3 6 3 3 4 4 12 15 13 11 19 15 12 8 13 13 11 11 4 4 14 13 14 16 10 11 9 9 12 7 11 8 6 6 6 6 12 27
6 8 11 10 7 2 4 8 2 3 6 2 1 9 11 13 10 11 13 10 5 8 14 12 11 6 2 7 12 19 18 10 13 13 12 6 9 8 8 8 11 12 10 6 17
9 7 8 10 6 4 8 2 5 4 5 6 7 11 11 7 8 9 6 5 5 8 4 11 6 5 3 1 5 19 15 6 6 11 9 13 13 13 8 11 15 17 16 10 2
8 4 9 9 7 1 1 5 4 8 6 4 4 4 10 9 10 7 4 5 3 7 5 2 9 2 3 3 1 7 9 10 9 14 14 10 16 10 7 10 13 17 20 20 13
5 6 8 5 7 2 4 5 6 8 6 6 3 5 8 6 7 3 3 7 6 4 3 2 5 8 6 2 2 6 11 10 8 5 14 10 8 7 9 8 10 15 18 21 23
4 3 14 3 1 3 6 4 2 5 5 4 5 6 6 4 6 4 5 6 9 5 2 3 3 9 8 6 1 3 5 9 11 12 6 6 7 6 11 8 10 15 18 20 22
3 7 11 2 3 7 7 9 12 8 9 4 5 7 2 4 5 7 6 5 6 4 4 4 4 8 9 8 5 4 1 4 8 8 13 10 9 10 12 13 12 14 17 20 22
1 1 9 13 7 6 6 6 6 9 13 9 5 3 4 7 4 9 9 5 6 7 5 4 1 6 1 7 4 7 3 1 8 11 9 4 19 13 11 10 13 14 16 18 21
5 5 3 3 8 8 7 4 6 4 6 8 5 7 3 4 8 6 5 10 8 4 3 3 3 2 7 6 4 2 2 2 1 5 5 18 17 13 10 10 11 13 14 17 19
3 3 7 7 3 6 3 8 8 7 6 7 8 8 4 7 6 7 7 2 4 2 2 1 3 3 1 2 1 4 4 2 2 4 7 11 14 11 11 11 10 11 12 15 17
8 6 2 2 3 3 6 4 6 5 9 9 4 5 9 8 8 7 6 5 5 3 2 1 5 6 5 2 3 8 11 7 6 4 6 9 14 10 9 8 8 9 11 13 14

GFSSW_850_spd_087.txt.gz
Wind_Speed
13 13 13 13 12 12 11 10 9 8 8 10 11 10 7 8 9 11 12 10 17 16 19 14 17 13 12 11 6 7 3 4 5 6 11 18 8 2 4 10 4 4 27 31 31
14 14 14 13 13 13 12 11 10 9 9 7 9 11 8 8 8 16 14 17 16 20 19 21 18 16 16 14 5 5 2 7 8 11 13 14 10 9 4 10 11 15 28 31 30
15 15 14 14 14 13 12 12 11 9 9 9 6 9 7 6 7 4 16 15 18 22 17 17 15 17 17 11 7 5 4 2 12 14 15 15 14 8 7 8 15 22 32 32 29
14 14 12 13 14 13 13 12 11 10 9 8 8 4 5 5 2 4 10 16 19 23 19 18 17 18 14 12 9 5 10 8 7 8 9 11 15 11 6 6 10 20 30 31 28
14 14 15 14 13 13 13 12 12 10 8 7 7 4 5 7 10 7 8 14 22 23 21 20 20 19 15 13 14 5 12 3 4 8 13 12 13 14 12 8 12 21 30 30 27
17 16 15 15 14 13 12 12 11 10 8 7 5 5 5 13 3 5 10 19 24 22 21 19 17 17 12 10 8 11 9 2 3 8 11 13 15 12 9 12 16 27 32 29 25
17 17 16 15 14 13 12 11 9 9 8 6 4 6 9 6 2 6 14 19 23 21 21 18 13 12 12 10 13 3 10 8 7 11 10 17 11 12 13 17 23 27 30 27 24
17 16 16 15 13 12 9 8 7 7 6 5 5 4 7 6 7 11 14 17 19 18 17 15 12 15 10 5 12 13 13 11 12 13 8 9 10 18 15 17 25 28 27 24 23
17 15 14 13 11 8 4 3 1 3 5 6 3 8 7 8 13 13 15 18 19 16 15 13 12 18 15 11 14 14 14 16 12 8 12 8 17 20 19 20 21 24 25 24 22
16 14 12 8 5 3 5 5 6 6 5 7 5 8 11 16 16 14 15 16 18 18 13 14 14 14 12 14 16 18 18 19 10 10 13 13 19 19 20 21 20 24 22 23 23
11 9 6 5 5 5 4 3 2 5 11 8 11 9 11 18 17 15 17 18 17 19 14 19 14 17 20 21 21 16 15 13 11 15 10 11 19 19 20 21 22 23 20 19 23
9 5 4 7 8 7 6 5 6 6 9 14 6 3 9 18 19 17 19 18 17 16 19 13 18 17 17 16 14 19 19 18 4 10 8 14 17 16 20 17 20 20 22 21 24
10 4 3 2 3 4 3 4 7 6 8 13 13 16 14 21 18 21 24 18 19 19 20 15 15 15 14 16 15 18 16 14 11 9 14 13 17 19 10 10 11 19 19 23 24
14 3 2 2 1 3 3 5 7 5 6 12 13 11 21 20 16 21 24 13 13 20 18 15 9 14 12 17 18 17 17 19 20 14 12 18 9 18 22 13 16 13 12 18 21
11 8 2 4 6 8 7 8 6 3 6 14 16 14 17 24 21 21 22 16 15 14 13 16 13 13 18 17 19 13 9 6 10 16 11 21 9 12 18 16 16 20 19 22 23
8 6 4 5 7 5 7 7 4 8 2 8 10 14 19 22 17 25 21 11 11 13 14 12 13 15 18 16 17 4 18 13 12 14 13 14 11 13 15 15 16 13 17 20 24
5 9 9 5 7 10 7 7 8 4 8 9 10 16 20 15 18 20 19 16 12 14 15 7 16 16 12 16 13 9 13 11 11 13 11 18 7 8 13 6 9 8 12 17 22
9 10 10 10 8 8 6 12 1 12 8 2 5 12 18 17 18 20 19 17 10 17 16 12 15 10 13 15 14 18 21 13 13 14 14 11 11 10 13 11 11 11 5 7 22
9 6 4 8 8 6 12 9 8 8 6 6 6 17 12 16 11 17 13 12 6 5 8 14 12 10 4 14 8 18 20 25 15 17 14 13 15 13 13 13 15 8 7 12 6
5 7 5 7 7 7 11 2 7 6 1 13 14 12 11 12 12 16 8 4 3 4 10 10 13 14 10 9 14 12 15 19 10 14 16 16 18 13 14 12 8 11 12 15 12
5 9 1 6 7 18 3 11 7 7 2 7 20 6 14 4 8 6 3 7 4 7 9 10 3 11 9 14 17 11 12 15 14 15 12 13 9 18 14 11 10 11 13 15 16
6 5 9 3 13 4 8 5 2 3 2 1 6 9 8 5 1 4 6 8 4 8 10 6 7 11 17 5 4 11 11 17 11 18 14 5 10 15 14 19 16 13 13 14 15
4 5 6 5 6 6 6 8 9 2 5 3 3 6 5 15 7 9 8 2 4 4 5 3 10 7 6 7 8 11 12 10 15 16 12 15 11 16 12 20 19 16 15 16 17
5 2 6 7 6 6 4 3 8 3 5 5 1 3 8 8 6 9 8 4 4 2 6 6 13 6 5 2 12 18 7 10 13 11 11 3 24 20 18 17 16 17 16 18 19
5 5 4 6 8 8 4 2 2 5 3 1 3 3 3 3 6 9 10 8 6 3 3 5 9 5 5 6 7 8 10 7 15 17 9 18 20 20 16 17 19 16 16 18 19
3 2 6 6 1 4 2 7 6 6 9 5 4 1 4 4 8 7 5 7 5 3 3 4 6 7 7 0 0 5 7 5 5 4 8 18 17 16 19 16 15 15 15 15 15
5 3 5 3 2 5 7 5 5 3 7 6 3 2 7 7 6 6 5 3 3 6 3 5 4 7 13 5 5 10 12 11 7 5 9 17 18 17 15 16 14 13 12 12 12

GFSSW_850_spd_090.txt.gz
Wind_Speed
15 15 15 15 15 14 13 13 12 12 11 10 10 10 12 12 10 13 16 11 13 9 16 11 15 15 14 14 13 4 3 4 7 9 12 12 9 5 5 1 3 8 31 32 29
16 16 15 15 15 15 14 13 13 12 12 11 10 9 10 12 12 19 14 14 17 12 20 18 18 16 16 16 9 3 3 10 11 14 15 17 14 11 5 7 10 33 33 31 28
15 16 16 15 15 14 14 14 13 12 12 10 10 8 6 9 10 8 13 13 15 17 18 16 15 16 17 13 16 9 3 7 17 18 20 18 15 8 15 6 26 35 36 31 27
15 15 15 16 16 15 13 13 13 12 11 9 9 7 5 4 2 2 3 13 13 18 19 18 18 19 17 16 13 5 19 5 15 21 18 16 18 11 6 3 24 31 32 30 26
15 15 15 14 15 15 14 12 13 12 11 9 8 6 5 6 15 6 6 11 16 22 20 21 20 19 16 9 6 2 3 17 13 20 18 17 17 13 13 7 13 30 30 28 24
17 16 16 15 15 14 14 13 11 11 9 8 6 5 5 12 3 9 7 12 19 24 18 21 17 19 18 9 13 5 18 11 19 21 20 17 18 15 15 14 19 29 29 27 24
19 18 16 16 16 14 12 11 9 9 8 7 6 5 9 16 1 4 9 14 18 22 18 19 17 18 11 13 15 31 22 10 9 26 16 26 11 13 15 14 22 29 28 25 23
18 17 15 14 14 12 9 7 6 5 5 6 5 5 9 10 7 7 10 13 17 18 17 16 15 15 19 13 12 13 12 6 10 20 21 13 10 15 14 19 24 29 28 26 23
17 14 13 12 9 7 4 3 0 2 4 5 4 7 10 9 13 11 12 15 18 17 16 14 11 16 17 15 11 12 13 16 14 19 24 8 17 17 13 20 27 29 28 26 22
15 13 10 9 7 5 5 4 5 6 5 5 3 8 16 12 14 14 13 15 18 17 17 12 10 14 16 14 15 17 20 13 12 17 21 11 17 19 22 26 24 24 25 24 23
13 10 8 9 7 3 2 5 1 3 13 13 5 13 10 12 16 15 16 16 17 17 15 17 12 17 22 20 20 19 18 16 2 13 14 18 22 18 24 22 22 20 19 22 22
11 5 4 6 6 5 6 6 6 8 9 23 14 18 7 20 17 17 18 16 17 16 19 11 18 18 19 19 21 23 16 18 13 8 10 21 17 21 24 23 23 22 23 18 23
12 2 1 3 5 4 5 9 7 8 10 14 18 13 8 16 16 20 21 21 17 18 20 18 15 21 19 18 22 22 18 16 7 8 11 13 15 20 20 25 30 24 23 24 24
10 5 4 6 9 10 11 5 8 7 6 15 17 16 17 17 15 19 21 22 10 17 20 20 19 19 17 20 17 19 12 13 12 16 13 24 9 19 22 17 21 25 23 26 26
10 7 6 8 10 9 8 8 9 5 5 9 15 7 18 19 17 20 21 26 14 18 16 19 17 17 17 18 18 16 17 24 25 15 15 17 8 3 13 17 17 24 24 29 30
8 9 9 7 13 6 9 8 6 6 2 6 9 10 15 19 26 23 20 24 18 17 21 17 18 13 12 15 13 22 14 13 15 10 13 13 11 13 6 9 16 22 21 26 26
11 11 12 12 8 9 7 7 6 6 9 8 12 13 18 17 16 17 18 20 15 13 15 18 20 12 14 17 19 20 13 10 10 10 12 20 15 9 16 6 33 22 26 23 23
13 13 13 7 6 10 7 10 6 13 9 24 5 11 15 19 15 19 18 15 19 20 13 14 12 17 15 20 16 16 19 12 16 13 13 16 10 10 14 32 6 16 10 8 25
14 12 11 9 5 6 10 2 3 7 16 11 8 2 13 18 9 16 18 17 18 9 4 18 12 17 13 15 6 16 17 17 16 18 15 9 19 20 17 13 11 10 12 11 34
13 13 20 3 5 2 10 5 11 11 4 6 5 3 8 14 11 17 20 7 11 8 2 12 8 16 11 4 7 16 12 17 15 15 14 14 19 17 18 11 6 8 14 16 22
15 9 7 5 8 9 1 9 12 1 6 5 2 4 9 10 11 13 9 3 2 7 4 16 12 10 12 14 14 10 12 14 17 14 11 7 6 18 19 13 9 10 12 11 18
17 12 3 5 9 10 12 4 1 5 11 6 2 6 10 1 8 5 4 7 7 8 5 13 8 11 15 13 18 21 14 16 12 17 6 6 3 6 16 16 14 13 16 17 21
9 5 4 4 4 8 7 8 11 5 2 6 2 2 4 3 3 13 14 0 5 3 4 10 8 5 13 5 6 10 16 15 15 16 5 9 7 13 16 19 16 15 19 20 23
11 2 6 3 7 4 2 5 8 3 2 2 6 3 7 2 8 6 10 3 1 5 7 7 9 9 6 5 15 17 16 14 12 10 6 16 17 19 16 17 15 17 20 22 24
7 6 6 8 10 10 10 5 3 6 3 3 2 9 6 4 7 13 6 6 5 3 4 5 7 5 12 9 12 15 18 12 10 14 12 15 20 21 17 17 17 18 20 23 24
9 5 3 4 0 3 3 8 9 8 10 5 1 4 7 12 6 10 6 5 7 6 6 6 7 6 10 1 10 7 5 7 7 13 9 21 9 15 27 26 17 16 18 19 20
7 2 11 3 3 5 8 7 7 3 5 6 6 6 1 9 12 13 10 13 7 3 4 6 6 9 10 7 4 7 5 6 9 9 18 17 10 17 19 20 20 18 16 17 17

GFSSW_850_spd_093.txt.gz
Wind_Speed
14 14 14 14 14 14 14 14 14 12 11 9 10 10 10 11 11 15 18 6 14 6 15 8 11 17 17 23 23 13 3 2 9 9 8 17 7 15 11 7 25 15 30 35 34
15 15 15 15 14 13 14 14 13 12 12 10 9 10 9 11 12 19 13 13 14 12 15 15 16 16 21 19 13 3 3 3 9 14 16 14 8 11 6 6 10 33 28 36 41
16 16 16 17 15 14 13 14 13 11 11 10 10 9 9 9 9 6 6 17 14 15 15 16 16 18 23 22 6 7 4 6 17 28 24 15 10 5 10 2 34 36 35 31 43
16 16 17 17 16 15 14 13 12 11 10 9 9 8 7 6 1 3 3 8 10 14 17 18 22 23 13 12 16 3 20 9 23 27 24 17 19 11 15 11 26 38 35 35 39
16 16 16 16 16 16 14 13 12 10 8 7 8 7 6 5 13 6 6 6 11 15 22 18 20 22 14 11 24 15 9 8 23 26 23 22 15 13 19 19 23 36 28 30 35
18 16 16 15 15 15 14 11 10 8 7 7 7 6 5 6 7 5 7 5 14 19 22 17 15 19 19 20 7 3 2 13 21 24 27 20 19 12 26 26 22 33 27 28 27
19 17 15 14 14 14 12 9 7 6 5 6 5 7 9 18 5 3 7 9 13 21 20 15 17 20 17 14 13 5 7 7 19 25 18 26 13 13 27 20 31 31 29 25 25
19 16 15 13 12 10 8 5 4 3 4 5 5 6 10 5 6 10 3 6 15 16 17 11 15 21 22 18 2 7 6 5 14 19 18 8 9 14 23 24 29 29 28 26 25
17 15 12 11 10 8 6 4 2 2 3 4 4 4 10 5 12 11 10 12 13 14 14 17 16 15 15 6 6 7 6 15 14 12 17 5 10 15 18 26 24 29 28 25 32
18 13 11 11 8 8 8 7 4 5 4 4 5 6 14 16 13 15 13 15 17 15 17 20 7 1 6 4 7 6 8 2 8 2 10 3 12 10 14 24 26 29 30 25 34
17 11 9 10 9 7 8 4 2 1 7 11 10 11 4 7 12 17 17 20 18 19 7 14 4 7 11 12 16 12 11 7 7 8 6 9 17 14 15 19 24 27 28 27 33
14 9 8 8 8 9 11 8 10 11 9 18 20 22 23 10 14 14 16 12 14 8 10 4 8 12 14 19 19 18 13 10 6 4 8 16 15 12 15 15 25 24 25 30 32
12 9 7 9 11 11 12 9 7 14 8 19 23 20 20 19 16 16 20 19 9 8 8 9 12 19 18 16 17 15 9 15 10 10 11 6 5 9 13 15 12 13 18 28 29
11 10 7 9 12 10 19 12 11 12 3 6 12 12 9 15 8 19 20 17 6 11 10 10 22 16 17 14 12 8 9 11 21 9 5 6 2 5 13 11 11 16 14 22 28
13 11 9 10 14 14 11 9 10 7 4 13 14 9 15 11 9 18 20 21 11 10 7 10 13 14 15 15 12 11 10 15 22 17 8 12 6 3 3 14 12 19 21 24 26
16 16 14 13 16 9 13 13 10 2 2 4 7 7 11 17 18 18 20 21 20 11 11 14 21 15 9 14 12 10 7 7 3 4 1 9 8 5 8 11 8 22 24 22 27
16 17 18 17 12 7 10 12 2 4 17 12 5 2 8 8 13 10 11 10 7 5 7 11 16 11 12 6 6 6 2 3 1 3 6 10 10 3 13 14 16 6 14 25 30
17 15 15 12 5 8 11 5 4 3 7 7 7 19 10 10 11 14 9 8 13 13 6 7 7 13 4 4 7 7 6 5 7 5 7 6 6 5 8 14 17 8 17 17 17
17 14 14 5 3 4 6 5 4 1 6 7 18 6 4 4 6 12 9 10 13 11 5 3 10 8 8 7 9 8 8 9 4 7 3 5 5 7 5 7 12 12 14 5 9
18 13 17 7 11 5 8 0 4 9 8 11 9 7 7 10 8 18 11 10 3 9 6 1 5 12 11 5 0 2 4 5 1 4 4 4 3 7 10 12 12 11 20 14 10
12 5 5 6 12 14 2 4 8 8 3 6 5 4 7 7 6 4 7 19 13 8 13 6 4 8 7 4 4 2 4 1 1 1 4 5 1 8 9 10 12 17 20 24 19
5 3 6 2 9 6 7 6 8 10 7 4 6 8 5 11 8 3 5 8 21 12 4 3 4 6 7 4 7 6 6 4 4 5 3 5 1 1 14 16 21 18 22 26 19
9 10 4 6 5 4 4 6 9 3 8 3 4 3 4 2 6 7 7 12 11 7 3 6 5 4 6 1 5 5 8 7 3 2 5 4 4 5 20 16 18 19 21 23 22
6 3 2 1 5 2 2 5 6 1 4 3 7 4 6 2 2 4 7 10 5 6 6 5 3 4 3 3 4 4 5 7 2 4 5 2 13 15 16 15 22 18 21 22 26
4 3 6 4 7 6 7 7 9 4 6 3 2 1 5 6 6 2 5 4 7 2 3 4 3 6 9 8 8 9 9 9 1 11 6 7 10 15 16 17 24 24 23 24 23
9 7 14 3 8 5 4 5 11 8 8 9 7 9 8 6 4 3 4 6 0 5 1 2 1 9 7 6 6 9 6 6 6 13 10 10 16 14 22 27 27 22 22 24 24
18 20 9 9 5 7 5 6 8 3 6 10 9 9 13 7 7 12 18 17 9 4 5 3 4 3 6 10 7 5 8 7 5 8 13 12 11 17 17 20 25 22 23 24 24

GFSSW_850_spd_096.txt.gz
Wind_Speed
13 12 13 14 13 13 13 12 12 10 10 11 10 10 11 10 11 13 17 8 16 7 16 12 11 13 11 8 15 8 2 5 8 11 7 10 8 20 15 28 26 8 31 37 43
15 14 14 14 15 14 13 12 10 10 10 9 10 9 11 12 13 17 9 10 15 15 15 14 14 16 8 4 6 5 4 4 17 16 12 14 8 15 8 17 12 32 31 41 38
17 16 16 16 15 15 14 13 11 9 9 10 8 8 9 11 11 1 1 12 18 18 12 15 11 12 9 9 4 3 2 10 9 18 29 20 13 10 13 7 27 34 40 40 39
17 17 17 16 16 15 14 13 11 9 8 9 9 6 7 7 4 3 2 8 19 18 15 20 16 7 5 6 6 4 8 5 11 21 23 17 13 12 22 19 34 38 44 40 41
16 15 15 15 15 14 13 12 11 8 7 8 8 6 5 6 10 3 5 6 15 20 20 20 18 10 4 8 10 7 8 11 17 17 19 20 14 7 15 31 26 37 37 39 38
18 15 14 13 13 13 12 10 9 7 6 7 7 6 5 4 3 3 3 5 14 18 21 24 12 9 10 12 10 11 7 15 14 16 17 14 10 15 12 26 35 32 39 36 33
19 16 14 13 12 11 9 7 6 5 5 6 7 6 9 13 6 1 7 7 9 15 21 25 17 8 4 5 18 16 7 11 18 17 15 22 5 11 24 23 30 29 34 38 31
19 16 13 12 11 10 8 6 4 2 3 4 6 6 9 8 11 6 3 7 12 14 20 19 13 16 13 15 4 5 5 5 11 16 18 7 6 17 27 16 25 26 28 30 29
20 15 13 14 12 11 10 8 5 2 2 4 3 5 8 7 16 10 10 6 14 14 21 14 8 10 8 2 5 1 3 4 14 7 11 2 7 18 24 19 27 25 25 20 41
19 14 12 13 12 10 11 9 5 3 3 4 5 6 6 8 15 11 10 6 12 13 7 8 5 2 3 5 4 3 4 2 9 3 8 1 7 15 23 17 25 22 24 29 39
18 14 10 9 11 12 13 9 5 3 7 10 8 11 14 7 13 14 19 13 11 10 5 5 3 5 6 6 6 5 4 7 5 2 7 9 7 13 14 18 18 21 22 28 34
16 15 10 10 10 11 15 11 7 7 11 19 19 23 18 13 8 15 18 16 9 5 2 5 4 7 4 7 7 4 1 7 12 10 5 4 6 8 4 12 20 25 21 25 30
13 14 13 11 12 9 12 10 11 18 6 15 14 15 17 7 11 17 19 16 6 4 4 6 6 8 6 8 8 7 5 8 10 11 4 12 3 2 11 8 18 21 20 29 33
13 11 11 12 9 10 10 13 17 18 4 6 4 5 8 9 6 16 16 11 2 8 5 6 8 6 6 8 6 7 8 11 24 10 5 2 4 4 6 11 13 15 15 31 38
16 13 12 15 15 9 9 17 15 3 4 11 4 1 3 16 7 14 20 20 5 7 6 8 4 7 8 13 8 11 8 13 21 5 10 6 5 3 6 12 16 11 16 21 33
17 15 13 14 12 5 11 16 9 5 2 7 2 7 3 3 5 4 25 22 7 2 4 7 18 7 10 11 12 12 4 6 6 4 1 9 5 4 8 17 15 15 16 19 22
18 17 14 15 5 9 15 12 5 3 6 6 4 5 5 5 4 5 5 5 5 2 4 6 9 10 8 6 3 4 7 2 0 1 6 14 4 6 14 21 25 20 25 23 23
18 16 13 10 6 10 12 4 4 2 5 5 4 9 4 4 3 3 8 4 4 4 1 2 8 6 5 9 8 4 8 6 5 4 2 12 4 4 4 11 16 16 18 17 25
13 10 11 5 5 7 0 5 4 2 4 4 8 7 7 7 5 5 6 3 4 4 7 3 6 6 1 6 8 3 2 6 6 3 4 3 2 7 8 5 6 5 7 12 17
12 7 8 7 7 6 5 4 4 5 2 2 2 3 4 8 5 7 8 3 7 7 7 6 4 4 7 4 3 8 4 4 3 4 2 3 5 3 5 6 10 8 7 4 7
10 6 1 10 8 5 3 4 3 11 13 2 4 3 4 4 4 2 2 5 3 9 11 4 3 8 2 3 6 4 3 5 4 4 6 4 2 4 11 11 10 10 9 10 4
7 2 11 20 4 5 3 4 2 5 1 3 2 5 4 3 4 2 1 4 15 10 7 4 4 1 5 9 4 5 6 5 4 2 3 4 2 10 14 18 14 9 10 11 11
14 6 2 21 3 2 3 3 7 2 2 2 4 5 3 4 5 3 1 8 21 5 2 4 3 3 8 7 7 4 2 6 4 2 5 5 5 7 18 21 17 9 10 9 10
4 3 4 13 7 6 3 3 1 6 3 2 1 6 3 2 4 4 4 3 20 1 5 2 3 5 2 4 1 6 7 4 6 4 4 3 14 12 12 11 21 17 12 14 15
4 3 7 1 5 4 7 6 6 5 11 16 6 2 6 2 3 1 2 3 11 4 3 2 3 4 4 6 5 3 8 4 3 6 6 16 17 18 14 14 19 19 18 17 20
6 6 10 7 6 5 6 4 7 3 4 5 7 12 5 4 1 2 3 4 3 4 7 4 2 5 6 12 11 6 14 8 8 8 14 16 14 18 26 27 22 21 20 19 18
12 6 5 8 2 6 3 3 5 3 10 16 5 4 6 3 6 5 3 4 5 4 5 3 3 3 2 10 7 7 7 7 4 6 22 16 15 27 20 24 25 24 22 24 25

GFSSW_850_spd_099.txt.gz
Wind_Speed
13 13 13 14 14 13 13 11 10 12 11 10 9 10 10 9 10 13 17 10 15 13 18 16 15 9 8 6 11 6 1 4 11 8 9 4 7 11 11 31 12 4 25 34 34
15 15 14 14 14 13 13 12 11 10 11 11 10 9 10 11 11 17 7 10 17 14 24 21 17 13 6 5 5 4 1 6 2 2 13 8 12 13 13 19 22 31 25 33 33
17 16 15 15 14 14 13 12 10 10 10 10 10 9 8 10 10 3 4 15 18 17 19 15 14 13 5 5 5 5 2 4 5 18 16 15 7 10 21 9 32 33 36 35 33
17 17 15 15 14 14 13 12 10 9 10 9 8 8 7 6 3 4 3 14 21 20 20 18 13 10 4 4 6 3 1 1 7 20 15 11 16 10 15 5 33 34 39 37 35
17 15 14 14 13 13 13 12 10 8 8 8 7 7 7 5 8 6 4 14 25 23 21 21 18 7 4 3 6 1 3 2 2 12 18 14 11 8 23 14 34 36 39 38 35
18 16 14 13 12 11 10 9 8 7 6 6 7 7 7 4 4 5 3 11 21 24 23 23 16 15 4 3 6 11 12 1 2 10 16 8 9 11 16 22 34 36 35 38 35
20 16 14 14 12 11 9 8 5 4 4 5 6 7 10 10 3 7 3 6 15 20 24 24 12 10 1 2 12 9 5 2 5 11 4 19 4 6 21 28 34 33 33 34 34
18 14 14 13 12 12 12 10 6 2 2 4 5 6 8 2 10 10 6 11 13 14 15 21 19 6 4 6 3 7 3 4 5 8 7 1 5 15 22 27 31 31 30 29 33
17 13 12 12 11 11 12 11 7 3 1 3 3 4 6 6 17 10 7 5 11 14 13 12 10 5 3 2 4 4 3 4 7 9 7 3 6 22 21 23 27 30 30 29 29
17 13 10 10 11 12 13 12 6 4 1 2 5 5 2 2 13 11 11 8 10 12 8 8 7 3 2 4 4 3 2 2 7 6 13 3 4 18 16 20 21 22 30 25 30
17 15 10 10 10 11 14 8 6 3 8 10 9 12 17 4 6 14 12 14 7 9 5 7 4 5 8 5 4 4 2 6 5 4 4 2 9 16 14 19 27 16 26 32 37
15 16 14 12 10 10 12 11 10 12 10 19 17 20 17 14 4 12 13 11 5 4 3 5 5 8 6 6 4 5 3 4 7 8 3 5 9 13 11 17 24 15 26 30 29
15 15 14 14 13 9 13 11 15 22 2 9 6 7 4 3 4 7 17 13 4 4 4 5 3 7 4 2 4 3 4 6 5 7 4 7 1 10 8 11 13 16 25 31 32
13 13 14 15 8 11 5 16 20 12 4 6 2 2 7 6 2 10 14 14 2 7 5 4 5 3 3 3 6 1 6 8 15 7 4 4 3 3 3 4 25 22 23 31 32
15 12 12 11 13 11 11 14 18 2 3 11 3 5 3 10 6 10 17 13 6 5 6 6 4 4 5 7 6 7 7 11 14 4 6 3 3 2 4 5 8 24 18 32 36
17 16 13 12 14 7 9 14 5 5 3 7 5 6 3 2 2 7 9 9 3 1 1 6 4 5 7 5 8 3 6 11 5 3 0 7 4 3 6 11 10 15 17 19 28
18 13 12 13 4 10 13 10 5 3 5 7 5 5 3 2 3 3 5 4 4 4 4 6 5 5 6 3 1 4 7 2 3 1 5 8 4 3 6 6 18 17 24 24 32
16 8 8 6 5 9 10 5 6 2 3 5 5 5 4 5 4 7 6 2 1 3 2 2 5 7 4 9 7 7 10 5 5 4 1 4 4 1 6 15 19 22 21 26 29
12 4 5 7 7 3 2 5 4 3 4 4 5 6 6 5 5 4 4 2 4 2 1 4 5 3 5 5 10 4 4 6 6 3 4 2 3 2 3 7 13 15 15 16 20
10 4 6 10 6 1 5 3 4 5 3 2 3 4 3 7 4 4 4 3 2 2 5 4 3 2 4 2 3 8 7 4 3 5 3 1 0 3 2 8 10 10 13 7 10
5 2 4 9 8 4 3 5 5 9 7 2 2 3 3 1 4 3 1 3 1 6 3 1 3 5 1 2 6 3 2 6 5 4 5 4 3 3 5 7 9 11 11 6 3
5 2 1 10 4 3 3 4 2 4 2 3 3 3 1 1 2 3 1 3 6 3 2 1 2 1 5 4 4 2 7 5 5 2 3 4 2 4 10 11 14 11 13 12 7
6 1 10 8 1 2 2 2 2 2 3 2 2 2 2 3 3 3 3 5 9 4 3 3 2 2 8 6 7 6 4 4 6 4 4 6 3 4 10 10 14 16 13 13 10
2 2 1 8 1 3 4 1 2 9 5 4 4 3 4 2 4 2 1 3 8 5 1 4 2 4 4 5 2 4 3 2 5 4 6 3 11 7 9 10 9 9 12 13 11
5 2 3 2 4 6 5 2 3 5 4 16 6 1 3 2 2 4 4 6 8 13 3 4 3 2 3 2 2 3 4 5 4 5 6 11 19 19 15 12 14 15 17 19 14
5 4 4 3 1 5 4 4 3 3 5 4 5 6 4 4 2 1 1 2 2 7 5 3 3 1 4 10 7 5 12 6 3 7 7 18 8 7 18 21 20 18 18 23 20
7 4 2 6 3 4 1 3 1 5 4 4 2 3 4 3 7 7 7 5 2 6 4 3 3 3 2 5 3 7 10 5 3 2 22 15 8 21 15 19 22 26 24 25 24

GFSSW_850_spd_102.txt.gz
Wind_Speed
14 14 13 13 12 12 12 10 10 10 11 10 10 10 9 10 11 14 17 9 15 20 22 18 15 12 13 8 4 2 2 1 2 13 6 4 4 5 9 15 8 3 25 33 34
15 15 14 13 13 12 11 11 10 10 10 10 9 9 10 10 12 19 8 10 16 20 26 22 20 15 8 6 5 2 1 2 6 5 7 2 9 10 9 13 22 30 26 33 32
18 16 15 14 13 12 11 10 10 10 10 10 9 8 8 9 11 3 6 15 18 19 23 20 17 14 4 5 6 4 2 3 4 7 19 14 4 6 18 7 27 36 34 33 31
19 17 15 14 13 12 11 10 9 9 9 8 8 7 7 5 2 5 3 16 21 20 25 19 20 9 5 3 5 2 4 6 10 15 14 15 13 16 10 7 36 38 37 34 30
20 18 15 14 13 11 11 10 8 8 7 7 7 6 5 5 6 4 2 17 25 24 25 20 24 8 5 4 6 2 5 4 2 20 13 14 17 15 5 20 33 35 34 32 29
20 16 15 15 13 12 10 8 6 5 5 5 6 6 5 3 3 3 2 18 26 25 23 21 14 8 4 2 4 4 4 3 7 14 17 13 17 16 14 17 28 34 33 32 29
18 15 15 14 14 13 12 10 6 4 3 4 6 6 8 7 1 7 5 14 22 23 20 20 8 6 4 2 4 6 6 1 9 13 7 15 10 9 26 14 28 33 31 31 29
17 13 12 12 13 13 15 13 8 4 2 2 3 4 6 3 8 11 12 16 18 18 14 17 13 5 1 4 2 5 4 3 3 5 11 13 4 19 35 26 26 28 28 30 30
15 13 10 9 10 11 13 14 9 7 2 1 2 4 4 3 11 12 10 11 14 15 8 14 10 1 1 3 4 4 3 2 2 2 2 3 5 19 32 28 25 25 26 28 28
15 13 10 9 9 11 15 13 8 5 1 1 4 3 1 4 8 13 9 4 11 13 11 8 6 3 3 4 4 4 2 3 5 1 6 5 3 16 22 27 27 24 25 25 30
14 13 12 11 11 10 12 6 6 2 11 11 9 9 10 2 7 12 13 12 13 12 4 4 4 7 6 6 5 4 4 6 4 6 6 5 7 17 15 24 20 23 25 26 28
16 14 12 12 13 12 8 4 5 8 7 13 15 18 14 10 3 9 17 9 8 4 5 5 6 6 7 7 7 1 7 5 9 7 3 7 4 13 10 19 30 14 26 28 29
16 16 14 13 14 8 10 7 10 15 2 6 4 5 2 10 6 12 21 7 6 6 4 6 3 7 5 5 7 3 4 5 6 8 3 1 4 10 7 16 29 20 17 32 34
16 16 14 12 8 10 3 12 18 7 4 5 3 1 7 4 2 12 19 10 2 7 8 3 2 7 3 4 6 5 10 9 17 7 4 7 4 8 14 7 10 22 23 25 36
17 16 15 12 13 9 7 14 14 2 4 11 3 4 3 6 9 9 18 10 5 5 6 5 5 5 3 4 6 4 6 9 10 3 4 3 2 2 11 13 14 33 20 28 35
19 19 13 12 10 7 5 14 2 5 3 6 6 6 2 1 2 6 7 7 4 4 4 4 1 5 7 4 8 7 9 10 4 3 1 7 4 4 9 20 15 25 32 26 33
22 16 12 8 3 5 11 6 4 4 4 6 4 5 3 5 4 3 6 3 4 4 2 4 3 3 5 4 1 2 5 3 3 0 5 2 4 5 3 6 22 25 35 33 37
19 11 4 3 5 6 8 4 6 2 3 4 3 3 4 5 4 6 3 3 5 4 3 5 3 7 4 8 7 8 8 6 5 5 2 3 4 4 3 9 18 24 27 30 37
12 2 1 2 1 4 3 5 4 4 3 6 4 6 6 4 4 4 4 2 2 2 5 3 5 4 5 4 9 5 3 6 7 3 4 2 3 4 5 5 15 21 25 26 34
7 3 3 2 2 3 6 1 2 3 2 1 3 3 4 6 3 4 3 1 3 1 3 4 2 3 4 4 2 6 6 3 3 5 3 2 3 3 2 7 8 11 16 14 22
5 4 2 6 2 3 3 4 4 5 4 1 1 3 2 3 2 3 1 1 1 1 5 3 3 6 1 2 7 2 1 5 5 4 6 4 5 3 6 10 8 11 14 17 17
3 3 5 9 3 3 2 4 2 3 2 2 1 2 1 2 3 1 3 3 1 2 3 1 4 3 7 2 2 2 5 6 5 4 1 3 4 1 8 13 17 12 13 13 15
3 4 7 4 3 2 4 1 2 5 4 4 3 2 1 2 3 1 2 1 5 1 3 4 2 2 7 6 5 4 2 4 5 4 5 6 4 5 11 12 15 19 18 16 14
2 2 2 1 3 6 2 1 3 6 3 3 2 2 3 4 4 1 4 2 3 5 3 4 3 4 5 5 3 4 5 2 4 4 6 5 9 11 13 13 15 15 15 15 14
5 1 1 1 5 3 2 2 3 5 5 12 5 6 3 4 2 5 4 6 2 7 3 3 4 2 2 4 3 3 5 5 3 5 6 8 10 17 17 13 18 18 15 14 13
3 2 2 2 1 3 6 4 2 2 5 6 4 4 3 5 2 2 4 5 2 5 3 4 1 1 2 3 7 3 14 10 3 2 4 8 2 8 18 17 18 19 19 18 16
5 3 1 4 3 3 1 2 1 1 2 4 4 3 6 4 4 6 5 7 2 3 2 4 2 3 2 6 5 6 9 5 5 1 4 6 7 14 16 18 18 21 22 21 22

GFSSW_850_spd_105.txt.gz
Wind_Speed
15 14 12 11 11 11 11 11 12 10 8 9 10 9 9 9 11 12 16 8 14 21 21 19 14 16 14 8 4 2 2 3 2 9 5 2 6 5 11 17 6 3 20 23 27
17 15 14 12 11 11 11 10 11 11 10 8 8 9 9 8 11 17 8 10 16 23 24 22 19 18 6 5 4 2 1 2 2 3 4 4 11 14 8 14 14 22 21 28 26
19 16 15 13 11 9 9 9 10 10 9 9 7 7 7 7 8 2 4 14 19 22 23 20 17 12 4 4 4 3 1 8 4 1 6 7 12 12 16 8 20 33 31 26 25
18 16 15 13 12 10 8 8 8 8 7 7 7 6 5 4 2 3 1 17 19 22 24 21 19 8 5 4 5 2 3 7 8 11 7 5 12 10 5 5 21 31 33 27 24
17 15 15 14 12 10 8 6 6 6 6 5 5 6 4 5 5 3 2 13 21 22 25 20 19 8 6 5 6 4 3 9 13 15 14 12 9 7 14 20 25 26 27 26 21
16 14 13 13 13 13 12 9 6 4 3 3 4 4 4 4 3 4 6 15 21 26 25 19 13 7 6 4 6 6 6 6 16 18 18 17 8 7 6 21 23 25 24 21 20
15 11 11 11 12 13 15 13 9 5 2 1 3 4 6 6 2 4 8 20 24 23 24 17 16 4 6 6 3 8 5 7 19 21 14 23 8 3 13 22 23 21 21 20 18
13 12 9 9 11 12 14 13 11 7 3 1 2 4 4 4 4 6 10 21 23 18 15 16 10 3 1 1 3 3 1 3 6 16 11 8 10 12 18 18 23 21 21 19 18
12 12 10 8 9 11 14 12 7 6 4 1 1 2 1 2 6 11 11 16 18 14 7 13 8 3 3 5 3 3 2 5 6 4 9 4 6 22 26 18 23 23 21 20 19
13 11 10 9 8 10 13 9 9 4 1 2 3 0 4 3 10 14 13 11 13 14 7 7 3 4 2 7 7 8 4 6 6 5 6 7 7 23 25 20 22 23 22 22 21
13 11 10 11 9 10 8 5 8 3 10 6 6 4 2 5 9 14 12 13 13 12 6 7 6 12 11 5 4 8 5 8 5 4 6 5 11 18 25 24 23 21 23 23 23
14 12 12 12 12 7 5 2 3 5 7 8 9 14 12 4 5 13 19 6 10 13 9 7 14 7 4 5 5 8 10 7 10 3 7 8 4 15 22 23 23 23 24 24 22
16 16 14 14 12 3 4 3 10 11 3 5 4 3 2 12 7 14 21 10 13 12 13 13 4 9 7 6 8 4 3 8 7 9 11 10 2 9 6 13 12 13 21 23 24
17 18 16 13 8 8 1 7 15 5 2 6 2 2 5 6 5 17 20 11 5 12 8 9 4 13 8 11 7 7 7 9 17 7 4 3 2 8 12 10 18 23 14 23 24
18 19 17 10 9 4 3 9 12 1 2 11 2 3 3 2 15 13 21 8 7 8 5 4 11 12 11 7 7 1 13 13 15 7 7 9 4 4 14 16 17 26 26 20 26
20 20 14 7 5 4 2 11 1 2 4 4 5 6 2 2 3 9 12 4 3 5 3 4 3 7 8 7 8 9 15 12 5 2 3 11 8 6 14 27 21 33 35 29 22
21 16 5 3 1 1 6 4 1 3 3 6 4 5 2 5 4 6 10 6 4 6 9 4 5 2 3 6 7 9 14 5 3 3 4 3 9 7 16 10 28 33 32 30 24
17 5 2 1 1 3 4 1 5 1 2 2 2 2 3 5 3 3 7 7 4 2 5 8 9 9 7 9 6 13 11 6 7 6 4 6 7 1 4 14 21 34 34 33 25
7 7 7 5 1 3 0 4 1 1 2 6 1 3 3 2 0 1 3 3 1 4 2 4 5 1 6 6 12 7 9 7 1 1 5 5 3 3 4 9 18 27 30 34 30
7 9 8 5 2 7 4 3 1 2 1 1 3 3 3 4 1 2 2 1 4 0 2 6 3 3 5 7 3 7 9 10 5 8 7 4 3 4 8 9 13 18 27 27 29
6 5 2 2 3 4 3 1 1 3 3 2 3 2 2 2 2 1 1 2 1 3 3 4 3 4 3 9 12 6 5 3 6 3 9 6 4 3 8 12 14 15 20 21 22
4 2 4 2 2 2 1 0 2 3 2 1 1 2 3 2 2 1 3 0 2 2 3 2 2 4 3 2 3 2 10 13 9 10 1 3 2 3 6 13 16 16 16 16 18
4 4 4 7 2 2 0 1 2 1 4 4 2 4 2 3 2 3 3 2 1 3 3 4 1 3 5 4 3 2 1 3 2 3 9 8 3 3 10 13 16 17 15 15 17
3 2 2 2 3 1 2 1 2 4 3 3 2 2 2 3 4 2 3 1 4 4 5 2 2 4 5 1 1 2 2 3 7 9 6 6 7 11 11 10 13 14 14 15 13
3 2 2 1 3 2 2 1 2 3 5 10 3 5 1 2 2 3 3 3 2 8 3 1 3 3 3 2 8 6 5 3 7 2 9 9 12 16 16 14 14 13 16 17 15
2 3 4 3 1 1 2 2 1 1 4 4 3 5 4 3 3 3 4 4 3 5 2 3 2 1 3 1 5 4 10 5 3 1 2 6 8 8 19 19 17 15 14 14 16
4 4 3 1 2 1 0 1 2 1 2 3 2 2 5 3 1 4 3 1 2 2 2 2 2 3 4 5 4 4 7 6 1 1 1 5 4 18 17 20 19 18 14 13 14

GFSSW_850_spd_108.txt.gz
Wind_Speed
14 12 10 9 9 10 10 10 9 10 10 9 10 9 9 8 9 11 13 8 13 16 17 14 12 12 12 9 5 3 2 5 6 14 7 12 13 8 6 15 7 6 18 28 25
15 13 11 9 8 8 9 10 10 9 8 9 8 9 9 7 9 14 7 9 12 17 19 18 16 15 12 10 6 6 3 1 4 9 8 9 11 14 12 14 14 21 25 28 25
15 13 12 11 9 7 8 9 9 9 7 7 7 8 6 6 4 3 7 16 17 18 18 15 13 14 10 6 7 2 2 10 11 9 4 13 13 9 15 12 19 27 33 28 24
14 12 12 11 10 9 8 7 8 8 6 5 6 6 5 4 2 5 7 16 19 22 19 16 16 13 7 6 7 2 1 9 9 5 6 6 13 10 6 11 16 26 31 30 24
13 11 12 12 12 11 10 8 6 6 5 4 4 5 4 6 5 4 1 19 21 22 22 18 16 13 9 6 6 3 4 9 11 10 8 6 8 5 9 14 23 27 26 25 22
14 11 10 10 10 11 12 10 7 4 3 1 3 4 3 9 6 5 5 15 20 20 23 20 14 11 6 7 5 3 9 11 13 14 14 13 9 3 9 21 28 27 24 23 20
12 10 8 8 9 11 13 11 9 6 3 1 3 4 6 2 3 3 10 15 18 18 20 17 10 11 5 7 7 7 6 13 16 19 17 15 5 7 16 23 26 24 22 21 19
10 10 8 8 9 11 13 11 8 7 4 2 2 3 4 5 2 5 12 16 15 14 15 13 8 9 10 4 7 10 7 7 9 13 15 14 13 8 17 23 23 23 23 20 19
9 10 9 9 9 11 13 11 8 3 5 3 3 1 4 2 4 8 11 17 15 10 11 10 7 9 9 10 8 8 3 9 8 10 5 3 12 15 15 23 24 24 23 20 19
10 10 10 10 9 10 12 8 9 3 1 2 1 3 3 5 9 10 9 16 15 11 11 12 10 10 11 11 10 12 11 11 6 10 16 12 8 15 18 22 24 24 25 21 20
11 12 11 11 8 7 7 7 5 1 4 6 2 3 8 7 12 10 12 12 13 13 10 16 11 16 16 13 6 8 5 17 7 9 4 5 12 21 25 19 25 24 25 24 22
12 13 12 12 10 1 3 2 5 5 6 5 6 7 6 8 10 12 13 9 13 13 12 9 17 17 6 4 10 8 9 12 8 4 9 8 11 15 18 20 22 25 24 24 22
13 14 13 12 7 2 3 3 9 8 6 2 2 4 7 10 12 18 16 7 14 14 15 14 14 7 10 11 9 4 5 11 10 8 10 7 4 13 12 15 22 24 23 24 23
13 15 14 10 2 5 2 6 13 7 4 5 6 5 7 8 8 15 14 8 7 14 13 11 5 14 13 11 9 8 3 6 18 12 5 7 3 3 11 15 25 21 28 26 24
15 16 13 5 4 1 5 6 12 3 1 3 4 3 7 6 19 13 13 7 10 11 9 7 11 16 16 13 7 4 0 5 11 6 12 7 4 2 17 14 16 20 26 26 26
17 16 8 1 3 4 3 9 3 6 5 3 2 1 11 7 6 16 13 7 1 8 13 6 12 11 11 9 8 1 10 3 3 3 5 13 4 5 13 22 26 29 30 27 27
17 8 1 4 2 2 6 3 6 3 2 3 3 0 5 8 11 15 13 11 7 10 12 6 11 8 6 13 9 8 13 6 7 6 3 4 9 3 15 19 27 33 34 30 26
6 6 6 6 4 2 3 6 4 3 5 2 2 4 4 1 8 6 12 9 3 8 9 12 14 13 11 12 11 15 17 7 7 7 6 4 7 3 4 18 28 32 34 34 30
8 9 7 5 2 3 6 2 4 3 3 4 3 6 6 6 1 6 6 9 8 7 4 10 10 9 11 13 9 17 14 17 15 8 6 8 3 6 8 11 18 29 28 29 30
10 6 3 4 4 4 1 7 5 4 5 3 1 4 3 5 8 7 7 4 7 4 7 4 7 10 15 14 16 14 14 17 10 9 11 7 7 6 12 13 17 19 32 34 30
6 3 2 2 4 5 6 10 6 6 3 5 2 1 2 1 3 5 5 7 2 6 5 5 8 11 10 15 16 13 12 15 15 14 11 9 7 3 8 11 15 19 26 32 31
1 2 2 2 4 1 5 3 1 4 2 2 2 4 5 3 2 4 5 4 1 4 6 3 6 9 15 8 11 15 21 17 12 16 9 13 3 3 5 9 10 12 19 24 28
1 4 1 1 3 5 5 4 4 4 6 5 2 4 3 3 2 1 3 4 2 3 3 2 6 8 9 9 6 13 12 15 18 17 16 13 7 7 9 8 9 13 16 17 21
2 4 3 0 2 2 3 3 3 3 3 5 5 3 3 2 2 2 5 4 1 3 3 3 11 11 7 4 5 13 11 14 16 11 13 13 8 9 11 12 15 16 16 15 16
2 2 2 3 4 2 2 1 1 0 1 3 4 3 3 3 3 1 2 6 6 2 3 4 11 7 9 5 4 4 10 14 17 17 17 10 14 10 14 14 15 16 14 15 13
2 2 1 4 5 5 4 2 2 1 5 1 1 1 2 1 6 5 2 1 1 1 1 3 7 6 7 4 5 5 4 10 15 12 13 8 6 4 12 14 15 14 15 13 12
3 1 3 6 6 6 2 3 2 1 2 3 4 4 3 5 4 5 5 3 4 4 2 3 4 7 11 8 8 11 3 1 2 5 7 11 4 10 12 13 14 14 13 12 11

GFSSW_850_spd_111.txt.gz
Wind_Speed
12 11 10 10 9 9 10 10 10 10 10 10 10 10 9 10 10 11 11 10 13 10 16 11 12 12 11 9 6 4 4 5 8 14 7 7 11 12 8 14 11 6 26 27 26
13 12 11 11 10 9 10 10 9 9 9 9 9 9 9 8 10 16 15 14 12 13 16 16 15 14 15 11 8 9 3 2 3 12 8 16 14 12 11 12 9 22 26 26 25
13 12 12 10 10 9 9 9 8 8 8 8 7 7 7 5 8 9 18 17 15 15 16 15 12 14 17 11 20 2 3 8 10 11 9 13 14 13 13 9 19 26 29 26 24
13 11 11 10 10 10 10 9 8 6 6 5 5 6 5 5 3 3 9 13 16 18 17 17 14 16 15 9 12 2 3 10 13 7 4 8 13 10 12 13 16 24 28 27 23
11 9 8 9 10 12 13 12 9 6 4 4 4 5 5 8 9 5 8 12 19 22 20 20 17 17 13 10 6 7 5 11 17 9 8 6 10 6 6 15 20 25 25 24 21
11 10 9 9 10 12 14 12 10 7 4 2 3 5 4 14 3 3 3 15 18 20 20 20 15 17 10 9 4 8 10 17 13 9 4 10 9 3 11 18 25 26 24 22 20
11 11 9 9 10 12 13 12 10 8 4 1 2 5 8 4 3 4 10 13 16 19 19 20 12 14 10 9 9 5 9 12 11 17 6 9 7 4 14 22 26 25 23 21 19
10 10 10 9 9 10 12 11 9 6 6 2 2 3 9 5 3 6 11 14 14 16 16 17 14 16 17 4 8 6 8 7 11 16 9 7 10 6 16 24 26 25 23 20 20
10 10 10 10 9 10 12 11 10 2 3 2 3 4 5 1 6 9 12 15 15 13 13 13 12 17 15 10 11 10 6 9 6 9 9 9 15 12 13 25 26 24 23 23 21
10 10 9 10 9 10 10 11 8 2 3 0 5 7 6 10 10 10 11 14 15 14 13 14 13 14 13 13 13 15 13 9 7 9 5 5 5 11 14 19 22 25 25 23 22
9 10 10 10 8 7 7 10 2 3 10 10 7 5 5 7 12 9 12 16 14 14 15 20 13 17 20 20 5 3 4 9 8 12 3 8 11 15 20 15 19 21 26 28 21
9 10 11 11 9 4 4 4 8 8 6 4 5 5 2 13 13 12 15 14 15 14 19 12 17 18 18 11 6 10 13 13 10 15 7 12 12 18 17 20 24 21 23 27 27
10 11 12 9 5 3 6 8 8 9 8 5 5 8 9 10 14 16 18 12 14 16 17 14 15 19 18 7 9 14 12 17 21 16 8 9 4 14 17 16 12 24 25 21 28
12 12 11 7 1 3 6 4 6 8 6 13 8 5 6 12 10 15 16 9 10 15 13 14 10 17 10 14 14 2 12 9 12 15 3 13 2 1 12 16 13 15 28 30 25
14 13 10 6 5 5 4 6 8 3 2 3 7 3 10 11 17 13 13 9 11 11 10 13 9 11 15 18 8 5 10 25 13 11 12 10 6 2 8 14 17 19 21 26 30
16 14 5 4 6 7 7 9 7 5 2 6 5 8 11 10 9 13 14 10 8 10 11 14 9 11 16 14 9 3 6 7 8 6 7 13 12 14 15 23 24 26 29 25 26
12 1 6 7 1 4 7 8 4 4 4 4 2 12 13 11 11 14 13 14 9 10 11 12 10 14 14 15 8 10 7 3 1 3 2 9 9 9 24 25 28 32 24 28 36
3 7 5 4 5 7 9 12 2 4 10 4 4 5 7 4 14 14 13 12 12 12 11 12 13 14 10 13 11 15 13 6 4 3 5 6 4 5 26 25 35 41 37 32 26
7 6 1 2 4 7 12 7 6 7 5 3 8 10 13 13 6 6 10 12 9 11 13 14 16 19 15 14 15 14 16 19 8 8 7 7 8 8 15 17 22 39 39 40 32
6 6 2 3 6 7 12 9 5 4 6 9 4 6 8 8 7 6 4 7 4 2 12 7 6 13 12 12 15 18 13 15 12 9 4 3 10 5 12 16 15 25 38 39 34
7 8 1 4 7 15 1 7 6 6 5 8 3 3 2 3 7 16 4 4 0 9 8 16 9 11 12 18 17 13 14 13 16 14 9 6 1 16 14 13 15 19 35 40 36
11 2 4 4 13 4 6 4 4 3 4 1 5 8 4 2 8 3 6 1 6 10 8 12 8 13 15 12 17 17 17 15 11 18 14 13 6 6 5 11 16 20 20 29 35
10 8 5 6 6 5 4 8 4 5 5 5 3 5 2 5 5 4 5 2 1 9 8 9 9 10 11 12 8 14 15 19 19 14 16 13 7 13 11 10 12 13 16 22 27
8 5 7 9 7 6 4 2 4 2 2 5 6 5 5 10 7 7 6 6 2 6 8 5 14 15 7 12 15 19 19 16 20 14 14 16 16 14 15 13 13 12 12 15 21
12 3 6 2 6 3 3 3 2 1 1 2 3 7 8 3 6 8 4 9 9 5 6 7 14 12 13 9 19 20 21 20 18 17 17 14 8 16 20 19 18 16 12 12 11
9 6 6 1 0 5 5 2 3 2 3 1 7 1 6 4 7 5 9 8 1 5 9 10 12 13 14 10 14 14 10 8 17 17 17 19 10 12 11 20 23 18 15 12 10
4 7 9 10 7 9 7 4 5 2 1 3 6 8 5 9 10 6 7 5 5 7 7 6 12 3 17 12 13 15 12 11 14 16 16 13 7 7 22 11 14 17 15 13 13

GFSSW_850_spd_114.txt.gz
Wind_Speed
13 12 12 12 11 11 11 10 10 11 11 10 10 10 11 11 11 13 15 10 11 10 13 8 11 11 10 11 6 4 3 2 7 12 4 20 14 9 14 13 19 20 27 26 25
13 12 12 12 12 12 11 10 9 9 9 9 9 9 9 10 13 19 17 13 18 13 16 14 13 12 14 14 5 7 3 6 2 11 11 14 22 19 15 16 18 24 28 24 24
12 12 12 12 13 13 13 12 10 8 9 7 6 7 7 6 9 11 12 16 14 16 16 13 12 13 15 17 12 2 5 1 6 11 13 12 10 12 17 3 30 31 27 25 23
12 10 10 12 13 14 15 13 11 10 8 6 5 4 4 6 2 2 2 15 14 16 16 17 16 15 16 15 7 5 4 6 7 9 7 14 15 10 16 9 26 26 25 25 22
12 10 9 10 12 13 14 13 12 9 7 5 4 3 4 7 12 5 8 10 17 20 19 18 18 16 15 4 8 6 7 14 9 9 4 4 10 15 2 9 23 25 24 24 22
11 11 9 9 10 12 14 14 13 10 7 4 2 3 3 12 4 5 3 10 17 21 19 19 16 15 17 3 5 8 10 18 10 8 5 9 9 6 18 18 25 25 24 23 21
11 11 11 10 10 12 13 14 11 10 7 4 2 4 8 15 1 5 6 9 15 19 18 18 17 15 14 4 17 17 15 12 9 2 4 8 3 7 15 21 26 24 24 22 20
10 11 11 11 11 11 13 13 11 6 6 3 1 3 9 2 9 7 10 10 14 16 16 15 16 12 18 2 6 9 6 6 6 8 3 7 10 1 16 22 25 25 24 22 20
10 10 10 11 12 11 11 13 10 5 4 2 1 3 9 6 9 10 11 14 14 14 15 13 16 16 17 13 12 8 6 9 6 5 3 3 7 11 9 23 25 26 24 22 21
9 10 11 11 12 11 11 13 10 6 5 4 7 9 13 11 9 10 12 13 15 14 15 11 11 13 15 13 10 9 10 7 9 5 3 4 9 12 18 13 26 26 25 24 21
9 11 12 12 11 11 10 10 5 2 9 10 14 13 2 4 4 10 12 14 15 14 13 16 11 16 19 19 7 6 4 9 9 12 5 3 4 12 11 11 14 25 24 28 26
10 11 12 12 11 8 7 7 11 12 16 13 7 9 7 4 10 11 13 14 14 13 17 11 16 19 20 6 10 16 13 14 11 15 3 4 14 14 10 8 8 17 25 24 22
11 11 12 11 9 4 6 11 9 12 13 4 6 10 5 10 11 13 16 18 13 14 15 18 15 19 20 7 6 24 9 13 8 10 3 9 3 8 10 12 18 13 27 28 33
12 12 11 9 5 7 11 2 6 10 5 3 8 5 6 11 10 13 17 13 9 14 17 16 15 18 18 12 11 8 17 12 11 8 3 13 3 1 14 10 14 22 15 24 25
15 13 10 9 9 7 5 4 9 6 4 3 6 1 8 10 15 14 13 14 13 13 12 12 12 10 16 17 17 12 12 18 15 8 9 12 4 6 10 11 17 29 18 27 33
18 14 8 6 7 4 6 7 7 0 4 4 5 8 10 15 8 15 12 13 14 12 12 17 14 7 9 8 12 18 21 16 13 5 4 12 5 8 16 31 24 20 18 17 22
11 4 4 7 2 4 6 9 3 5 2 5 5 4 8 10 10 9 12 12 11 9 11 13 10 5 10 15 8 7 13 4 3 7 4 15 9 6 23 18 23 22 25 23 29
2 1 2 5 5 6 7 8 5 8 9 1 6 10 7 13 8 9 11 11 16 14 9 10 12 15 15 17 10 11 12 5 3 3 1 4 2 5 23 26 38 35 31 28 29
3 3 5 6 6 3 10 8 7 11 7 9 2 2 9 9 6 9 13 13 13 8 11 7 15 14 13 14 13 13 10 16 5 7 6 1 5 2 20 15 24 29 35 31 17
7 9 8 5 5 6 10 6 6 8 10 6 5 5 8 13 8 3 8 4 1 8 8 6 13 16 13 12 15 16 7 10 5 3 5 6 7 5 9 15 21 24 35 34 30
10 10 3 7 6 12 10 8 3 5 7 8 12 3 6 4 6 1 10 4 4 1 5 12 11 2 10 10 13 11 12 10 13 8 4 8 4 11 3 10 16 26 36 38 35
10 11 5 5 12 12 4 4 3 3 3 4 7 9 7 6 10 6 7 9 12 10 3 10 10 8 12 13 16 16 16 17 10 11 10 10 3 12 16 10 16 30 37 38 38
10 18 5 7 8 10 7 5 8 9 6 8 8 4 10 11 4 10 11 1 3 5 9 11 5 8 13 8 8 13 17 14 15 15 15 9 5 17 17 18 22 20 35 35 38
8 4 8 11 16 12 4 3 5 6 6 6 5 7 6 7 8 2 1 8 2 5 8 4 12 12 5 8 11 15 18 17 16 12 15 13 15 16 16 14 15 20 33 41 38
10 8 10 2 3 3 6 6 2 3 3 1 2 6 8 7 7 3 5 2 7 5 5 5 11 13 4 11 10 15 20 20 18 16 17 13 5 9 9 10 11 12 18 37 35
11 15 15 9 1 7 6 2 4 5 3 5 5 7 7 4 5 8 6 6 3 5 11 10 10 13 14 9 12 15 18 21 18 20 17 16 8 16 13 20 38 8 9 21 26
9 9 12 11 6 9 1 7 6 6 2 4 7 10 7 13 11 14 9 11 1 5 6 9 13 5 13 7 14 9 10 14 15 9 5 12 10 9 10 18 3 8 5 10 15

GFSSW_850_spd_117.txt.gz
Wind_Speed
14 13 14 14 14 13 12 11 10 10 9 10 9 9 9 10 12 15 18 10 11 9 4 7 8 9 7 12 9 5 2 3 1 4 3 6 5 26 18 34 25 13 31 30 30
14 13 13 13 14 14 13 12 10 10 8 7 8 8 8 9 12 20 15 11 14 9 9 11 12 10 15 13 10 4 2 1 16 9 3 6 5 18 15 12 19 28 37 35 31
14 12 11 12 13 15 15 14 12 10 9 8 7 6 5 6 9 7 7 14 13 14 12 11 15 15 16 19 13 7 3 4 4 19 7 3 4 8 28 10 28 33 33 35 30
13 12 10 11 13 15 15 15 14 11 9 7 6 5 4 4 1 1 5 6 11 12 15 16 17 20 13 10 14 3 7 6 12 12 13 3 2 13 14 25 33 33 30 32 24
12 12 11 11 12 13 15 15 14 13 9 8 6 4 3 4 11 1 9 4 13 14 17 16 15 19 10 2 10 6 8 7 11 7 14 17 13 9 6 38 32 32 29 24 19
11 12 11 11 11 12 14 14 13 12 10 7 5 3 3 5 3 4 6 4 14 19 18 18 13 18 16 4 8 9 9 13 9 8 16 14 9 18 12 29 25 28 28 23 20
11 12 11 12 12 11 13 14 14 11 10 8 5 3 7 16 4 2 9 8 12 16 17 16 18 20 14 1 16 19 13 9 5 5 8 21 12 4 15 29 29 26 24 26 20
11 11 12 13 13 12 13 14 14 11 8 7 4 6 8 4 5 10 13 6 10 9 15 13 14 21 17 10 7 6 7 5 4 3 4 4 5 4 22 29 27 28 25 25 26
9 11 12 13 13 13 13 13 13 10 8 5 3 7 11 4 13 15 14 11 8 13 11 16 18 18 12 2 3 3 3 10 1 9 5 5 2 7 9 25 25 27 24 25 25
10 11 12 13 13 13 14 14 13 9 6 5 6 10 7 7 9 7 10 14 15 15 14 14 13 5 4 4 5 14 6 6 6 4 3 2 8 15 13 10 21 27 25 25 26
11 11 12 13 13 14 10 13 8 0 7 11 11 9 15 7 3 5 9 12 15 18 8 17 2 6 10 14 14 4 11 14 9 6 2 6 2 13 17 15 13 8 27 31 28
10 12 13 14 12 10 9 9 13 13 11 19 15 15 9 7 2 10 10 9 11 6 8 2 8 11 15 5 9 10 15 7 7 13 1 4 5 9 18 7 7 8 15 32 28
12 12 13 13 10 4 8 13 8 12 9 12 18 11 10 8 13 14 13 17 8 8 10 9 13 17 16 11 10 3 2 9 9 11 4 5 4 6 5 8 13 7 9 32 35
15 14 13 9 8 7 14 9 10 11 3 1 5 4 5 6 7 16 14 15 7 10 10 9 19 14 13 12 8 5 12 9 20 8 1 5 2 4 6 8 7 15 19 26 30
19 17 11 7 9 10 10 10 11 12 5 9 4 3 4 9 4 14 10 15 13 8 7 11 11 9 9 12 11 7 13 11 14 9 4 7 2 4 4 9 13 19 19 8 33
19 12 6 5 6 4 8 12 14 2 3 2 8 7 4 13 10 16 12 13 18 10 8 10 13 7 8 2 20 24 17 5 5 1 1 8 6 4 12 27 23 30 21 10 21
12 6 2 5 2 4 8 15 3 4 3 2 3 5 1 2 7 9 7 7 5 1 5 8 9 8 5 18 19 15 6 1 1 2 1 9 8 7 23 21 29 26 27 19 24
7 3 2 1 1 4 8 5 4 11 7 3 2 8 3 6 7 8 8 7 10 9 5 5 4 4 4 8 13 14 9 6 3 1 2 3 2 5 10 26 30 31 30 26 30
8 8 11 3 1 2 5 3 3 8 11 9 9 5 5 7 4 6 8 9 9 9 3 2 7 6 9 8 8 4 6 8 7 2 3 1 2 11 14 13 27 31 30 35 33
10 13 16 6 7 3 3 6 4 6 8 11 6 7 1 4 3 3 3 7 2 8 10 7 5 7 11 6 8 3 5 2 3 5 3 5 7 5 9 7 15 27 30 30 21
9 7 9 10 6 10 4 7 3 6 6 5 7 7 4 2 7 4 9 12 18 6 6 6 1 9 6 5 6 3 4 4 4 5 4 4 4 12 18 16 10 17 31 35 29
6 4 5 8 6 8 6 2 2 1 1 4 4 4 6 6 4 5 6 4 18 16 5 8 3 6 9 6 9 7 5 6 3 8 2 4 4 12 17 17 23 18 28 35 38
9 16 10 9 4 8 3 5 2 7 8 7 7 9 7 5 4 5 3 8 12 7 4 7 5 5 9 8 7 4 6 4 4 2 6 2 5 10 15 11 25 21 30 33 37
6 3 8 15 19 11 7 4 5 5 3 5 6 9 7 5 6 5 4 2 5 5 8 8 3 1 2 2 4 6 9 11 6 2 5 6 5 10 6 7 6 16 29 38 41
4 6 19 7 3 7 6 7 5 1 5 2 2 5 8 5 8 7 2 1 10 6 7 2 4 6 9 2 3 8 8 9 11 17 4 2 9 10 6 6 4 9 21 28 36
6 7 20 19 9 3 2 4 4 10 7 7 8 10 4 7 7 7 9 3 2 5 3 5 5 7 8 11 11 10 14 13 15 22 17 7 8 5 5 17 21 19 18 11 19
6 9 9 13 10 3 3 4 9 8 4 2 5 7 7 9 15 12 14 21 4 3 1 1 1 3 4 8 8 7 15 17 12 16 6 8 6 3 4 7 9 19 28 18 13

GFSSW_850_spd_120.txt.gz
Wind_Speed
13 13 13 14 15 14 14 12 11 9 8 7 7 8 8 9 11 14 16 8 13 9 5 8 11 11 10 9 14 8 3 1 1 4 3 8 10 17 21 35 25 6 31 35 36
13 12 12 13 14 15 15 14 12 10 9 8 7 7 7 9 11 17 6 9 13 13 9 12 14 11 5 6 5 4 2 8 10 12 1 4 5 26 22 25 17 29 30 40 36
13 11 10 11 12 14 15 15 14 12 10 9 7 6 7 7 7 1 2 11 16 14 10 14 12 6 9 11 5 6 3 5 25 18 7 2 9 12 21 4 32 31 41 44 40
13 12 11 10 12 13 14 14 14 13 11 9 8 6 5 5 3 4 6 3 14 15 13 16 12 4 4 6 11 4 1 4 9 20 9 2 5 10 2 16 31 34 41 41 36
11 12 12 11 11 12 13 14 15 13 12 9 7 6 5 5 7 3 7 2 14 15 15 16 14 8 3 3 7 4 7 7 7 10 9 14 11 3 7 17 37 35 39 39 37
10 10 11 11 11 11 13 15 15 13 11 10 8 5 3 3 1 2 5 6 11 16 15 21 9 1 10 6 5 7 15 12 12 12 8 10 3 11 15 28 33 40 35 37 37
9 10 11 12 12 12 13 14 15 14 11 10 7 7 8 8 4 3 6 9 6 15 17 23 17 8 10 4 8 17 6 10 12 11 6 25 7 8 13 31 23 34 29 30 36
9 11 12 12 12 12 13 14 15 14 10 7 6 10 6 3 4 11 6 8 5 10 12 17 11 12 7 8 6 2 2 4 6 4 0 3 5 1 22 32 25 31 24 24 31
10 11 12 13 13 13 14 13 16 14 9 7 7 7 7 3 8 9 8 10 3 8 10 8 7 9 4 6 4 5 2 4 3 9 3 6 5 5 9 22 26 31 27 25 35
10 11 12 13 13 12 12 12 13 12 9 7 6 8 6 6 3 2 14 14 8 9 8 8 6 2 3 3 5 4 2 3 6 3 6 5 7 4 13 14 11 27 23 35 37
11 12 12 13 12 11 6 10 11 3 14 11 17 15 17 5 7 5 7 12 16 7 5 4 4 4 11 3 3 4 6 6 8 9 7 3 8 9 9 5 6 5 23 32 38
13 13 13 12 10 6 3 7 3 8 11 17 17 19 16 12 2 3 9 7 8 5 1 6 6 9 5 5 7 6 7 6 5 9 2 5 8 10 12 4 6 2 10 39 32
15 15 13 10 6 3 7 9 13 19 6 15 8 13 8 4 4 8 10 9 4 3 4 7 8 8 6 6 8 1 9 9 7 8 1 5 4 4 6 8 7 3 6 25 39
19 17 12 6 2 5 6 13 17 12 4 7 2 2 5 4 5 14 13 7 1 9 5 6 14 9 9 12 6 3 6 14 11 8 3 4 2 5 8 5 5 7 6 18 29
21 16 8 3 2 5 10 11 13 4 4 2 1 6 3 4 3 13 9 11 7 7 4 9 6 7 7 17 9 6 10 11 7 2 1 3 0 3 5 8 7 13 13 16 17
20 13 5 1 2 4 8 13 11 5 3 3 7 4 0 4 7 15 10 12 8 5 5 10 16 5 6 10 15 18 13 11 6 2 0 2 3 4 5 6 11 15 18 17 18
17 9 3 2 1 5 10 12 5 3 6 2 3 3 4 2 3 6 5 3 3 4 4 7 6 6 21 17 7 15 6 3 1 1 2 4 5 8 4 9 16 20 24 22 17
13 6 5 3 2 5 9 5 3 7 4 7 4 5 3 3 3 3 3 3 4 4 2 4 6 10 6 11 12 8 7 6 6 4 3 4 4 6 12 20 25 25 28 24 18
10 11 12 3 2 0 4 4 4 4 4 6 3 4 3 3 5 1 7 3 4 8 6 0 5 4 7 7 11 5 5 5 7 3 2 3 6 8 7 5 6 21 27 28 21
11 15 6 8 5 5 4 4 4 1 5 5 4 3 2 6 5 7 5 3 7 4 5 3 2 2 8 8 7 9 7 4 2 5 2 2 5 5 5 9 12 18 26 29 32
11 9 5 8 9 5 2 6 5 2 3 2 4 3 5 2 4 5 6 4 10 8 9 3 4 8 4 1 9 2 2 5 5 5 5 3 6 8 12 9 12 20 28 32 29
8 3 6 12 5 3 2 5 3 5 7 7 5 6 4 3 3 4 3 3 17 4 4 3 4 2 4 8 4 4 3 4 5 4 1 4 6 3 9 7 15 23 33 33 38
12 7 6 10 3 3 7 6 7 2 4 4 5 4 4 2 1 1 1 4 4 3 2 5 4 4 8 7 7 6 5 2 3 3 2 3 6 6 12 9 17 19 26 37 37
5 3 5 6 7 3 5 6 3 3 3 3 1 5 4 7 4 2 4 4 11 7 12 5 3 4 4 6 4 8 9 6 6 4 5 5 8 2 6 7 4 9 13 34 40
3 4 4 3 7 9 5 3 5 1 6 11 7 9 2 6 5 6 6 7 7 6 5 5 3 4 3 7 18 16 12 11 8 2 4 9 7 12 13 5 8 7 9 23 30
3 3 5 12 11 8 3 1 8 3 3 2 3 5 6 5 4 2 2 3 4 6 3 3 1 2 3 6 16 12 12 13 8 9 2 6 4 10 16 23 22 9 18 13 22
4 7 5 7 6 5 3 7 6 8 2 8 4 4 6 4 9 11 10 9 3 4 3 3 3 3 2 6 4 7 7 9 8 8 2 8 5 9 10 13 10 12 14 16 18

GFSSW_850_spd_123.txt.gz
Wind_Speed
13 11 12 12 14 14 14 14 13 11 9 8 7 7 7 8 10 14 14 6 11 10 13 10 9 8 7 3 5 5 3 3 2 2 1 3 6 14 9 20 14 3 26 31 30
12 10 10 11 13 14 14 15 14 12 11 9 8 6 7 7 9 15 5 9 13 12 11 11 10 11 5 3 6 5 3 7 6 3 2 4 3 15 12 17 17 23 26 33 31
12 11 10 11 12 13 14 14 15 14 12 10 8 8 7 6 5 2 4 12 15 16 9 12 12 10 3 3 4 6 2 6 15 12 12 5 6 16 24 8 26 30 34 33 30
11 11 11 11 11 12 13 14 15 14 14 11 9 8 7 3 3 4 3 7 18 17 15 14 11 7 3 4 7 4 2 11 11 16 10 7 4 10 9 7 31 33 38 35 30
10 11 11 11 11 12 13 14 15 14 12 12 9 8 6 3 2 3 5 4 17 21 17 16 11 5 2 2 5 5 3 7 4 16 10 11 9 3 6 12 27 35 38 34 32
9 10 10 11 11 12 13 14 15 14 12 11 9 7 5 3 2 2 6 5 10 16 18 17 8 3 3 5 3 4 11 10 14 9 9 9 6 6 8 15 31 37 36 34 32
9 10 10 11 11 12 13 14 14 15 12 10 8 9 5 2 7 3 1 2 3 12 14 15 13 4 7 2 4 13 8 9 12 4 4 15 5 5 10 13 34 35 33 34 31
9 10 11 12 12 12 14 14 14 15 11 10 10 11 4 5 7 6 3 4 4 8 11 6 11 5 3 3 6 3 4 3 6 10 1 7 4 10 18 20 29 33 30 33 32
10 10 12 13 13 11 11 12 14 12 9 11 9 8 1 5 8 8 10 6 3 8 9 10 6 3 1 4 4 6 3 6 2 7 7 5 2 3 9 25 29 30 29 36 29
12 11 12 12 12 9 8 11 12 8 7 8 5 6 5 11 3 2 10 8 1 6 3 5 5 3 2 4 3 4 4 6 3 3 8 7 5 2 7 8 20 18 30 33 33
13 13 12 12 10 5 3 11 13 4 25 10 16 9 12 6 1 5 5 8 8 3 4 3 4 5 9 6 5 6 6 9 4 1 4 5 3 6 6 12 9 1 22 35 38
15 14 13 10 7 2 5 10 7 11 11 14 9 15 7 10 5 3 6 6 5 5 3 5 4 7 6 7 4 7 10 5 3 9 1 6 7 6 6 6 7 6 17 32 33
17 16 12 7 3 1 5 10 14 17 2 11 7 6 2 1 2 3 5 7 3 4 3 5 5 6 4 3 7 2 5 7 5 7 1 2 4 5 6 14 16 13 11 28 41
18 16 9 2 2 1 4 13 15 10 4 6 3 2 6 4 3 10 8 4 2 7 4 4 5 5 4 5 8 3 3 12 15 13 3 3 3 5 6 7 8 15 9 28 32
17 14 6 3 3 1 7 12 13 2 4 1 2 2 4 4 2 2 14 7 2 2 5 7 2 4 5 9 9 4 7 5 4 5 1 4 1 3 7 7 11 14 16 25 38
16 11 4 2 4 3 8 11 1 5 3 4 2 2 2 2 1 7 5 5 4 3 3 8 7 6 8 1 10 15 8 7 4 4 2 4 5 3 4 7 12 15 17 18 38
13 8 1 1 2 5 11 7 5 4 5 7 3 1 2 3 2 5 3 4 3 2 2 3 2 3 16 15 4 5 3 3 4 1 5 6 6 8 11 11 12 14 19 22 30
9 5 4 5 5 8 10 5 6 3 4 3 3 1 1 0 1 2 3 2 4 3 1 0 1 7 8 8 11 10 6 5 6 4 2 1 5 6 4 21 28 28 32 28 24
7 7 5 3 3 4 4 5 5 3 4 4 4 5 5 4 2 3 2 2 4 7 6 4 4 2 8 5 9 6 4 4 6 2 2 3 6 8 11 14 16 27 33 37 29
8 10 1 8 7 3 5 4 4 6 4 4 3 1 2 5 3 4 3 4 4 3 5 2 0 1 3 5 5 6 8 3 2 4 4 4 5 6 3 6 7 15 32 38 38
8 4 4 4 8 1 2 5 6 11 2 4 2 3 2 1 2 2 2 4 3 7 4 1 2 5 1 1 8 2 2 5 4 4 4 2 5 5 4 10 15 18 28 36 43
4 2 7 12 2 1 2 5 3 5 3 3 3 2 1 2 2 4 3 3 9 3 4 4 3 0 2 6 1 4 2 3 5 3 1 2 4 13 2 9 15 20 25 35 40
9 3 3 7 1 2 6 6 5 3 1 1 4 3 3 2 2 2 3 7 8 5 3 2 3 3 8 7 7 7 5 3 5 3 0 2 4 16 15 8 8 18 22 26 39
5 3 1 4 3 3 2 7 3 2 4 8 3 4 5 8 6 2 5 4 6 2 4 5 3 4 5 5 3 6 6 5 4 4 2 2 8 15 15 9 10 6 18 25 28
3 2 1 3 3 5 3 4 3 3 3 4 5 5 4 3 5 4 4 7 6 11 6 5 4 1 1 6 10 6 4 8 6 2 3 2 3 7 9 8 9 7 6 18 26
2 3 4 4 7 5 3 2 5 3 4 1 7 4 7 4 3 2 3 2 1 5 4 4 2 1 3 5 11 9 7 6 5 5 3 4 3 6 12 11 16 17 13 6 27
3 4 3 3 2 1 3 5 5 5 3 7 11 6 4 3 5 0 4 5 2 2 2 3 3 3 2 1 4 5 5 3 3 2 2 4 1 6 10 13 17 15 23 15 7

GFSSW_850_spd_126.txt.gz
Wind_Speed
11 10 10 11 13 13 14 14 14 12 9 8 7 5 6 7 9 10 12 5 11 12 14 13 11 10 7 2 1 3 3 3 5 5 3 6 2 9 6 16 7 3 21 28 25
12 10 10 10 11 12 14 14 14 14 12 10 8 7 6 6 8 10 4 9 13 13 14 12 14 13 5 3 1 3 2 3 7 7 4 6 1 7 7 9 8 21 28 28 27
10 10 10 10 11 12 13 15 15 14 14 12 10 8 6 5 1 3 6 10 15 14 11 12 13 9 4 3 4 4 1 5 9 10 21 8 8 6 21 3 15 30 31 30 27
10 10 10 10 11 11 12 14 15 14 13 13 10 8 6 2 4 2 3 12 15 17 12 13 11 7 3 3 5 2 1 5 12 11 16 10 4 8 10 0 26 29 32 31 27
9 9 10 10 11 12 12 13 14 14 13 12 10 9 6 1 3 5 5 9 19 18 14 12 12 4 2 2 1 3 4 11 8 12 7 5 10 5 5 11 24 28 30 30 28
9 9 10 11 11 12 12 12 13 14 13 11 10 9 5 3 3 5 10 8 14 18 12 11 8 4 1 2 1 8 16 9 12 9 7 6 7 7 2 13 27 28 30 29 27
10 10 11 11 11 11 11 11 13 13 11 10 10 10 3 3 6 4 6 7 3 10 9 11 11 3 3 2 6 11 6 8 11 3 4 10 7 9 11 9 26 29 29 27 26
11 11 11 12 12 11 11 12 13 11 9 10 10 7 2 6 5 3 2 1 1 7 7 10 9 1 1 3 5 4 4 4 3 3 5 1 4 11 16 7 17 27 29 28 28
12 12 12 12 11 9 11 13 14 9 7 10 6 6 3 3 7 6 7 1 2 9 10 9 8 2 3 4 4 6 2 3 3 3 4 2 3 5 20 15 17 25 29 29 27
13 12 13 12 10 7 10 14 12 6 7 5 6 4 3 6 6 2 9 4 5 13 8 6 3 3 3 4 4 4 3 2 3 2 3 1 4 3 6 13 25 25 25 26 29
14 13 13 11 8 4 9 9 9 3 11 5 10 6 5 3 3 1 10 10 5 4 4 1 5 5 7 6 4 6 5 6 1 3 1 2 3 2 7 2 9 14 22 29 34
15 15 12 9 4 3 8 6 9 8 8 5 5 7 3 3 0 5 8 6 5 2 3 5 4 4 5 3 5 6 8 4 2 2 3 1 3 4 4 2 4 6 17 33 30
15 14 10 4 1 2 4 9 13 12 2 6 4 5 1 4 2 8 11 6 3 4 2 5 3 7 5 4 4 2 6 4 3 4 2 2 5 5 5 10 14 17 12 29 35
15 14 7 1 2 1 2 12 16 6 4 6 2 0 3 3 1 7 7 3 2 6 6 3 2 4 3 3 5 4 7 6 7 3 1 2 3 4 6 8 13 19 18 24 34
15 12 5 5 3 1 6 13 12 1 4 2 1 1 1 3 3 2 8 4 3 3 5 6 3 3 4 6 7 5 4 7 3 4 3 4 2 4 4 9 13 15 21 18 37
13 9 4 3 4 3 8 14 2 5 2 5 1 1 1 0 1 5 3 0 1 4 1 7 2 6 7 1 9 7 6 7 5 1 0 6 5 4 8 12 16 16 23 23 34
10 6 2 1 3 5 10 8 5 4 4 6 2 3 2 2 3 2 3 1 1 2 2 2 3 1 6 8 6 5 5 3 2 1 4 4 2 9 7 8 19 21 26 27 32
6 3 4 4 5 8 10 4 6 2 5 3 2 2 1 1 2 2 3 1 5 3 1 3 2 8 5 7 8 5 6 5 6 3 2 2 6 6 2 18 19 31 31 29 32
5 5 3 3 3 5 3 5 5 4 4 5 2 6 6 5 3 4 1 3 3 6 6 3 4 3 4 4 7 6 4 5 6 2 1 4 6 4 3 7 14 18 27 34 31
6 6 2 6 4 4 4 3 3 5 4 2 2 1 2 5 4 3 2 2 3 2 5 3 1 3 5 5 1 5 6 2 2 4 4 4 4 4 9 5 10 14 24 36 42
5 1 3 1 3 2 3 5 4 6 3 1 2 3 0 1 2 3 1 3 1 1 2 1 2 5 2 4 8 2 2 1 4 3 4 1 3 5 13 11 14 19 23 31 35
2 2 3 10 2 2 2 4 4 5 3 1 3 1 1 2 3 2 0 3 14 3 2 2 4 3 2 7 3 2 2 4 4 4 2 3 3 9 12 7 10 7 15 28 35
10 0 7 3 2 2 4 4 6 3 1 1 2 3 4 2 3 1 2 2 9 4 3 2 2 2 5 6 5 6 3 3 4 0 2 4 3 8 15 16 9 7 14 22 26
5 1 2 4 3 5 0 5 5 4 2 4 2 3 4 5 5 1 5 4 8 5 9 2 3 3 6 5 2 3 5 4 3 3 2 2 5 9 12 12 15 8 8 19 28
3 2 0 1 1 2 3 0 3 3 2 2 4 1 6 3 3 4 3 6 4 11 5 4 5 4 5 4 4 2 5 6 4 3 2 3 2 5 10 9 11 9 6 16 26
2 3 3 4 3 1 3 3 4 3 5 2 6 3 4 6 6 3 1 0 3 4 4 3 2 2 6 4 6 5 4 5 4 2 4 2 2 4 9 9 13 12 6 12 20
2 3 2 3 2 2 4 3 4 4 2 8 11 4 2 3 5 1 3 7 2 1 2 3 4 3 3 2 5 2 4 2 2 1 3 2 3 2 4 10 12 12 11 8 14